[[{"header":{"parameterUnit":"m.s-1","parameterCategory":1,"la1":30.6,"la2":28.766,"lo1":-90.7593,"lo2":-88.6598,"dy":0.0162,"dx":0.0183,"nx":116,"ny":114,"refTime":"2023-11-11T06:00:00:Z","depth":0,"parameterNumber":2,"parameterNumberName":"U-component_of_WINDS"},"data":[0.0,0.0,0.0,0.0,0.0,0.0,0.0,0.0,0.0,0.0,0.0,0.0,0.0,0.0,0.0,0.0,0.0,0.0,0.0,0.0,0.0,0.0,0.0,0.0,0.0,0.0,0.0,0.0,0.0,0.0,0.0,0.0,0.0,0.0,0.0,0.0,0.0,0.0,0.0,0.0,0.0,0.0,0.0,0.0,0.0,0.0,0.0,0.0,0.0,0.0,0.0,0.0,0.0,0.0,0.0,0.0,0.0,0.0,0.0,0.0,0.0,0.0,0.0,0.0,0.0,0.0,0.0,0.0,0.0,0.0,0.0,0.0,0.0,0.0,0.0,0.0,0.0,0.0,0.0,0.0,0.0,0.0,0.0,0.0,0.0,0.0,0.0,0.0,0.0,0.0,0.0,0.0,0.0,0.0,0.0,0.0,0.0,0.0,0.0,0.0,0.0,0.0,0.0,0.0,0.0,0.0,0.0,0.0,0.0,0.0,0.0,0.0,0.0,0.0,0.0,0.0,0.0,0.0,0.0,0.0,0.0,0.0,0.0,0.0,0.0,0.0,0.0,0.0,0.0,0.0,0.0,0.0,0.0,0.0,0.0,0.0,0.0,0.0,0.0,0.0,0.0,0.0,0.0,0.0,0.0,0.0,0.0,0.0,0.0,0.0,0.0,0.0,0.0,0.0,0.0,0.0,0.0,0.0,0.0,0.0,0.0,0.0,0.0,0.0,0.0,0.0,0.0,0.0,0.0,0.0,0.0,0.0,0.0,0.0,0.0,0.0,0.0,0.0,0.0,0.0,0.0,0.0,0.0,0.0,0.0,0.0,0.0,0.0,0.0,0.0,0.0,0.0,0.0,0.0,0.0,0.0,0.0,0.0,0.0,0.0,0.0,0.0,0.0,0.0,0.0,0.0,0.0,0.0,0.0,0.0,0.0,0.0,0.0,0.0,0.0,0.0,0.0,0.0,0.0,0.0,0.0,0.0,0.0,0.0,0.0,0.0,0.0,0.0,0.0,0.0,0.0,0.0,0.0,0.0,0.0,0.0,0.0,0.0,0.0,0.0,0.0,0.0,0.0,0.0,0.0,0.0,0.0,0.0,0.0,0.0,0.0,0.0,0.0,0.0,0.0,0.0,0.0,0.0,0.0,0.0,0.0,0.0,0.0,0.0,0.0,0.0,0.0,0.0,0.0,0.0,0.0,0.0,0.0,0.0,0.0,0.0,0.0,0.0,0.0,0.0,0.0,0.0,0.0,0.0,0.0,0.0,0.0,0.0,0.0,0.0,0.0,0.0,0.0,0.0,0.0,0.0,0.0,0.0,0.0,0.0,0.0,0.0,0.0,0.0,0.0,0.0,0.0,0.0,0.0,0.0,0.0,0.0,0.0,0.0,0.0,0.0,0.0,0.0,0.0,0.0,0.0,0.0,0.0,0.0,0.0,0.0,0.0,0.0,0.0,0.0,0.0,0.0,0.0,0.0,0.0,0.0,0.0,0.0,0.0,0.0,0.0,0.0,0.0,0.0,0.0,0.0,0.0,0.0,0.0,0.0,0.0,0.0,0.0,0.0,0.0,0.0,0.0,0.0,0.0,0.0,0.0,0.0,0.0,0.0,0.0,0.0,0.0,0.0,0.0,0.0,0.0,0.0,0.0,0.0,0.0,0.0,0.0,0.0,0.0,0.0,0.0,0.0,0.0,0.0,0.0,0.0,0.0,0.0,0.0,0.0,0.0,0.0,0.0,0.0,0.0,0.0,0.0,0.0,0.0,0.0,0.0,0.0,0.0,0.0,0.0,0.0,0.0,0.0,0.0,0.0,0.0,0.0,0.0,0.0,0.0,0.0,0.0,0.0,0.0,0.0,0.0,0.0,0.0,0.0,0.0,0.0,0.0,0.0,0.0,0.0,0.0,0.0,0.0,0.0,0.0,0.0,0.0,0.0,0.0,0.0,0.0,0.0,0.0,0.0,0.0,0.0,0.0,0.0,0.0,0.0,0.0,0.0,0.0,0.0,0.0,0.0,0.0,0.0,0.0,0.0,0.0,0.0,0.0,0.0,0.0,0.0,0.0,0.0,0.0,0.0,0.0,0.0,0.0,0.0,0.0,0.0,0.0,0.0,0.0,0.0,0.0,0.0,0.0,0.0,0.0,0.0,0.0,0.0,0.0,0.0,0.0,0.0,0.0,0.0,0.0,0.0,0.0,0.0,0.0,0.0,0.0,0.0,0.0,0.0,0.0,0.0,0.0,0.0,0.0,0.0,0.0,0.0,0.0,0.0,0.0,0.0,0.0,0.0,0.0,0.0,0.0,0.0,0.0,0.0,0.0,0.0,0.0,0.0,0.0,0.0,0.0,0.0,0.0,0.0,0.0,0.0,0.0,0.0,0.0,0.0,0.0,0.0,0.0,0.0,0.0,0.0,0.0,0.0,0.0,0.0,0.0,0.0,0.0,0.0,0.0,0.0,0.0,0.0,0.0,0.0,0.0,0.0,0.0,0.0,0.0,0.0,0.0,0.0,0.0,0.0,0.0,0.0,0.0,0.0,0.0,0.0,0.0,0.0,0.0,0.0,0.0,0.0,0.0,0.0,0.0,0.0,0.0,0.0,0.0,0.0,0.0,0.0,0.0,0.0,0.0,0.0,0.0,0.0,0.0,0.0,0.0,0.0,0.0,0.0,0.0,0.0,0.0,0.0,0.0,0.0,0.0,0.0,0.0,0.0,0.0,0.0,0.0,0.0,0.0,0.0,0.0,0.0,0.0,0.0,0.0,0.0,0.0,0.0,0.0,0.0,0.0,0.0,0.0,0.0,0.0,0.0,0.0,0.0,0.0,0.0,0.0,0.0,0.0,0.0,0.0,0.0,0.0,0.0,0.0,0.0,0.0,0.0,0.0,0.0,0.0,0.0,0.0,0.0,0.0,0.0,0.0,0.0,0.0,0.0,0.0,0.0,0.0,0.0,0.0,0.0,0.0,0.0,0.0,0.0,0.0,0.0,0.0,0.0,0.0,0.0,0.0,0.0,0.0,0.0,0.0,0.0,0.0,0.0,0.0,0.0,0.0,0.0,0.0,0.0,0.0,0.0,0.0,0.0,0.0,0.0,0.0,0.0,0.0,0.0,0.0,0.0,0.0,0.0,0.0,0.0,0.0,0.0,0.0,0.0,0.0,0.0,0.0,0.0,0.0,0.0,0.0,0.0,0.0,0.0,0.0,0.0,0.0,0.0,0.0,0.0,0.0,0.0,0.0,0.0,0.0,0.0,0.0,0.0,0.0,0.0,0.0,0.0,0.0,0.0,0.0,0.0,0.0,0.0,0.0,0.0,0.0,0.0,0.0,0.0,0.0,0.0,0.0,0.0,0.0,0.0,0.0,0.0,0.0,0.0,0.0,0.0,0.0,0.0,0.0,0.0,0.0,0.0,0.0,0.0,0.0,0.0,0.0,0.0,0.0,0.0,0.0,0.0,0.0,0.0,0.0,0.0,0.0,0.0,0.0,0.0,0.0,0.0,0.0,0.0,0.0,0.0,0.0,0.0,0.0,0.0,0.0,0.0,0.0,0.0,0.0,0.0,0.0,0.0,0.0,0.0,0.0,0.0,0.0,0.0,0.0,0.0,0.0,0.0,0.0,0.0,0.0,0.0,0.0,0.0,0.0,0.0,0.0,0.0,0.0,0.0,0.0,0.0,0.0,0.0,0.0,0.0,0.0,0.0,0.0,0.0,0.0,0.0,0.0,0.0,0.0,0.0,0.0,0.0,0.0,0.0,0.0,0.0,0.0,0.0,0.0,0.0,0.0,0.0,0.0,0.0,0.0,0.0,0.0,0.0,0.0,0.0,0.0,0.0,0.0,0.0,0.0,0.0,0.0,0.0,0.0,0.0,0.0,0.0,0.0,0.0,0.0,0.0,0.0,0.0,0.0,0.0,0.0,0.0,0.0,0.0,0.0,0.0,0.0,0.0,0.0,0.0,0.0,0.0,0.0,0.0,0.0,0.0,0.0,0.0,0.0,0.0,0.0,0.0,0.0,0.0,0.0,0.0,0.0,0.0,0.0,0.0,0.0,0.0,0.0,0.0,0.0,0.0,0.0,0.0,0.0,0.0,0.0,0.0,0.0,0.0,0.0,0.0,0.0,0.0,0.0,0.0,0.0,0.0,0.0,0.0,0.0,0.0,0.0,0.0,0.0,0.0,0.0,0.0,0.0,0.0,0.0,0.0,0.0,0.0,0.0,0.0,0.0,0.0,0.0,0.0,0.0,0.0,0.0,0.0,0.0,0.0,0.0,0.0,0.0,0.0,0.0,0.0,0.0,0.0,0.0,0.0,0.0,0.0,0.0,0.0,0.0,0.0,0.0,0.0,0.0,0.0,0.0,0.0,0.0,0.0,0.0,0.0,0.0,0.0,0.0,0.0,0.0,0.0,0.0,0.0,0.0,0.0,0.0,0.0,0.0,0.0,0.0,0.0,0.0,0.0,0.0,0.0,0.0,0.0,0.0,0.0,0.0,0.0,0.0,0.0,0.0,0.0,0.0,0.0,0.0,0.0,0.0,0.0,0.0,0.0,0.0,0.0,0.0,0.0,0.0,0.0,0.0,0.0,0.0,0.0,0.0,0.0,0.0,0.0,0.0,0.0,0.0,0.0,0.0,0.0,0.0,0.0,0.0,0.0,0.0,0.0,0.0,0.0,0.0,0.0,0.0,0.0,0.0,0.0,0.0,0.0,0.0,0.0,0.0,0.0,0.0,0.0,0.0,0.0,0.0,0.0,0.0,0.0,0.0,0.0,0.0,0.0,0.0,0.0,0.0,0.0,0.0,0.0,0.0,0.0,0.0,0.0,0.0,0.0,0.0,0.0,0.0,0.0,0.0,0.0,0.0,0.0,0.0,0.0,0.0,0.0,0.0,0.0,0.0,0.0,0.0,0.0,0.0,0.0,0.0,0.0,0.0,0.0,0.0,0.0,0.0,0.0,0.0,0.0,0.0,0.0,0.0,0.0,0.0,0.0,0.0,0.0,0.0,0.0,0.0,0.0,0.0,0.0,0.0,0.0,0.0,0.0,0.0,0.0,0.0,0.0,0.0,0.0,0.0,0.0,0.0,0.0,0.0,0.0,0.0,0.0,0.0,0.0,0.0,0.0,0.0,0.0,0.0,0.0,0.0,0.0,0.0,0.0,0.0,0.0,0.0,0.0,0.0,0.0,0.0,0.0,0.0,0.0,0.0,0.0,0.0,0.0,0.0,0.0,0.0,0.0,0.0,0.0,0.0,0.0,0.0,0.0,0.0,0.0,0.0,0.0,0.0,0.0,0.0,0.0,0.0,0.0,0.0,0.0,0.0,0.0,0.0,0.0,0.0,0.0,0.0,0.0,0.0,0.0,0.0,0.0,0.0,0.0,0.0,0.0,0.0,0.0,0.0,0.0,0.0,0.0,0.0,0.0,0.0,0.0,0.0,0.0,0.0,0.0,0.0,0.0,0.0,0.0,0.0,0.0,0.0,0.0,0.0,0.0,0.0,0.0,0.0,0.0,0.0,0.0,0.0,0.0,0.0,0.0,0.0,0.0,0.0,0.0,0.0,0.0,0.0,0.0,0.0,0.0,0.0,0.0,0.0,0.0,0.0,0.0,0.0,0.0,0.0,0.0,0.0,0.0,0.0,0.0,0.0,0.0,0.0,0.0,0.0,0.0,0.0,0.0,0.0,0.0,0.0,0.0,0.0,0.0,0.0,0.0,0.0,0.0,0.0,0.0,0.0,0.0,0.0,0.0,0.0,0.0,0.0,0.0,0.0,0.0,0.0,0.0,0.0,0.0,0.0,0.0,0.0,0.0,0.0,0.0,0.0,0.0,0.0,0.0,0.0,0.0,0.0,0.0,0.0,0.0,0.0,0.0,0.0,0.0,0.0,0.0,0.0,0.0,0.0,0.0,0.0,0.0,0.0,0.0,0.0,0.0,0.0,0.0,0.0,0.0,0.0,0.0,0.0,0.0,0.0,0.0,0.0,0.0,0.0,0.0,0.0,0.0,0.0,0.0,0.0,0.0,0.0,0.0,0.0,0.0,0.0,0.0,0.0,0.0,0.0,0.0,0.0,0.0,0.0,0.0,0.0,0.0,3.0005,0.0,0.0,0.0,0.0,0.0,0.0,0.0,0.0,0.0,0.0,0.0,0.0,0.0,0.0,0.0,0.0,0.0,0.0,0.0,0.0,0.0,0.0,0.0,0.0,0.0,0.0,0.0,0.0,0.0,0.0,0.0,0.0,0.0,0.0,0.0,0.0,0.0,0.0,0.0,2.9804,3.0055,3.0557,3.0834,3.0532,2.9804,0.0,0.0,0.0,0.0,0.0,0.0,0.0,0.0,0.0,0.0,0.0,0.0,0.0,0.0,0.0,0.0,0.0,0.0,0.0,0.0,0.0,0.0,0.0,0.0,0.0,0.0,0.0,0.0,0.0,0.0,0.0,0.0,0.0,0.0,0.0,0.0,0.0,0.0,0.0,0.0,0.0,0.0,0.0,0.0,0.0,0.0,0.0,0.0,0.0,0.0,0.0,0.0,0.0,0.0,0.0,0.0,0.0,0.0,0.0,0.0,0.0,0.0,0.0,0.0,0.0,0.0,0.0,0.0,0.0,0.0,0.0,3.1863,0.0,0.0,0.0,0.0,0.0,0.0,0.0,0.0,0.0,0.0,0.0,0.0,0.0,0.0,0.0,0.0,0.0,0.0,0.0,0.0,0.0,0.0,0.0,0.0,0.0,0.0,0.0,0.0,0.0,0.0,0.0,0.0,0.0,0.0,0.0,2.9804,2.9804,2.9804,3.0181,3.103,3.2286,3.2817,3.2416,3.1185,3.0507,0.0,0.0,0.0,0.0,0.0,0.0,0.0,0.0,0.0,0.0,0.0,0.0,0.0,0.0,0.0,0.0,0.0,0.0,0.0,0.0,0.0,0.0,0.0,0.0,0.0,0.0,0.0,0.0,0.0,0.0,0.0,0.0,0.0,0.0,0.0,0.0,0.0,0.0,0.0,0.0,0.0,0.0,0.0,0.0,0.0,0.0,0.0,0.0,0.0,0.0,0.0,0.0,0.0,0.0,0.0,0.0,0.0,0.0,0.0,0.0,0.0,0.0,0.0,3.824,3.9271,4.0425,4.0501,4.0852,4.1204,3.8065,3.568,3.3919,3.3542,0.0,0.0,0.0,0.0,0.0,0.0,0.0,0.0,0.0,0.0,0.0,0.0,0.0,0.0,0.0,0.0,0.0,0.0,0.0,0.0,0.0,2.9804,2.9804,2.9804,2.9804,2.9804,0.0,0.0,0.0,0.0,0.0,0.0,2.9804,2.9804,2.9804,2.9804,3.1733,3.3718,3.5753,3.6306,3.6684,3.6784,3.3395,3.2946,3.4555,0.0,0.0,0.0,0.0,0.0,0.0,0.0,0.0,0.0,0.0,0.0,0.0,0.0,0.0,0.0,0.0,0.0,0.0,0.0,0.0,0.0,0.0,0.0,0.0,0.0,0.0,0.0,0.0,0.0,0.0,0.0,0.0,0.0,0.0,0.0,0.0,0.0,0.0,0.0,0.0,0.0,3.1637,3.1235,0.0,0.0,0.0,0.0,0.0,0.0,0.0,0.0,0.0,0.0,0.0,0.0,0.0,3.7839,3.927,4.143,4.216,4.1458,4.3467,4.3991,4.3288,4.3736,4.4292,4.4819,4.4794,0.0,3.7211,3.528,0.0,0.0,0.0,0.0,0.0,0.0,0.0,0.0,0.0,0.0,0.0,0.0,0.0,0.0,0.0,0.0,0.0,0.0,0.0,0.0,0.0,3.0608,3.1035,3.0728,3.2692,3.304,3.0834,0.0,0.0,0.0,0.0,2.9804,2.9804,2.9804,3.0557,3.2089,3.4974,3.716,3.8718,3.9597,4.0301,4.0701,3.8341,3.666,3.5357,3.3323,0.0,0.0,0.0,0.0,0.0,0.0,0.0,0.0,0.0,0.0,0.0,0.0,0.0,0.0,0.0,0.0,0.0,0.0,0.0,0.0,0.0,0.0,0.0,0.0,0.0,0.0,0.0,0.0,0.0,0.0,0.0,0.0,0.0,0.0,0.0,0.0,0.0,0.0,0.0,3.239,3.3068,3.1582,3.2717,3.2717,0.0,0.0,0.0,0.0,0.0,0.0,0.0,0.0,0.0,3.8668,4.0375,4.148,4.1882,4.4418,4.5748,4.5929,4.7481,4.8485,4.8937,4.8862,4.9138,4.964,4.9264,4.7355,4.4192,4.0098,3.7062,3.4851,0.0,0.0,0.0,0.0,3.3014,3.3144,0.0,0.0,0.0,0.0,0.0,0.0,0.0,0.0,0.0,0.0,0.0,0.0,3.0357,3.1863,3.2867,3.2867,3.5403,3.5828,3.3043,3.3495,0.0,0.0,3.0005,2.9804,2.9804,3.0608,3.2466,3.5378,3.8592,4.0852,4.2206,4.3366,4.4095,4.4446,4.3435,4.1001,3.7488,3.5429,3.3897,3.2763,0.0,0.0,0.0,0.0,0.0,0.0,0.0,0.0,0.0,0.0,0.0,0.0,0.0,0.0,0.0,0.0,0.0,0.0,0.0,0.0,0.0,0.0,0.0,0.0,0.0,0.0,0.0,0.0,0.0,0.0,0.0,0.0,0.0,0.0,0.0,0.0,0.0,3.3972,3.4653,3.2315,3.4477,3.4703,0.0,0.0,0.0,0.0,0.0,0.0,3.8165,3.9622,4.1103,4.2785,4.4844,4.5924,4.5979,4.8134,4.9665,5.0502,5.1147,5.2126,5.3331,5.2929,5.2879,5.3046,5.2251,5.1197,4.964,4.464,4.0839,3.7939,3.6281,3.5302,3.4918,3.5308,3.5252,3.5135,0.0,0.0,0.0,0.0,0.0,0.0,0.0,0.0,0.0,0.0,0.0,3.0382,3.1893,3.3574,3.518,3.6783,3.6609,3.6584,3.6909,3.3567,3.1712,3.2043,3.0608,2.9804,2.9804,3.2867,3.6081,3.9396,4.2183,4.4669,4.6798,4.7933,4.8492,4.8492,4.7857,4.6024,4.3062,3.8291,3.6507,3.6582,3.2842,0.0,0.0,0.0,0.0,0.0,0.0,0.0,0.0,0.0,0.0,0.0,0.0,0.0,0.0,0.0,0.0,0.0,0.0,0.0,0.0,0.0,0.0,0.0,0.0,0.0,0.0,0.0,0.0,0.0,0.0,0.0,0.0,0.0,0.0,0.0,0.0,0.0,0.0,3.4098,3.7588,0.0,0.0,0.0,0.0,3.7588,3.8718,4.0551,4.3288,4.3991,4.5824,4.9038,5.0795,5.2427,5.3994,5.4672,5.4988,5.5039,5.4622,5.4446,5.4522,5.4496,5.4195,5.3658,5.3607,5.2678,5.0954,4.7481,4.3905,4.0444,3.8755,3.696,3.5273,3.5318,3.5981,3.685,0.0,0.0,0.0,0.0,0.0,0.0,0.0,0.0,0.0,2.9377,3.0583,3.2093,3.4126,3.6786,3.912,4.0803,4.1731,4.143,3.9446,3.6684,3.4726,3.385,3.1888,3.1838,3.3997,3.6232,3.9019,4.2333,4.5472,4.7405,4.8209,4.969,5.0193,4.9816,4.9238,4.8259,4.6733,4.2085,3.9195,3.7437,3.4274,3.234,0.0,0.0,0.0,0.0,0.0,0.0,0.0,0.0,0.0,0.0,0.0,0.0,0.0,0.0,0.0,0.0,0.0,0.0,0.0,0.0,0.0,0.0,0.0,0.0,0.0,0.0,0.0,0.0,0.0,0.0,0.0,0.0,0.0,0.0,0.0,0.0,0.0,3.9321,4.2509,0.0,3.9321,3.9673,4.0728,4.213,4.3611,4.5698,4.846,5.0142,5.1724,5.3281,5.4963,5.5767,5.5616,5.6545,5.6821,5.6408,5.5497,5.5047,5.4985,5.3149,5.2234,5.1984,5.1334,5.0742,5.0091,4.8589,4.6376,4.3671,4.1404,4.0015,3.9416,3.9793,3.986,3.9728,0.0,0.0,0.0,0.0,0.0,0.0,0.0,0.0,2.8631,2.9402,3.1587,3.3875,3.6108,3.9822,4.2936,4.4798,4.5301,4.4468,4.203,3.8417,3.578,3.4477,3.3018,3.3796,3.7161,3.9597,4.2333,4.5472,4.8466,4.9891,4.9949,5.1222,5.1523,5.0971,5.0594,5.0017,4.9113,4.5828,4.2487,3.917,3.6408,3.4951,3.4048,0.0,0.0,0.0,0.0,0.0,0.0,0.0,0.0,0.0,0.0,0.0,0.0,0.0,0.0,0.0,0.0,0.0,0.0,0.0,0.0,0.0,0.0,0.0,0.0,0.0,0.0,0.0,0.0,0.0,0.0,0.0,0.0,0.0,0.0,4.06,4.3335,4.3567,4.6828,4.7676,4.4195,4.4874,4.6125,4.7581,4.9206,5.1214,5.3658,5.5189,5.5937,5.5868,5.7549,5.7787,5.6437,5.6995,5.7094,5.6685,5.5149,5.4405,5.4319,5.2325,5.1277,5.1071,5.0224,4.9712,4.9294,4.8613,4.7307,4.5535,4.3635,4.2471,4.1857,4.231,4.199,4.1325,0.0,0.0,0.0,0.0,0.0,0.0,0.0,2.853,2.8888,2.8982,3.2369,3.5631,3.7914,4.261,4.6507,4.8743,4.6858,4.5271,4.4665,3.8392,3.4477,3.3972,3.4022,3.5655,3.9044,4.2785,4.6075,4.8868,5.1046,5.2101,5.2101,5.2619,5.2594,5.2101,5.2101,5.1498,5.0361,4.9346,4.6381,4.2185,3.9295,3.8442,3.8441,0.0,0.0,0.0,0.0,0.0,0.0,0.0,0.0,0.0,0.0,0.0,0.0,0.0,0.0,0.0,0.0,0.0,0.0,0.0,0.0,0.0,0.0,0.0,0.0,0.0,0.0,0.0,0.0,0.0,0.0,0.0,0.0,0.0,3.9672,4.4113,4.7074,4.6677,5.0436,5.159,4.7826,5.0386,5.2754,5.3808,5.5415,5.7072,5.8666,5.8728,5.8158,5.6885,5.8496,5.8535,5.6765,5.6277,5.6052,5.6028,5.3657,5.2554,5.2554,5.2091,5.1549,5.0985,5.0582,4.9782,4.8743,4.7661,4.6681,4.5803,4.5419,4.4047,4.2327,4.2327,4.2031,4.1505,0.0,0.0,0.0,0.0,0.0,0.0,0.0,2.8247,2.89,3.0507,3.4098,3.7814,4.1255,4.5401,4.8937,5.1548,4.8284,4.5849,4.5296,3.8642,3.4803,3.5054,3.6634,3.9647,4.4166,4.5668,4.7807,5.0627,5.1599,5.19,5.1523,5.2477,5.2594,5.2101,5.2101,5.1925,5.1599,5.0896,4.964,4.7732,4.2964,4.0426,3.917,0.0,0.0,0.0,0.0,0.0,0.0,0.0,0.0,0.0,0.0,0.0,0.0,0.0,0.0,0.0,0.0,0.0,0.0,0.0,0.0,0.0,0.0,0.0,0.0,0.0,0.0,0.0,0.0,0.0,0.0,0.0,4.0877,4.3966,4.4418,4.7757,5.0971,5.3231,5.5605,5.6684,5.5605,5.6333,5.7173,5.7851,5.8704,5.9583,6.0462,5.958,5.8701,5.7974,5.7532,5.6749,5.5509,5.5346,5.5131,5.4759,5.2857,5.1928,5.1887,5.019,4.91,4.859,4.8143,4.7589,4.6936,4.5995,4.5302,4.4818,4.4646,4.3864,4.2788,4.2788,4.2319,4.1658,0.0,0.0,0.0,0.0,0.0,0.0,0.0,2.8279,2.9132,3.1155,3.5579,3.9697,4.2688,4.711,5.0326,5.1423,4.8109,4.5146,4.3187,3.8015,3.5506,3.651,3.9371,4.2836,4.6878,4.8234,4.9891,5.1975,5.2302,5.2402,5.2302,5.2955,5.3206,5.313,5.313,5.313,5.3105,5.2528,5.2101,5.1473,4.7807,4.5502,4.384,4.0703,3.9521,3.927,3.7262,3.696,3.7161,3.4751,0.0,0.0,0.0,0.0,0.0,0.0,0.0,0.0,0.0,0.0,0.0,0.0,0.0,0.0,0.0,0.0,0.0,0.0,0.0,0.0,0.0,0.0,0.0,0.0,4.5849,4.9464,5.1548,5.3105,5.5013,5.7625,5.9006,5.9423,5.863,5.897,5.8922,5.829,5.8911,5.9394,5.9573,5.8843,5.7921,5.684,5.6613,5.5852,5.446,5.4258,5.4052,5.3719,5.1844,5.0975,5.1082,4.9237,4.8377,4.8252,4.7361,4.6659,4.6003,4.5493,4.4701,0.0,0.0,0.0,0.0,0.0,4.2191,4.1702,0.0,0.0,0.0,0.0,0.0,0.0,0.0,2.8505,2.9484,3.1356,3.6684,4.0953,4.2637,4.7606,5.0469,4.959,4.6878,4.3668,3.9948,3.7287,3.6786,3.8768,4.2384,4.5648,4.841,5.0569,5.2126,5.3071,5.3071,5.3356,5.3808,5.3808,5.4084,5.4597,5.4597,5.4491,5.4263,5.3763,5.3433,5.3157,5.241,5.1381,4.9859,4.5874,4.5171,4.5869,4.2783,4.0575,3.8919,3.7587,0.0,0.0,0.0,0.0,0.0,0.0,0.0,0.0,0.0,0.0,0.0,0.0,0.0,0.0,0.0,0.0,0.0,0.0,0.0,0.0,0.0,0.0,0.0,0.0,5.0946,5.4415,5.8912,5.8773,5.8748,6.0097,6.0822,6.0462,5.8547,5.9225,5.8931,5.6892,5.7567,5.7865,5.7381,5.7185,0.0,0.0,0.0,5.5122,5.3408,5.2975,5.2779,5.2671,5.0773,5.0032,5.0384,4.91,4.877,4.9039,4.763,4.6516,4.578,4.5556,4.4461,4.2858,4.2837,4.2654,4.2293,4.1889,4.1734,4.1657,0.0,0.0,0.0,0.0,0.0,0.0,0.0,2.8197,2.9352,3.2386,3.6532,3.9823,4.1453,4.5392,4.8209,4.8894,4.5602,4.2411,3.9873,3.8793,3.9973,4.3865,4.6482,4.9113,5.1866,5.3256,5.4069,5.427,5.427,5.4321,5.4446,5.4446,5.4496,5.4597,5.4597,5.386,5.2562,5.2465,5.1631,5.0484,5.1633,5.1147,4.9615,4.8341,4.7179,4.607,4.4514,4.4815,4.5547,4.2688,4.1733,4.1229,3.8492,3.5956,0.0,0.0,0.0,0.0,0.0,0.0,0.0,0.0,0.0,0.0,0.0,0.0,0.0,0.0,0.0,0.0,0.0,0.0,0.0,5.1214,5.5003,5.7994,5.9616,6.004,6.0203,6.014,6.0947,6.0637,5.8281,5.8597,5.8722,5.8323,5.8463,5.8348,5.7865,5.644,5.5313,5.4631,5.3348,5.2355,5.1621,5.1538,5.1287,5.0931,0.0,0.0,5.0404,4.9827,4.9371,4.9017,4.7667,4.6761,4.6168,4.4703,4.3279,4.2034,4.203,4.1968,4.1889,4.1463,4.1327,4.1288,0.0,0.0,0.0,0.0,0.0,0.0,0.0,2.8097,2.9101,3.1884,3.5653,3.8366,3.917,4.2484,4.4292,4.3463,4.0601,3.8969,3.9296,4.0602,4.3313,4.7757,5.0067,5.2277,5.4476,5.4838,5.4694,5.4107,5.4107,5.379,5.3192,5.3192,5.3336,5.36,5.36,5.3124,5.2365,5.2365,5.1846,5.1155,5.2022,5.1696,5.0758,5.1439,5.1004,4.9891,4.9031,4.8761,4.841,4.62,4.4895,4.384,4.1658,3.922,3.6935,0.0,0.0,0.0,0.0,0.0,0.0,0.0,0.0,0.0,0.0,0.0,0.0,0.0,0.0,4.1756,4.4543,0.0,5.0651,5.4524,5.6646,5.8289,5.9527,5.9957,5.9977,5.946,5.9859,5.9327,5.7155,5.738,5.7175,5.6028,5.6134,5.6069,5.5634,5.4494,5.3783,5.3549,5.2392,5.1688,5.146,5.146,5.1336,5.1108,5.088,5.088,5.1087,4.9937,4.9438,4.9312,4.7532,4.6504,4.5909,4.4131,4.2759,4.1817,4.1798,4.166,4.1483,4.1288,4.1211,4.1211,0.0,0.0,0.0,0.0,0.0,0.0,0.0,0.0,2.89,3.111,3.4399,3.6557,3.6557,3.9245,4.0075,3.7588,3.651,3.7062,3.9698,4.3137,4.7029,5.1314,5.3183,5.4979,5.6784,5.5707,5.4829,5.4199,5.3857,5.3162,5.2228,5.2228,5.2456,5.2885,5.2885,5.2685,5.2405,5.2291,5.2068,5.1805,5.2035,5.1883,5.1699,5.3432,5.3874,5.3487,5.3042,5.1423,4.9314,4.851,4.6702,4.4614,4.3865,4.2183,4.0149,3.8341,3.716,0.0,0.0,0.0,0.0,0.0,0.0,0.0,0.0,3.7518,3.9458,4.125,4.3495,4.6204,4.9677,5.1367,5.3412,5.6909,5.7372,5.7763,5.8909,5.8977,5.8683,5.7963,5.8209,5.7671,5.5659,5.5908,5.5411,5.3608,5.3731,5.369,5.322,5.2826,5.2536,5.2371,5.1998,5.1791,5.1791,5.1791,5.1791,5.1791,5.1329,5.1305,5.1614,4.9893,4.924,4.942,4.7223,4.5914,4.5193,4.3719,4.2617,4.1914,4.1836,4.1601,4.1328,4.125,4.1211,4.1211,0.0,0.0,0.0,0.0,0.0,0.0,0.0,0.0,0.0,3.111,3.3068,3.4274,3.4274,3.5929,3.6507,3.518,3.8442,4.1327,4.3137,4.728,5.1423,5.539,5.5611,5.6769,5.9068,5.5851,5.4894,5.6421,5.4764,5.3899,5.3741,5.3741,5.3805,5.3833,5.3833,5.3015,5.1588,5.1254,5.0235,4.8944,5.005,5.0443,5.0535,5.1816,5.2537,5.2889,5.2899,5.1172,4.8944,4.9289,4.7606,4.5447,4.5824,4.4744,4.2911,4.0777,3.8366,3.623,3.5456,3.5029,3.5104,3.6408,3.7236,3.8743,0.0,4.2861,4.3506,4.762,4.7742,4.8259,5.2178,5.36,5.4985,5.7355,5.8163,5.8275,5.774,5.7198,5.6419,5.512,5.6484,5.6636,5.4247,5.4455,5.461,5.4379,5.4393,5.4042,5.322,5.3137,5.2723,5.1895,5.1833,5.1791,5.1791,5.1791,5.1791,5.1791,5.1322,5.1161,5.1116,4.9684,4.9013,4.8973,4.6729,4.5075,4.3891,4.3342,4.2793,4.2324,4.1953,4.1777,4.168,4.1348,4.1211,4.1211,0.0,0.0,0.0,0.0,0.0,0.0,0.0,0.0,0.0,0.0,3.1612,3.219,3.1587,3.2135,3.2151,3.1171,3.5874,4.009,4.2852,4.8575,5.3278,5.6396,5.6752,5.6981,5.7264,5.545,5.4522,5.4569,5.3798,5.2913,5.1873,5.1873,5.1873,5.1873,5.1873,5.1509,5.0822,5.0675,5.0182,4.9601,4.987,4.9977,4.9955,5.0099,4.9612,4.902,4.9747,4.8762,0.0,4.7183,4.5972,4.4574,4.554,4.3954,4.1405,3.9621,3.8263,3.714,3.6259,3.6576,3.7071,3.6801,3.9039,4.1885,4.4171,4.49,4.6201,5.0035,5.1006,5.195,5.4511,5.5131,5.5666,5.691,5.6622,5.6132,5.5791,5.5264,5.4583,5.3478,5.4297,5.4777,5.426,5.4373,5.4497,5.4497,5.4497,5.4331,5.3985,5.3468,5.3013,5.2619,5.2081,5.1656,5.1384,5.1384,5.1248,5.093,5.0747,5.0611,5.057,4.9232,4.8032,4.6995,4.5792,4.4699,4.3691,4.3516,4.3047,4.2362,4.2187,4.2012,4.1758,4.1367,4.1211,4.1211,0.0,0.0,0.0,0.0,0.0,0.0,0.0,0.0,0.0,0.0,3.0477,3.0578,2.9543,2.9663,2.9307,2.8131,3.3646,3.8538,4.1736,4.8378,5.347,5.6437,5.6587,5.6452,5.6122,5.4724,5.3788,5.343,5.2909,5.2013,5.0798,5.0798,5.0798,5.0798,5.0673,5.0756,5.0963,5.0446,5.0446,5.0736,4.9951,4.9537,4.9272,4.7885,4.616,4.467,4.6052,4.5174,4.3299,4.3169,4.2199,4.1326,4.283,4.1777,3.9685,3.8287,3.7592,3.7072,3.5944,3.7124,3.8522,3.7948,4.1084,4.4691,4.6033,4.7164,4.8945,5.2447,5.3455,5.4194,5.5826,5.5728,5.5589,5.5979,5.5278,5.4662,5.4662,5.4062,5.3276,5.2412,5.2267,5.2599,5.3463,5.4,5.4352,5.4476,5.4497,5.4435,5.4311,5.3716,5.3302,5.3178,5.2399,5.1737,5.1295,5.1158,5.0823,5.0291,5.0154,5.0108,5.0068,4.8692,4.7366,4.5996,4.5449,4.4766,4.4062,4.3945,4.3457,4.2773,4.2656,4.2422,4.209,4.1543,4.1308,4.1211,0.0,0.0,0.0,0.0,0.0,0.0,0.0,0.0,0.0,0.0,0.0,0.0,0.0,2.9287,2.9013,2.7017,3.3191,3.8164,4.0418,4.671,5.204,5.5791,5.472,5.5019,5.722,5.3725,5.2742,5.4543,5.2719,5.1795,5.175,5.175,5.175,5.1729,5.1294,5.1584,5.2309,5.0573,5.0593,5.1605,4.9847,4.8853,4.8107,4.4937,4.2364,4.0626,4.2341,4.0415,3.7091,3.7129,3.6045,3.5053,3.7169,3.8435,3.8903,3.7688,3.6473,3.5294,3.4032,3.5802,3.8564,4.0779,4.368,4.6747,4.9821,5.0769,5.2155,5.6026,5.4908,5.3772,5.5579,5.5175,5.455,5.455,5.4923,5.5165,5.5165,5.4027,5.2868,5.1936,5.0697,5.0262,5.1129,5.278,5.4,5.4455,5.4497,5.429,5.3835,5.3794,5.3587,5.3199,5.2672,5.2148,5.1699,5.1212,5.0779,5.0291,4.9833,4.9604,4.9564,4.824,4.7324,4.6792,4.6016,4.5391,4.4961,4.4551,4.4101,4.3633,4.3223,4.3087,4.297,4.209,4.1523,4.1211,0.0,0.0,0.0,0.0,0.0,0.0,0.0,0.0,0.0,0.0,0.0,0.0,0.0,0.0,0.0,0.0,3.1169,3.518,3.6792,4.331,4.7978,4.9966,5.1899,5.2756,5.2326,5.1671,5.1795,5.2761,5.2107,5.1646,5.1357,5.1646,5.1481,5.0901,5.1046,5.1108,5.1087,5.0466,5.0466,5.0715,4.8893,4.8107,4.7506,4.3736,4.0468,3.7701,0.0,3.4323,3.3249,3.3556,3.2708,3.1955,3.4178,3.4285,3.3697,3.4397,3.438,3.45,3.6042,3.9062,4.2053,4.3078,4.615,4.95,5.1719,5.2154,5.265,5.4829,5.3198,5.1432,5.1808,5.1324,5.1212,5.2122,5.3157,5.3965,5.4207,5.4172,5.3054,5.0301,5.0653,5.0632,4.9411,5.0963,5.2553,5.3918,5.4042,5.3962,5.3801,5.3487,5.3099,5.2627,5.2134,5.1631,5.119,5.0703,5.0225,4.9762,4.9327,4.8987,4.8646,4.7922,4.7344,4.6831,4.6035,4.5586,4.5391,4.4687,4.4316,4.4082,4.3359,4.3127,4.3048,4.2422,4.1953,4.1543,0.0,0.0,0.0,0.0,0.0,0.0,0.0,0.0,0.0,0.0,0.0,0.0,0.0,0.0,0.0,0.0,0.0,3.2128,3.3413,3.8537,4.2426,4.4376,4.6306,4.7056,4.6453,4.6639,4.7196,4.8148,4.8229,4.8498,4.8935,4.9556,4.9574,4.9181,4.9341,4.9632,4.9887,4.8887,4.864,4.8726,4.643,4.5105,4.4091,4.0172,3.7106,0.0,3.1091,2.9782,2.9698,2.9782,2.939,2.9147,3.0783,3.0921,3.0852,3.2581,3.3837,3.5373,3.8391,4.1791,4.4742,4.5972,4.8714,5.1507,5.2792,5.2921,5.2815,5.3147,5.1364,4.9411,4.8522,4.7838,4.7962,4.9825,5.088,5.2019,5.3566,5.3339,5.2247,5.0052,5.0259,5.0135,4.9019,4.9919,5.1338,5.3194,5.3467,5.354,5.3542,5.325,5.2904,5.257,5.2078,5.1621,5.113,5.0506,4.9917,4.9277,4.905,4.8757,4.8418,4.8008,4.7578,4.7129,4.6426,4.5957,4.5688,4.5078,4.4766,4.457,4.4004,4.3769,4.3691,4.3105,4.2715,4.2383,0.0,0.0,0.0,0.0,0.0,0.0,0.0,0.0,0.0,0.0,0.0,0.0,0.0,0.0,0.0,0.0,0.0,0.0,3.0246,3.2705,3.5644,3.9067,3.8424,3.8676,4.0136,3.926,3.9646,4.1462,4.1661,4.2751,4.4691,4.5541,4.6183,4.6576,4.6209,4.6968,4.8438,4.5778,4.5142,4.5605,4.2559,4.0241,3.8282,3.4714,3.2527,3.1015,2.8321,2.7061,2.656,2.6125,2.6333,2.6851,2.733,2.8694,3.051,3.2507,3.4999,3.7825,4.1042,4.3973,4.6741,4.9358,5.1294,5.2702,5.3095,5.3116,5.2661,5.117,4.9369,4.7527,4.5643,4.467,4.5043,4.7755,4.8439,4.9804,5.3339,5.1994,5.0818,5.115,4.968,4.8976,4.9783,4.9817,5.0547,5.2362,5.2877,5.3107,5.3121,5.3051,5.3033,5.2985,5.2462,5.2003,5.1586,5.0676,4.9773,4.8913,4.8913,4.8913,4.8894,4.8398,4.7988,4.7578,4.7129,4.6484,4.5742,4.5746,4.543,4.5016,4.4996,4.4977,4.4879,4.4062,4.373,4.3516,0.0,0.0,0.0,0.0,0.0,0.0,0.0,0.0,0.0,0.0,0.0,0.0,0.0,0.0,0.0,0.0,0.0,0.0,2.6355,2.8875,3.0983,3.2414,3.5137,3.6778,3.719,3.7895,3.8696,3.9508,3.956,3.9774,4.018,4.0699,4.0936,4.0909,4.1152,4.1409,4.1604,4.0571,4.0243,4.0232,3.8055,3.7056,3.6483,3.3886,3.2043,3.0663,2.8897,2.7783,2.7102,2.6975,2.7907,2.9233,2.9689,3.0843,3.2652,3.5872,3.8507,4.1239,4.508,4.8171,5.0649,5.2354,5.3359,5.3861,5.3302,5.2371,5.086,4.8085,4.5561,4.3093,4.0551,4.1276,4.3093,4.5457,4.8707,5.1729,5.398,5.442,5.3903,5.2329,5.1943,5.153,5.0772,5.095,5.1448,5.2209,5.2802,5.3181,5.3366,5.347,5.3155,5.2355,5.1845,5.1561,5.1463,5.0642,4.9773,4.8913,4.8913,4.8913,4.8894,4.8398,4.8144,4.8008,4.7201,4.6772,4.6562,4.5937,4.5605,4.5469,4.5156,4.4977,4.4918,4.4414,4.4004,4.3613,0.0,0.0,0.0,0.0,0.0,0.0,0.0,0.0,0.0,0.0,0.0,0.0,0.0,0.0,0.0,0.0,0.0,0.0,0.0,2.5817,2.7078,2.7821,2.9853,3.13,3.1998,3.2071,3.2914,3.4612,3.4285,3.4641,3.5625,3.6277,3.6473,3.6398,3.6922,3.731,3.7532,3.6635,3.618,0.0,0.0,3.3179,3.2761,3.1202,3.0237,2.9684,2.8872,2.8814,2.915,2.9544,3.0346,3.1422,3.2664,3.4249,3.6359,3.9847,4.2658,4.5393,4.91,5.1667,5.353,5.4482,5.4579,5.398,5.2122,5.0466,4.8085,4.3887,4.1358,3.9074,3.6287,3.7819,4.0317,4.2787,4.6865,5.0694,5.3551,5.4379,5.4393,5.3429,5.331,5.3019,5.2264,5.2175,5.2423,5.3057,5.2879,5.276,5.2915,5.2964,5.2629,5.1797,5.1562,5.1348,5.1152,5.0508,4.9824,4.9141,4.8991,4.8913,4.8894,4.8659,4.8379,4.8183,0.0,4.7383,4.7168,4.6504,4.623,4.6191,4.5742,4.5586,4.5527,4.5117,4.4668,4.4199,0.0,0.0,0.0,0.0,0.0,0.0,0.0,0.0,0.0,0.0,0.0,0.0,0.0,0.0,0.0,0.0,0.0,0.0,0.0,0.0,2.4131,2.4934,2.4636,2.5122,2.6522,2.5279,2.5994,2.8731,2.8169,2.9,3.114,3.1955,3.2417,3.2497,3.2995,3.3729,3.4523,3.3196,3.2471,3.2085,3.0567,2.9489,2.8717,0.0,0.0,2.8479,2.8462,2.9539,3.1263,3.2739,3.3401,3.4022,3.637,3.8654,4.1136,4.4443,4.7113,4.9701,5.2868,5.4606,5.5621,5.5973,5.5248,5.3592,5.0365,4.7879,4.4756,3.9461,3.7227,3.548,3.2905,3.4838,3.7757,4.0675,4.4567,4.8728,5.3033,5.3483,5.375,5.4824,5.4255,5.3805,5.4024,5.3384,5.333,5.4214,5.3101,5.2372,5.2432,5.2385,5.2129,5.1523,5.1416,5.123,5.0801,5.0449,5.0039,4.9609,4.916,4.8991,4.8991,4.8933,4.8698,4.8281,4.8223,4.8008,4.7637,4.7187,4.6948,4.685,4.6523,4.6348,4.625,4.584,4.543,4.498,0.0,0.0,0.0,0.0,0.0,0.0,0.0,0.0,0.0,0.0,0.0,0.0,0.0,0.0,0.0,0.0,0.0,0.0,0.0,0.0,0.0,2.4256,2.4575,2.494,2.5393,2.565,2.5989,2.6315,2.6187,2.6473,2.7103,2.7262,2.7672,2.8258,2.8578,2.8779,2.882,2.8663,2.8411,2.8122,2.8075,2.8074,2.8099,2.8376,0.0,0.0,2.7659,2.8197,2.9808,3.4507,3.7062,3.8799,4.1483,4.3846,4.641,5.0011,5.1667,5.2971,5.5766,5.6966,5.738,5.707,5.5427,5.2987,4.9431,4.5497,4.1276,3.6876,3.4601,3.2926,3.134,3.4196,3.8067,4.1938,4.5705,4.997,5.5296,5.4972,5.5086,5.7551,5.5597,5.4505,5.5749,5.4322,5.3522,5.4023,5.3522,5.3354,5.3656,5.3773,5.3291,5.2041,5.1621,5.123,5.0801,5.0723,5.0488,5.0058,4.9629,4.9414,4.9394,4.907,4.8855,4.8776,4.8359,0.0,4.8066,4.7637,4.7246,4.687,4.6811,4.6601,4.625,4.584,4.5625,4.5449,0.0,0.0,0.0,0.0,0.0,0.0,0.0,0.0,0.0,0.0,3.3146,3.204,0.0,0.0,0.0,0.0,0.0,0.0,0.0,0.0,0.0,0.0,2.4272,2.4663,2.5123,2.5341,2.5754,2.6423,0.0,2.594,2.6304,2.6304,2.6356,2.6496,2.713,2.7288,2.7165,2.7575,2.7585,2.7382,2.7753,2.7979,2.8119,0.0,0.0,0.0,2.7945,2.8959,3.1126,3.3773,3.7765,4.2191,4.5436,4.8189,5.0756,5.3468,5.4751,5.5724,5.7753,5.8477,5.8353,5.7173,5.4461,5.0877,4.6533,4.2,3.7488,3.3141,3.1519,3.0568,2.9456,3.2809,3.6618,3.9309,4.2994,4.7444,5.295,5.3082,5.3794,5.7016,5.5898,5.5217,5.6111,5.4927,5.4372,5.5009,5.4451,5.3945,5.3691,5.3317,5.2817,5.209,5.166,5.128,5.1133,5.0918,5.0703,5.0488,4.9844,4.9484,4.9512,4.9062,4.8913,4.8894,4.8633,0.0,4.8516,4.8086,4.7773,4.7558,4.7065,4.6953,4.6894,4.625,4.5996,4.5918,0.0,0.0,0.0,0.0,0.0,0.0,0.0,3.1406,3.2566,3.5807,3.6331,3.5248,3.2208,3.1004,0.0,0.0,0.0,0.0,0.0,0.0,0.0,0.0,0.0,0.0,2.545,0.0,0.0,2.6975,2.6291,0.0,0.0,0.0,0.0,0.0,2.679,2.7049,2.7012,2.7625,2.7821,0.0,0.0,2.845,2.8517,0.0,0.0,0.0,0.0,2.9658,3.2078,3.2863,3.7239,4.2932,4.6596,5.0322,5.3633,5.5248,5.6511,5.767,5.9078,5.945,5.8974,5.7099,5.3385,4.8935,4.3801,3.8937,3.432,3.0036,2.9083,2.8856,2.8293,3.1429,3.4744,3.6763,4.0054,4.4342,5.0104,5.0907,5.2276,5.6021,5.5888,5.5686,5.6174,5.537,5.5097,5.5899,5.5181,5.4336,5.3555,5.2676,5.2226,5.2226,5.1699,5.1377,5.1377,5.1113,5.0937,5.0937,5.0078,4.9668,4.9648,4.9148,4.8913,4.8913,4.8913,4.8913,0.0,4.8476,4.8281,4.8144,4.7461,4.7363,4.75,4.6816,4.6582,4.6504,0.0,0.0,0.0,0.0,0.0,0.0,0.0,3.1406,3.314,3.7964,3.7311,3.6058,3.519,3.3457,0.0,0.0,0.0,0.0,0.0,0.0,0.0,0.0,0.0,0.0,0.0,0.0,0.0,2.6557,2.6476,0.0,0.0,0.0,0.0,0.0,0.0,2.7021,2.7218,2.7697,0.0,0.0,0.0,0.0,0.0,0.0,0.0,0.0,0.0,2.8624,3.0118,3.348,3.6153,3.8688,4.2331,4.8189,5.3918,5.4958,5.649,5.8146,5.9554,5.9926,5.9388,5.7182,5.3204,4.8439,4.2969,3.7541,3.2685,2.9352,2.8313,2.8251,2.9042,3.0553,3.3107,3.7363,3.9392,4.2782,4.9457,5.0626,5.2334,5.6433,5.5983,5.5672,5.6629,5.5822,5.5254,5.5365,5.4974,5.4473,5.3984,5.3125,5.2656,5.2656,5.1855,5.1377,5.1377,5.1338,5.1319,5.1319,5.0527,5.0117,5.0098,4.9285,4.8913,4.8913,4.8913,4.8913,0.0,4.8855,4.8555,4.8203,4.8125,4.7871,4.7578,4.75,4.7461,4.7344,0.0,0.0,0.0,0.0,0.0,0.0,0.0,3.1336,3.2968,3.8642,3.8793,3.819,3.7613,3.6248,3.3527,0.0,0.0,0.0,0.0,0.0,0.0,0.0,0.0,0.0,0.0,0.0,2.6924,2.6976,2.6976,0.0,0.0,0.0,0.0,0.0,0.0,2.7807,2.7693,2.8714,0.0,0.0,0.0,0.0,0.0,0.0,0.0,0.0,0.0,0.0,2.9435,3.0346,3.2789,3.5531,3.5852,4.08,4.7279,5.1501,5.4027,5.6027,5.8829,5.9781,5.9429,5.7182,5.2541,4.7341,4.2658,3.668,3.1457,2.9104,2.8028,2.78,2.8711,2.9559,3.1257,3.4765,3.5521,3.7897,4.4191,4.5332,4.7586,5.3017,5.3738,5.4498,5.6503,5.6043,5.5586,5.5332,5.4922,5.4492,5.4062,5.3183,5.2598,5.2344,5.1738,5.1377,5.1377,5.1377,5.1377,5.1377,5.084,5.043,5.0156,4.9531,4.9121,4.8913,4.8913,4.8913,0.0,4.8913,4.8796,4.8574,4.8301,4.8262,4.8327,4.7773,4.7734,4.7871,0.0,0.0,0.0,0.0,0.0,0.0,3.1411,3.1612,3.3244,3.8517,3.9195,3.9044,3.8693,3.706,3.4325,3.0216,0.0,0.0,0.0,0.0,0.0,0.0,0.0,0.0,0.0,0.0,2.7095,2.7309,2.741,2.741,0.0,0.0,2.741,2.733,0.0,0.0,0.0,0.0,0.0,0.0,0.0,0.0,0.0,0.0,0.0,0.0,0.0,0.0,0.0,0.0,0.0,3.2672,3.1388,3.4682,4.0261,4.6947,5.086,5.3731,5.7152,5.8705,5.8829,5.6531,5.1688,4.6347,4.1959,3.5945,3.0727,2.8789,2.7903,2.7721,2.8462,2.9104,3.0263,3.2602,3.3182,3.519,4.0601,4.2021,4.4482,4.9879,5.1133,5.2561,5.5188,5.5717,5.5709,5.5332,5.4922,5.4433,5.3867,5.3242,5.2715,5.2285,5.1855,5.1562,5.1377,5.1377,5.1319,5.125,5.082,5.0391,4.998,4.9531,4.916,4.8913,4.8913,4.8913,0.0,4.8913,4.8913,4.8874,4.8516,4.864,4.8835,4.8229,4.8144,4.834,0.0,0.0,0.0,0.0,0.0,0.0,0.0,3.2361,3.4271,3.7588,3.8015,3.8015,3.8015,3.51,3.3115,3.3065,0.0,0.0,0.0,0.0,0.0,0.0,0.0,0.0,0.0,0.0,2.7309,2.7309,2.7696,2.7696,2.7309,2.7717,2.7676,2.7309,0.0,0.0,0.0,0.0,0.0,0.0,0.0,0.0,0.0,0.0,0.0,0.0,0.0,0.0,0.0,0.0,0.0,0.0,0.0,3.1298,3.4228,4.1545,4.7217,5.1729,5.4482,5.6552,5.7401,5.5076,5.0733,4.5686,4.0661,3.5263,3.0644,2.8376,2.79,2.8045,2.85,2.9373,3.045,3.1809,3.3555,3.617,4.0243,4.2345,4.4663,4.7769,4.8544,4.9855,5.2482,5.4659,5.5709,5.5332,5.4922,5.4297,5.3468,5.341,5.3195,5.2715,5.2285,5.1875,5.1397,5.1377,5.123,5.0801,5.0391,4.9961,4.9465,4.9062,4.8913,4.8913,4.8913,4.8913,0.0,4.8913,4.8913,4.8913,4.8894,4.8894,4.8913,4.8894,4.8894,4.8835,0.0,0.0,0.0,0.0,0.0,0.0,0.0,2.9986,3.1436,3.4751,3.4876,3.5225,3.6733,3.4622,3.309,3.309,0.0,0.0,0.0,0.0,0.0,0.0,0.0,0.0,0.0,0.0,0.0,0.0,0.0,2.8691,2.9297,2.8977,2.8462,2.7738,2.838,2.8628,0.0,0.0,0.0,0.0,0.0,0.0,2.9001,0.0,0.0,0.0,0.0,0.0,0.0,0.0,0.0,0.0,0.0,0.0,0.0,3.4994,4.0578,4.5975,4.8107,5.0239,5.1253,4.8666,4.5167,4.1529,3.8365,3.4155,3.0429,2.8731,2.7903,2.7721,2.8462,2.8856,3.0196,3.3732,3.4808,3.6306,3.948,4.2552,4.523,4.7344,5.1474,5.4463,5.5306,5.5677,5.5709,5.5332,5.4922,5.4433,5.3848,5.3535,5.3077,5.2305,5.2148,5.1875,5.1397,5.1377,5.1319,5.123,5.0801,5.0391,4.9961,4.9512,4.9141,4.8913,4.8913,4.8913,0.0,4.8913,4.8913,4.8913,4.8913,4.8913,4.8913,4.8913,4.8913,4.8894,0.0,0.0,0.0,0.0,0.0,0.0,0.0,2.9132,3.0362,3.2667,3.2663,3.3316,3.5527,3.3416,3.2185,3.3014,0.0,0.0,0.0,0.0,0.0,0.0,0.0,0.0,0.0,0.0,0.0,0.0,0.0,0.0,0.0,0.0,2.9534,2.8189,2.8794,2.9103,0.0,0.0,0.0,0.0,0.0,0.0,2.8938,0.0,0.0,0.0,0.0,0.0,0.0,0.0,0.0,0.0,0.0,0.0,0.0,0.0,3.5056,3.9606,4.3387,4.5973,4.7113,4.5209,4.2456,3.9544,3.7115,3.3637,3.0512,2.8938,2.8173,2.7969,2.8504,2.8897,3.018,3.3368,3.4465,3.581,3.839,4.1857,4.5068,4.7606,5.2216,5.5117,5.5117,5.5469,5.5586,5.5332,5.4765,5.4316,5.4043,5.3613,5.3097,5.2344,5.2168,5.1875,5.1397,5.1377,5.1269,5.0957,5.0683,5.0254,4.9715,4.9394,4.9121,4.8913,4.8913,0.0,0.0,4.8913,4.8913,4.8913,4.8913,4.8913,4.8913,4.8913,4.8913,4.8913,0.0,0.0,0.0,0.0,0.0,0.0,0.0,0.0,0.0,0.0,3.1306,3.2064,3.4126,3.1637,3.0628,0.0,0.0,0.0,0.0,0.0,0.0,0.0,0.0,0.0,0.0,0.0,0.0,3.129,3.1087,3.1625,3.2804,0.0,0.0,2.8686,2.8727,2.9264,0.0,0.0,0.0,0.0,0.0,0.0,0.0,0.0,0.0,0.0,0.0,0.0,0.0,0.0,0.0,0.0,0.0,0.0,0.0,0.0,0.0,0.0,0.0,4.2866,4.4029,4.347,4.1462,3.8861,3.6214,3.3348,0.0,2.8913,2.8541,2.8582,2.8706,2.9415,3.0346,3.1595,3.3211,3.5088,3.7378,4.0886,4.4704,4.876,5.1426,5.2955,5.291,5.4394,5.5351,5.5351,5.4551,5.3992,5.3984,5.3555,5.3155,5.2676,5.2266,5.1836,5.1397,5.1377,5.1035,5.0215,5.0195,4.9773,4.8952,4.8913,4.8913,0.0,4.8913,0.0,0.0,4.8913,4.8913,4.8913,4.8913,4.8913,4.8913,4.8913,4.8913,4.8913,0.0,0.0,0.0,0.0,0.0,0.0,0.0,0.0,0.0,0.0,0.0,3.0357,3.0884,3.0256,0.0,0.0,0.0,0.0,0.0,0.0,0.0,0.0,0.0,0.0,0.0,0.0,0.0,3.2274,3.3336,3.4144,3.4736,3.4576,0.0,0.0,0.0,0.0,0.0,0.0,0.0,0.0,0.0,0.0,0.0,0.0,0.0,0.0,2.741,2.7576,0.0,0.0,0.0,0.0,0.0,0.0,0.0,0.0,2.941,3.0133,3.3505,0.0,3.578,3.4258,3.3679,3.3016,0.0,3.0325,2.9456,2.8293,2.8065,2.85,2.9932,2.9808,3.0801,3.4859,3.5873,3.6985,3.9289,4.41,4.8839,5.2835,5.4725,5.5534,5.5195,5.5494,5.5728,5.5728,5.5,5.4238,5.3555,5.3105,5.2676,5.2246,5.1816,5.1494,5.1377,5.1377,5.1172,5.0644,5.0332,4.9883,4.9355,4.907,4.8913,4.8913,0.0,0.0,4.8913,4.8913,4.8913,4.8913,4.8913,4.8913,4.8913,4.8913,4.8913,4.8913,0.0,0.0,0.0,0.0,0.0,0.0,0.0,0.0,0.0,0.0,0.0,0.0,0.0,0.0,0.0,0.0,0.0,0.0,0.0,0.0,0.0,0.0,0.0,0.0,0.0,0.0,0.0,0.0,0.0,3.5697,0.0,0.0,0.0,0.0,0.0,0.0,0.0,0.0,0.0,0.0,2.9849,0.0,0.0,0.0,0.0,0.0,2.7431,2.7576,0.0,2.838,2.8835,2.9208,0.0,0.0,0.0,0.0,2.8359,2.8359,2.9989,3.1726,3.2954,3.2403,3.2126,3.1795,3.1023,3.0056,2.9104,2.8355,2.821,2.8582,2.9829,2.9678,3.0764,3.49,3.5796,3.7692,4.2593,4.6491,5.0354,5.4504,5.5586,5.6055,5.6211,5.5879,5.5592,5.5592,5.4668,5.3918,5.3429,5.2773,5.2324,5.209,5.166,5.1377,5.1377,5.1377,5.1133,5.0508,5.0293,4.9844,4.9219,4.9011,4.8913,4.8913,0.0,0.0,4.8913,4.8913,4.8913,4.8913,4.8913,4.8913,4.8913,4.8913,4.8913,4.8913,0.0,0.0,0.0,0.0,0.0,0.0,0.0,0.0,0.0,0.0,0.0,0.0,0.0,0.0,0.0,0.0,0.0,0.0,0.0,0.0,0.0,0.0,0.0,0.0,0.0,0.0,0.0,0.0,0.0,0.0,0.0,0.0,3.589,0.0,0.0,0.0,0.0,0.0,0.0,0.0,2.9928,0.0,0.0,0.0,0.0,0.0,0.0,0.0,0.0,2.9208,2.9704,2.9932,3.0124,0.0,0.0,0.0,0.0,0.0,2.8876,3.0981,3.2913,3.3294,3.2934,3.2429,3.214,3.0657,2.9166,2.8711,2.8706,2.8996,2.9627,2.9999,3.1195,3.4251,3.5701,3.9026,4.6461,4.8568,5.0888,5.4844,5.543,5.5742,5.6328,5.5723,5.5312,5.5312,5.4101,5.339,5.3312,5.2519,5.2051,5.1992,5.1621,5.1377,5.1377,5.1319,5.0957,5.0176,5.0117,4.9648,4.8913,4.8913,4.8913,4.8913,0.0,0.0,4.8913,4.8913,4.8913,4.8913,4.8913,4.8913,4.8913,4.8913,4.8913,4.8913,0.0,0.0,0.0,0.0,0.0,0.0,0.0,0.0,0.0,0.0,0.0,0.0,0.0,0.0,0.0,0.0,0.0,0.0,0.0,0.0,0.0,0.0,0.0,3.1645,0.0,0.0,0.0,0.0,0.0,0.0,4.1004,4.2413,4.0246,3.5085,0.0,0.0,0.0,0.0,0.0,0.0,2.9823,0.0,0.0,0.0,0.0,0.0,0.0,0.0,0.0,2.7762,2.8467,2.9228,2.8156,0.0,0.0,0.0,0.0,0.0,3.1188,3.2685,3.2776,3.0574,3.0822,3.1174,2.9601,2.927,2.9166,2.8711,2.9228,3.0205,3.1508,3.2642,3.4345,3.7164,4.0541,4.4638,4.9947,5.1245,5.2519,5.5019,5.5937,5.6152,5.5566,5.539,5.5312,5.5312,5.4101,5.3253,5.2832,5.2344,5.1914,5.1543,5.1416,5.1377,5.1377,5.1074,5.0664,5.0223,4.9805,4.9355,4.8913,4.8913,4.8913,4.8913,0.0,4.8913,4.8913,4.8913,4.8913,4.8913,4.8913,4.8913,4.8913,4.8913,4.8913,4.8913,0.0,0.0,0.0,0.0,0.0,0.0,0.0,0.0,0.0,0.0,0.0,0.0,0.0,0.0,0.0,0.0,0.0,0.0,0.0,0.0,0.0,0.0,3.2466,3.2899,3.3202,0.0,0.0,0.0,0.0,4.3405,4.4738,4.3149,3.9797,3.5001,0.0,0.0,3.0423,0.0,0.0,0.0,0.0,0.0,0.0,0.0,0.0,0.0,0.0,0.0,0.0,0.0,2.8731,2.9518,2.8649,0.0,0.0,0.0,0.0,0.0,2.9601,3.1008,3.1795,3.1278,3.2375,3.305,3.1045,3.0189,2.9855,3.0148,3.0559,3.1373,3.2965,3.4584,3.6957,4.0948,4.4673,4.8077,5.0999,5.1973,5.3144,5.5078,5.5664,5.582,5.5664,5.5449,5.5117,5.4648,5.3613,5.2812,5.2402,5.1973,5.1543,5.1113,5.1094,5.0976,5.0762,5.0332,5.0137,5.0176,4.9726,4.9297,4.8913,4.8913,4.8913,4.8913,0.0,4.8913,4.8913,4.8913,4.8913,4.8913,4.8913,4.8913,4.8913,4.8913,4.8913,4.8913,0.0,0.0,0.0,0.0,0.0,0.0,0.0,0.0,0.0,0.0,0.0,0.0,0.0,0.0,0.0,0.0,0.0,0.0,0.0,0.0,3.1486,3.2663,3.3721,3.46,3.5253,0.0,3.9195,4.208,4.389,4.5974,4.8203,4.3865,3.9733,0.0,0.0,0.0,3.0509,3.0171,2.9846,0.0,0.0,0.0,0.0,0.0,0.0,0.0,0.0,0.0,0.0,0.0,0.0,0.0,0.0,0.0,0.0,2.8541,2.7924,2.7845,2.8897,3.016,3.1485,3.2871,3.398,3.457,3.3701,3.2256,3.1477,3.2709,3.2895,3.3303,3.4755,3.7139,4.0324,4.4712,4.8249,5.0846,5.2139,5.2988,5.4004,5.543,5.5508,5.5547,5.5762,5.541,5.4805,5.3945,5.3144,5.2519,5.2109,5.1582,5.1133,5.082,5.0703,5.0508,5.0176,4.9746,4.9687,5.0019,4.959,4.9199,4.8913,4.8913,4.8913,4.8913,4.8913,4.8913,4.8913,4.8913,4.8913,4.8913,4.8913,4.8913,4.8913,4.8913,4.8913,4.8913,0.0,0.0,0.0,0.0,0.0,0.0,0.0,0.0,0.0,0.0,0.0,0.0,0.0,0.0,0.0,0.0,0.0,0.0,0.0,0.0,3.1913,3.1557,3.4,3.661,3.922,3.9446,4.1103,4.4364,4.6552,4.8259,4.9414,4.6516,4.3072,3.9189,3.6014,3.3477,3.1405,3.0049,2.9725,3.0102,0.0,0.0,0.0,0.0,0.0,0.0,0.0,0.0,0.0,0.0,0.0,0.0,0.0,0.0,2.9332,2.9228,2.8876,2.9166,3.2196,3.2789,3.2884,3.4309,3.3762,3.3649,3.6462,3.5405,3.4421,3.6628,3.6789,3.6717,3.7346,4.1286,4.5345,4.8041,5.1113,5.3547,5.4837,5.5358,5.5898,5.6426,5.6133,5.5742,5.539,5.498,5.4355,5.3527,5.2969,5.2519,5.2109,5.1289,5.084,5.0801,5.043,5.0215,5.0176,4.9746,4.9504,4.957,4.9121,4.8933,4.8913,4.8913,4.8913,4.8913,4.8913,4.8913,4.8913,4.8913,4.8913,4.8913,4.8913,4.8913,4.8913,4.8913,4.8913,4.8913,0.0,0.0,0.0,0.0,0.0,0.0,0.0,0.0,0.0,0.0,0.0,0.0,0.0,0.0,0.0,0.0,0.0,0.0,0.0,0.0,3.2441,3.2918,3.4929,3.6861,3.8617,4.1706,4.492,4.8203,4.9414,4.9515,4.846,4.464,0.0,0.0,3.4969,3.3355,3.2541,3.095,3.0996,3.1945,2.9841,0.0,0.0,0.0,0.0,0.0,0.0,0.0,0.0,0.0,2.8214,2.8727,2.85,2.9228,3.0056,2.9477,2.898,2.8938,3.0429,3.1774,3.3029,3.4454,3.5469,3.6306,3.702,3.7614,3.8575,4.0647,4.1117,4.1387,4.2072,4.4175,4.6836,4.9888,5.2285,5.4345,5.5912,5.623,5.6308,5.6191,5.6035,5.5664,5.498,5.4531,5.3906,5.3027,5.2305,5.1738,5.1308,5.0742,5.0293,5.0019,4.9863,4.9648,4.9402,4.9246,4.8965,4.8711,4.8808,4.8913,4.8913,4.8913,4.8913,4.8913,4.8913,4.8913,4.8913,4.8913,4.8913,4.8913,4.8913,4.8913,4.8913,4.8913,4.8913,4.8913,0.0,0.0,0.0,0.0,0.0,0.0,0.0,0.0,0.0,0.0,0.0,0.0,0.0,0.0,0.0,0.0,0.0,0.0,0.0,3.1888,3.2742,3.3345,3.513,3.6861,3.8492,4.3288,4.6954,4.9357,5.067,4.9866,4.7054,0.0,0.0,0.0,3.5089,3.4078,3.4438,3.2009,3.1544,3.2183,2.9859,2.8732,0.0,0.0,0.0,0.0,0.0,0.0,0.0,0.0,2.8135,2.8669,2.8773,2.9559,3.0408,3.0056,2.9725,2.9559,2.987,3.1112,3.2664,3.4205,3.6298,3.8261,3.9302,4.0596,4.2244,4.4558,4.4765,4.4723,4.5239,4.6313,4.8046,5.0901,5.3081,5.4883,5.6191,5.6387,5.6211,5.5728,5.5625,5.5254,5.4551,5.4082,5.3398,5.2383,5.1758,5.1191,5.0644,5.0078,4.9629,4.9336,4.9062,4.8828,4.8698,4.8561,4.8379,4.8203,4.8379,4.8503,4.8503,4.8776,4.8835,4.8718,4.8855,4.8913,4.8913,4.8913,4.8913,4.8913,4.8913,4.8913,4.8913,4.8913,4.8913,4.8913,0.0,0.0,0.0,0.0,0.0,0.0,0.0,0.0,0.0,0.0,0.0,0.0,0.0,0.0,0.0,0.0,0.0,0.0,0.0,3.2462,3.2839,3.2219,3.4304,3.6811,3.9572,4.3966,4.6522,4.7124,4.9891,4.9264,4.5397,4.3215,0.0,0.0,3.7104,3.6094,3.7113,3.3106,3.1043,3.0392,2.9665,2.882,0.0,0.0,0.0,0.0,0.0,0.0,0.0,0.0,2.8007,2.7724,2.9979,3.0367,3.0201,3.1139,3.1408,3.1408,3.1408,3.1408,3.1864,3.3667,3.5832,3.8854,4.3884,4.4619,4.5143,4.8382,4.7554,4.6281,4.6336,4.7706,4.9392,5.1115,5.3572,5.5449,5.5826,5.5885,5.5781,5.5351,5.4941,5.4512,5.4011,5.3613,5.2812,5.1475,5.1377,5.1055,5.0215,4.9382,4.8894,4.8894,4.8073,4.7773,4.8203,4.7793,4.7793,4.8183,4.7773,4.7578,4.7617,4.8503,4.8659,4.8223,4.8718,4.8894,4.8913,4.8913,4.8913,4.8913,4.8913,4.8913,4.8913,4.8913,4.8913,4.8848,0.0,0.0,0.0,0.0,0.0,0.0,0.0,0.0,0.0,0.0,0.0,0.0,0.0,0.0,0.0,0.0,0.0,0.0,0.0,3.2688,3.3014,3.2839,3.4176,3.5155,3.5604,3.922,4.3639,4.8862,4.8504,4.6577,0.0,0.0,0.0,3.7766,0.0,0.0,3.59,3.3324,3.314,3.4318,3.0748,2.9836,0.0,0.0,0.0,0.0,0.0,0.0,0.0,0.0,0.0,0.0,2.9021,3.0677,3.2216,3.1201,3.1567,3.2188,3.1574,3.2092,3.3335,3.5459,3.8667,4.2262,4.6004,4.6987,4.8108,5.1537,5.0776,4.9378,4.9037,4.9643,5.0582,5.172,5.3583,5.5117,5.5787,5.5885,5.5664,5.4961,5.4492,5.4043,5.3594,5.2617,5.1855,5.1416,5.0558,4.9844,4.9324,4.8711,4.8262,4.7969,4.7715,4.7637,4.7773,4.7637,4.748,4.7305,4.75,4.7578,4.7623,4.7897,4.8047,4.8223,4.834,4.8574,4.8913,4.8913,4.8913,4.8913,4.8913,4.8913,4.8913,4.8913,4.7995,4.67,0.0,0.0,0.0,0.0,0.0,0.0,0.0,0.0,0.0,0.0,2.9804,2.9804,0.0,0.0,0.0,0.0,0.0,0.0,0.0,0.0,3.319,3.3416,3.4048,3.4851,3.5855,3.8492,4.1656,4.5347,0.0,0.0,0.0,0.0,4.0237,3.9636,0.0,4.0185,3.8943,3.6426,3.5806,3.6137,3.2339,3.156,3.2458,0.0,0.0,0.0,0.0,0.0,0.0,0.0,0.0,0.0,2.8541,3.018,3.1885,3.0973,3.1526,3.2346,3.2023,3.3016,3.4817,3.7488,4.0642,4.414,4.8009,4.9814,5.1498,5.4349,5.3038,5.144,5.1697,5.1516,5.1658,5.2699,5.4051,5.498,5.5104,5.5124,5.4863,5.4004,5.3672,5.3262,5.2656,5.1894,5.124,5.0957,4.9902,4.9141,4.8913,4.8125,4.7578,4.7324,4.7168,4.7148,4.7324,4.7148,4.7031,4.6889,4.7031,4.707,4.709,4.7422,4.7617,4.7715,4.7891,4.8105,4.8294,4.7542,4.768,4.8222,4.6819,4.6736,4.733,4.6691,4.5632,4.4595,0.0,0.0,0.0,0.0,0.0,0.0,0.0,0.0,0.0,0.0,2.9804,2.9804,0.0,0.0,0.0,0.0,0.0,0.0,0.0,0.0,3.3341,3.3872,3.4048,3.5554,3.8592,4.0048,4.0048,3.8592,0.0,0.0,0.0,0.0,4.2194,4.4382,0.0,4.4055,4.3925,4.0648,3.8217,3.6369,3.3937,3.341,3.3866,3.1566,0.0,0.0,0.0,0.0,0.0,0.0,0.0,0.0,2.8665,2.9518,3.0367,3.0719,3.1485,3.2305,3.2801,3.4166,3.6308,3.9765,4.2461,4.5514,5.0232,5.2818,5.471,5.6399,5.4394,5.2768,5.3955,5.3212,5.2729,5.384,5.4707,5.4961,5.4089,5.3953,5.3652,5.2812,5.2637,5.2285,5.1455,5.128,5.0918,5.0117,4.9324,4.8815,4.8737,4.7558,4.687,4.6831,4.6504,4.6484,4.6831,4.6484,4.6504,4.6831,4.6484,4.6308,4.6328,4.7109,4.7266,4.6909,4.7383,4.7578,4.7443,4.5713,4.5985,4.7257,4.3863,4.3632,4.5009,4.33,4.2581,4.2437,0.0,0.0,0.0,0.0,0.0,0.0,0.0,0.0,0.0,0.0,0.0,0.0,0.0,0.0,0.0,0.0,0.0,0.0,0.0,0.0,3.3341,3.3872,3.515,3.618,3.6909,3.6811,3.6561,0.0,0.0,3.9019,3.8266,4.1579,4.2943,4.274,0.0,4.4258,4.0481,3.7704,3.6506,3.6159,3.3038,3.242,3.3231,3.1386,3.0193,0.0,0.0,0.0,0.0,0.0,0.0,0.0,3.0408,3.1678,3.252,3.1891,3.2644,3.3803,3.4631,3.5366,3.726,4.2621,4.7187,5.103,5.3678,5.4664,5.4997,5.4739,5.4651,5.4509,5.4098,5.4353,5.4478,5.4082,5.4473,5.4629,5.405,5.373,5.3301,5.2773,5.2109,5.1592,5.1397,5.0479,4.9726,4.9226,4.8652,4.8047,4.7383,4.709,4.6777,4.6445,4.6348,4.6348,4.6445,4.6348,4.6348,0.0,4.6348,4.6308,4.6308,4.6484,4.6699,4.6909,4.7383,4.7578,4.7578,4.7154,4.7199,4.7392,4.5363,4.4815,4.5009,4.33,4.1718,4.0336,0.0,0.0,0.0,0.0,0.0,0.0,0.0,0.0,0.0,0.0,0.0,0.0,0.0,0.0,0.0,0.0,0.0,0.0,0.0,0.0,0.0,0.0,3.5904,3.6406,3.5604,3.5531,0.0,0.0,3.5931,3.7185,3.8492,4.0797,4.281,4.453,0.0,4.4311,4.0769,3.9388,3.8058,3.6651,3.4715,3.4432,3.4937,3.2818,3.1339,3.0321,2.9807,0.0,0.0,0.0,0.0,0.0,0.0,0.0,3.2361,3.1857,3.2685,3.406,3.5376,3.7198,4.0164,4.6064,5.0245,5.3073,5.3924,5.4594,5.4837,5.3984,5.4821,5.5599,5.5415,5.5167,5.486,5.4101,5.4043,5.3828,5.3183,5.2715,5.2285,5.1855,5.123,5.0664,5.0234,4.959,4.9023,4.8574,4.7949,4.75,4.7246,4.6855,4.6523,4.6308,4.6308,4.6308,4.6308,4.6308,4.6308,4.6308,4.6308,4.6308,4.6308,4.6308,4.6426,4.6641,4.6875,4.6973,4.6928,4.5955,4.6133,4.6725,4.4179,4.3175,4.3015,4.1504,3.966,3.801,0.0,0.0,0.0,0.0,0.0,0.0,0.0,0.0,0.0,0.0,0.0,0.0,0.0,0.0,0.0,0.0,0.0,0.0,0.0,0.0,0.0,0.0,3.6132,3.6307,3.5004,0.0,0.0,0.0,3.4123,3.5931,3.9622,4.0202,4.2905,4.7188,4.5959,4.4332,4.2403,4.1243,3.9338,3.703,3.6241,3.614,3.6297,0.0,0.0,3.1504,3.1004,3.0553,3.0243,3.0325,0.0,0.0,0.0,0.0,3.1609,3.1609,3.2395,3.3679,3.5604,3.9179,4.3692,4.9028,5.196,5.3513,5.3337,5.4055,5.4598,5.3877,5.4866,5.5911,5.6206,5.535,5.4474,5.3879,5.3359,5.2773,5.207,5.1543,5.1094,5.0742,5.0254,4.9715,4.8972,4.8776,4.8503,4.8027,4.7324,4.7051,4.7344,4.668,4.6269,4.6191,4.6191,4.6152,4.6074,4.6074,4.6074,4.6074,4.6152,4.6152,4.6074,4.6152,4.623,4.6308,4.6308,4.6308,4.6158,4.458,4.4845,4.5977,4.2747,4.1292,4.0809,3.9432,3.7722,3.6158,0.0,0.0,0.0,0.0,0.0,0.0,0.0,0.0,0.0,0.0,2.9804,2.9804,0.0,0.0,0.0,0.0,0.0,0.0,3.1507,0.0,0.0,3.4678,3.538,3.5857,3.6155,0.0,0.0,3.6078,3.5077,3.7287,4.2462,4.3015,4.4894,4.7695,4.563,4.4315,4.322,3.7372,3.5504,3.6224,3.3672,3.2962,3.3399,0.0,0.0,0.0,3.1339,3.1263,3.1284,3.1602,3.1767,0.0,0.0,0.0,3.2533,3.2533,3.2657,3.3277,3.5521,4.0766,4.6454,4.9661,5.2014,5.3747,5.4613,5.4763,5.4695,5.4714,5.4827,5.469,5.4063,5.4038,5.382,5.3008,5.2207,5.1641,5.1523,5.084,5.0332,5.0273,4.9578,4.9031,4.8913,4.8229,4.7578,4.7084,4.6948,4.6797,4.6484,4.6367,4.6133,4.5781,4.5762,4.5586,4.5195,4.5153,4.5153,4.5195,4.5586,4.5566,4.5215,4.5586,4.5957,4.6308,4.6308,4.6308,4.6265,4.6026,4.607,4.6109,4.4252,4.2481,4.0821,3.9204,3.7586,3.6129,0.0,0.0,0.0,0.0,0.0,0.0,0.0,0.0,0.0,0.0,0.0,2.9804,0.0,0.0,0.0,2.9804,3.0507,3.121,3.1813,3.3144,3.3997,3.4226,3.4778,3.5029,3.4999,0.0,3.465,3.5454,3.4951,3.784,4.3915,4.4468,4.6225,4.8705,4.5539,4.3335,4.1653,3.7118,3.5087,3.4782,3.3443,3.3271,0.0,0.0,0.0,0.0,0.0,0.0,3.2168,3.2326,3.2408,3.2429,3.2636,0.0,0.0,0.0,3.305,3.4364,3.8411,4.2266,4.6003,4.9855,5.177,5.2904,5.3702,5.3687,5.36,5.3738,5.3518,5.3354,5.3756,5.3607,5.3063,5.2139,5.1484,5.0996,5.0762,4.998,4.948,4.948,4.8718,4.8047,4.7793,4.7441,4.7031,4.6621,4.6582,4.6504,4.6308,4.6308,4.6113,4.5727,4.5898,4.582,4.5391,4.5625,4.5625,4.5391,4.5586,4.5449,4.4996,4.5469,4.5781,4.5957,4.5957,4.6094,4.6308,4.6308,4.6308,4.624,4.5496,4.3377,4.0652,4.015,3.823,3.588,0.0,0.0,0.0,0.0,0.0,0.0,0.0,0.0,0.0,0.0,0.0,0.0,0.0,0.0,0.0,0.0,3.0306,3.1039,3.2118,3.3144,3.3696,3.3696,3.4073,3.4123,3.3696,3.3696,3.4022,3.4703,3.5002,3.8542,4.5041,4.5773,4.7883,5.0896,4.6847,4.3684,4.1155,3.8331,3.6221,3.4797,3.4108,3.3892,0.0,0.0,0.0,0.0,0.0,0.0,0.0,0.0,3.2698,3.2698,3.2698,3.2698,0.0,0.0,0.0,3.4705,3.9126,4.1729,4.4155,4.8312,5.0278,5.1491,5.2379,5.2404,5.2276,5.252,5.2148,5.2061,5.3084,5.2876,5.2266,5.1396,5.082,5.0332,4.9949,4.9226,4.8698,4.8581,4.7871,4.7285,4.6909,4.6792,4.6641,4.6328,4.6308,4.6308,4.6308,4.6308,4.6113,4.5727,4.5976,4.5937,4.5508,4.5723,4.5605,4.5176,4.5293,4.5117,4.4707,4.5156,4.5351,4.5371,4.5586,4.5859,4.6152,4.625,4.6026,4.5568,4.5568,4.3211,3.9789,4.0029,3.8259,3.5723,0.0,0.0,0.0,0.0,0.0,0.0,0.0,0.0,0.0,0.0,0.0,0.0,0.0,2.9804,2.9804,2.9804,3.0306,3.1039,3.2118,3.2792,3.314,3.314,3.3165,0.0,3.314,3.314,3.3646,3.4703,3.5778,3.9723,4.625,4.728,5.0393,5.4902,5.0434,4.6641,4.3431,4.0538,3.8693,3.7493,3.5336,0.0,0.0,0.0,0.0,0.0,0.0,0.0,0.0,0.0,0.0,3.2698,3.2698,3.2698,3.2698,0.0,0.0,0.0,3.4748,3.7692,4.1052,4.4019,4.6889,4.9472,5.1249,5.1263,5.1042,5.153,5.1243,5.0905,5.1036,5.1274,5.1328,5.0898,5.0137,4.9433,4.9031,4.8535,4.8086,4.7695,4.7246,4.6909,4.6889,4.6562,4.6328,4.6308,4.6308,4.6308,4.6308,4.6308,4.6113,4.5727,4.5703,4.5508,4.5058,4.4687,4.4258,4.3808,4.4258,4.4219,4.3789,4.4258,4.4473,4.4512,4.5312,4.5727,4.5742,4.6133,4.5197,4.3523,4.3523,4.1158,3.7759,3.7775,3.6899,3.5694,0.0,0.0,0.0,0.0,0.0,0.0,0.0,0.0,0.0,0.0,0.0,0.0,0.0,2.9804,2.993,3.0281,3.1115,3.1792,3.2169,3.2742,3.309,3.309,3.3442,3.3596,3.3596,3.3596,3.4148,3.5207,3.528,3.8341,4.4217,4.6024,4.788,4.9615,4.7871,4.6432,4.4933,3.8869,3.627,3.6049,3.4118,3.3461,3.3555,3.312,0.0,0.0,0.0,0.0,0.0,0.0,0.0,0.0,0.0,0.0,3.2698,3.2698,3.2698,3.3128,3.5084,3.6771,3.8793,4.22,4.4894,4.7097,4.8691,4.9515,5.0028,5.0216,4.9887,4.9605,4.9635,4.9946,5.0058,4.9676,4.9062,4.8535,4.8105,4.7656,4.7324,4.7187,4.6777,4.6523,4.6523,4.6387,4.6308,4.6308,4.6308,4.6308,4.6308,4.6308,4.6113,4.5727,4.5937,4.5879,4.5449,4.4746,4.4316,4.4141,4.4316,4.416,4.373,4.418,4.4238,4.3921,4.3548,4.354,4.3865,4.4259,4.33,4.1536,4.1536,3.9937,3.7607,3.783,3.6974,3.5723,0.0,0.0,0.0,0.0,0.0,0.0,0.0,0.0,0.0,0.0,0.0,0.0,0.0,0.0,3.0482,3.0834,3.1667,3.2194,3.2194,3.2742,3.309,3.309,3.3596,3.3897,3.3897,3.4248,3.4803,3.5508,3.5707,3.8291,4.3039,4.4869,4.6482,4.7702,4.5533,4.4721,4.4804,4.0933,3.8192,3.6342,3.4962,3.4546,3.4714,3.4258,0.0,0.0,0.0,0.0,0.0,0.0,0.0,0.0,0.0,0.0,0.0,3.2739,3.2698,3.3033,3.4544,3.5622,3.7143,4.0492,4.2298,4.388,4.6209,4.713,4.7609,4.8105,4.834,4.8464,4.8464,4.8555,4.8652,4.8633,4.8281,4.7851,4.7422,4.7109,4.6831,4.6694,4.6348,4.6094,4.6094,4.6094,4.6094,4.6094,4.623,4.6308,4.6308,4.6308,4.6113,4.5727,4.5801,4.5664,4.5254,4.4687,4.4316,4.416,4.416,4.4004,4.3711,4.4023,4.3651,4.2777,4.232,4.2257,4.255,4.2441,4.1294,3.9527,3.9527,3.8421,3.6823,3.7055,3.6528,3.5738,0.0,0.0,0.0,0.0,0.0,0.0,0.0,0.0,0.0,0.0,0.0,0.0,0.0,0.0,0.0,3.1482,3.1964,3.2269,3.2244,3.2792,3.314,3.314,3.3646,3.3947,3.3947,3.4979,3.5508,3.5533,3.7137,3.9622,4.2858,4.3962,4.6461,4.9781,4.3982,4.1833,4.2853,4.6697,4.4677,3.8812,3.803,3.7081,3.6246,3.6639,0.0,0.0,3.7715,3.7281,0.0,3.4838,0.0,0.0,0.0,0.0,0.0,0.0,0.0,3.2698,0.0,0.0,0.0,3.8683,3.9013,3.9773,4.3857,4.4029,4.3767,4.5281,4.6587,4.7441,4.7519,4.7187,4.7143,4.8008,4.7812,4.7402,4.6973,4.687,4.6714,4.6328,4.5918,4.5727,4.5727,4.5707,4.5707,4.5727,4.6035,4.6269,4.6269,4.6269,4.6074,4.5664,4.5234,4.4805,4.4394,4.4394,4.4141,4.3711,4.3711,4.3711,4.3711,4.3711,4.2719,4.1042,4.1702,4.1962,4.1844,4.0845,3.9271,3.7483,3.7483,3.6559,3.5196,3.5196,3.5416,3.5738,0.0,0.0,0.0,0.0,0.0,0.0,0.0,0.0,0.0,0.0,0.0,0.0,0.0,0.0,0.0,3.3244,3.3721,3.3825,3.347,3.3596,3.3847,3.4226,3.4778,3.5079,3.5079,3.5332,3.5707,3.6155,3.6183,3.7047,3.8766,0.0,4.1933,4.1556,4.4271,4.2855,3.8402,3.7532,3.8678,4.0686,3.6721,3.6507,3.8386,3.6887,0.0,0.0,0.0,3.9068,3.9137,0.0,3.7402,3.6246,0.0,0.0,0.0,0.0,0.0,0.0,3.2698,0.0,0.0,0.0,0.0,0.0,3.8838,3.9357,4.0095,4.2383,4.3144,4.3965,4.5903,4.6348,4.6562,4.6797,4.6738,4.6621,4.6484,4.6484,4.6328,4.5898,4.5785,4.5727,4.5727,4.5391,4.5332,4.5644,4.5488,4.5371,4.5371,4.5371,4.5332,4.5215,4.4805,4.4512,4.4394,4.4062,4.3828,4.3711,4.3711,4.3711,4.3711,4.3711,4.2719,4.0939,4.0046,3.8913,3.7727,3.8223,3.7269,3.5521,3.5521,3.5207,3.4856,3.5123,3.5416,3.5738,0.0,0.0,0.0,0.0,0.0,0.0,0.0,0.0,0.0,0.0,0.0,0.0,0.0,0.0,0.0,0.0,3.5353,3.5155,3.4603,3.4374,3.4352,3.4678,3.5207,3.5508,3.5508,3.5983,3.6282,3.6405,3.6007,3.6407,0.0,0.0,0.0,0.0,4.0811,4.0114,3.7015,3.3993,3.5333,3.9336,3.7609,3.8073,3.9709,3.9164,3.9833,0.0,0.0,0.0,4.1704,4.0309,3.8934,0.0,0.0,0.0,0.0,0.0,0.0,0.0,0.0,0.0,3.3343,3.4728,0.0,0.0,3.6656,3.6793,3.7151,3.9471,4.0351,4.1348,4.3459,4.4141,4.4609,4.5137,4.5215,4.5469,4.6191,4.6308,4.6152,4.5766,4.5508,4.5332,4.5156,4.4746,4.457,4.4844,4.4805,4.4801,4.4977,4.4863,4.4766,4.4766,4.4336,4.4101,4.4101,4.3848,4.3711,4.3711,4.3906,4.3887,4.367,4.3077,4.1742,3.9763,3.8242,3.6547,3.49,3.5637,3.5407,3.4505,3.4505,3.4666,3.4914,3.5137,3.5416,3.5738,0.0,0.0,0.0,0.0,0.0,0.0,0.0,0.0,0.0,0.0,0.0,0.0,0.0,0.0,0.0,0.0,3.7036,3.6309,3.5732,3.513,0.0,0.0,0.0,0.0,0.0,0.0,0.0,0.0,0.0,0.0,0.0,0.0,0.0,0.0,0.0,3.563,3.7071,3.434,3.4286,3.6236,3.9334,4.0571,4.0749,4.2418,4.3618,4.4347,4.3999,4.4136,4.4043,4.1231,3.9327,0.0,0.0,0.0,0.0,0.0,3.3375,0.0,0.0,0.0,0.0,0.0,3.4228,0.0,3.5864,3.5333,3.4805,3.6592,3.7851,3.9101,4.0644,4.1308,4.1992,4.3027,4.3437,4.4219,4.5918,4.6172,4.5996,4.5508,4.5117,4.4707,4.4297,4.3828,4.3574,4.3633,4.3965,4.4336,4.4684,4.4375,4.418,4.418,4.3828,4.3613,4.3574,4.3652,4.3691,4.3633,4.416,4.4077,4.338,4.2129,4.0229,3.7826,3.6512,3.4881,3.3172,3.3464,3.3832,3.4168,3.4212,3.4563,3.5108,3.5137,3.5386,3.5738,0.0,0.0,0.0,0.0,0.0,0.0,0.0,0.0,0.0,0.0,0.0,0.0,0.0,0.0,0.0,0.0,0.0,3.7462,0.0,0.0,0.0,0.0,0.0,0.0,0.0,0.0,0.0,0.0,0.0,0.0,0.0,0.0,0.0,0.0,3.5295,3.5058,3.3812,3.5578,3.5861,3.5342,3.7767,4.0421,4.3037,4.3731,4.4374,4.494,4.5529,4.5633,4.4962,4.19,3.9502,3.7579,0.0,0.0,0.0,3.366,0.0,0.0,0.0,0.0,0.0,0.0,3.3886,0.0,3.2763,3.2787,3.3422,3.4505,3.4935,3.5932,3.863,4.0019,4.0625,4.0156,4.1836,4.3691,4.5078,4.5231,4.498,4.418,4.4023,4.3789,4.3379,4.293,4.2832,4.3183,4.2949,4.2811,4.2889,4.2811,4.2812,4.2812,4.3066,4.3027,4.2635,4.3359,4.3535,4.3203,4.4004,4.3388,4.1509,4.1579,3.9561,3.5988,3.572,3.4542,3.2866,3.2924,3.3305,3.3801,3.4064,3.4285,3.4432,3.4695,3.5196,3.5694,0.0,0.0,0.0,0.0,0.0,0.0,0.0,0.0,0.0,0.0,0.0,0.0,0.0,0.0,0.0,0.0,0.0,0.0,0.0,0.0,0.0,0.0,0.0,0.0,0.0,0.0,0.0,0.0,3.5676,0.0,0.0,0.0,0.0,0.0,3.419,3.3818,3.2809,3.4555,3.523,3.5447,3.8848,4.1332,4.3167,4.4712,4.5472,4.5719,4.592,4.5569,4.4658,4.1982,4.0644,0.0,3.6662,3.6007,3.6132,0.0,3.4517,3.4313,0.0,0.0,0.0,3.3728,0.0,0.0,0.0,3.1899,3.1875,3.3164,3.2961,3.3313,3.5893,3.6523,3.7012,3.8086,3.918,4.0566,4.25,4.3516,4.3808,4.3144,4.2891,4.2578,4.2168,4.1738,4.1562,4.1797,4.1797,4.1797,4.1797,4.2207,4.2284,4.2129,4.2539,4.2754,4.2754,4.3183,4.3516,4.375,4.4394,4.3579,4.1507,4.0873,3.8784,3.5676,3.4599,3.3631,3.2822,3.2822,3.3056,3.3479,3.3801,3.4168,3.4505,3.4812,3.5284,3.5661,3.0005,0.0,0.0,0.0,0.0,0.0,0.0,0.0,0.0,0.0,0.0,0.0,0.0,0.0,0.0,0.0,0.0,0.0,0.0,0.0,0.0,0.0,0.0,3.717,0.0,0.0,0.0,0.0,3.5673,3.524,0.0,0.0,3.3218,3.4099,3.316,3.2827,3.2988,3.3496,3.4623,3.6428,4.0424,4.1994,4.2269,4.5005,4.6085,4.6083,4.5814,4.521,4.4211,4.2051,4.1667,4.1405,3.7535,3.7425,0.0,0.0,0.0,0.0,0.0,0.0,0.0,0.0,0.0,3.3554,0.0,0.0,0.0,3.2287,3.175,3.1662,3.3387,3.327,3.363,3.582,3.6387,3.7187,3.9023,4.0625,4.168,4.1914,4.1406,4.1016,4.0976,4.0371,4.0099,4.0391,4.0488,4.0702,4.0957,4.1582,4.1777,4.1445,4.1914,4.2305,4.2578,4.2832,4.3359,4.4141,4.4191,4.3272,4.1529,3.9677,3.7601,3.5355,3.3545,3.2822,3.2822,3.2822,3.2954,3.3231,3.3567,3.4095,3.4651,3.5006,3.5357,3.5627,3.0005,3.0331,0.0,0.0,0.0,0.0,0.0,0.0,0.0,4.4647,4.6351,4.7364,0.0,4.6017,4.475,0.0,0.0,0.0,4.0731,0.0,0.0,0.0,0.0,0.0,3.7117,0.0,0.0,0.0,3.5631,3.4604,3.4576,0.0,3.2755,3.2919,3.2888,3.327,3.3969,3.4513,3.6199,3.8746,4.0407,4.0825,4.0792,4.3965,4.5149,4.5186,4.5569,4.5421,4.4687,0.0,4.1501,4.0952,0.0,3.7888,3.7413,3.7108,0.0,0.0,0.0,0.0,0.0,0.0,3.6073,0.0,0.0,0.0,3.3657,3.1831,0.0,3.1969,3.2177,0.0,0.0,3.2276,3.4342,3.5801,3.4955,3.5644,3.7246,3.9863,3.9101,3.8809,3.9941,3.8945,3.8711,3.9883,3.8926,3.8809,3.998,4.0137,4.0156,4.0117,4.0898,4.1152,4.082,4.1933,4.2754,4.3223,4.2038,4.0861,3.9614,3.7447,3.5418,3.3486,3.2999,3.2822,3.2822,3.2822,3.2954,3.3231,3.3567,3.3903,3.4314,3.4636,3.5181,3.5646,2.9955,3.1009,3.2265,0.0,0.0,0.0,0.0,0.0,4.4665,4.6627,4.8955,5.0614,5.0972,4.9191,4.7425,4.6097,4.2532,4.0413,0.0,0.0,0.0,0.0,0.0,0.0,0.0,0.0,0.0,0.0,3.4969,3.4155,3.3445,0.0,3.2843,3.312,3.2965,3.3368,3.4205,3.4973,3.5983,3.7208,3.9295,4.0014,4.0182,4.3656,4.4855,4.462,4.4552,4.4432,4.4019,0.0,4.1954,0.0,0.0,0.0,0.0,3.8746,0.0,0.0,0.0,0.0,0.0,0.0,0.0,0.0,3.4175,0.0,3.3689,0.0,0.0,0.0,0.0,0.0,0.0,0.0,3.2754,3.3574,3.4036,3.3965,3.4824,3.7344,3.6269,3.5723,3.6777,3.6367,3.6387,3.7226,3.7226,3.7441,3.7988,3.9219,3.9766,3.9492,4.0332,4.084,4.0898,4.168,4.2656,4.3848,4.2125,4.0833,3.9957,3.7513,3.5325,3.345,3.2997,3.2822,3.2822,3.2822,3.2954,3.3231,3.3567,3.3888,3.4224,3.4454,3.4822,3.5131,3.0281,3.1637,3.2914,3.3065,3.4427,0.0,0.0,0.0,4.6225,4.7531,4.9784,5.1581,5.2262,5.0342,4.8555,4.7559,4.4463,4.2061,0.0,0.0,3.8753,0.0,0.0,0.0,0.0,0.0,0.0,0.0,3.4497,3.3939,3.2884,0.0,0.0,3.3596,3.3888,3.4422,3.5185,3.6391,3.7248,3.7949,3.9643,4.0476,4.0947,4.358,4.446,4.418,4.3965,4.373,4.3359,4.2307,4.227,0.0,4.1066,0.0,4.0204,0.0,0.0,0.0,3.834,0.0,0.0,0.0,0.0,0.0,0.0,0.0,0.0,0.0,0.0,0.0,0.0,0.0,0.0,0.0,0.0,3.209,3.3223,3.2734,3.3027,3.5025,3.4362,3.4004,3.4648,3.4375,3.4512,3.5332,3.5312,3.5698,3.6656,3.8047,3.8887,3.9023,3.9883,4.0566,4.0996,4.1426,4.2441,4.3982,4.1466,4.0172,3.9912,3.69,3.4832,3.3523,3.3012,3.2822,3.2822,3.2822,3.2954,3.3231,3.3567,3.3842,3.4054,3.4215,3.446,3.4678,3.1235,3.1813,3.2416,3.3014,3.4427,3.6611,3.9922,4.1532,4.3517,4.6697,4.7224,4.8235,5.0704,4.7615,4.655,4.9425,4.3943,4.1137,4.3075,0.0,3.8477,0.0,0.0,3.7692,0.0,0.0,0.0,0.0,3.4497,3.4089,3.3377,3.3377,0.0,0.0,3.602,3.7052,3.7502,3.9426,4.1449,4.3255,4.2546,4.2744,4.3582,0.0,4.3697,4.3789,4.4219,0.0,0.0,4.2546,4.2132,0.0,0.0,0.0,0.0,0.0,0.0,0.0,0.0,0.0,0.0,3.7208,0.0,0.0,0.0,0.0,3.586,0.0,0.0,0.0,0.0,0.0,0.0,0.0,0.0,0.0,0.0,3.123,3.1582,3.3269,3.418,3.4668,3.4707,3.3574,3.3555,3.5273,3.3086,3.3144,3.6519,3.6328,3.6894,3.8591,3.9453,4.0117,4.0508,4.0976,4.1875,4.3065,3.9068,3.7691,3.862,3.4723,3.3013,3.3201,3.291,3.2822,3.2822,3.2822,3.2954,3.3231,3.3567,3.3613,3.3561,3.3815,3.413,3.4302,3.2487,3.3244,3.3674,3.319,3.4427,3.6737,4.0474,4.2308,4.4629,4.8534,4.96,5.113,5.4088,5.2871,5.1898,5.2042,4.884,4.6347,4.5301,4.3224,0.0,0.0,0.0,3.9537,0.0,0.0,0.0,0.0,0.0,3.3804,3.3874,3.3874,3.4102,3.464,3.597,3.6757,3.7307,3.947,4.0512,4.0718,4.1853,4.34,4.4914,0.0,4.3703,4.3691,4.3574,4.334,0.0,4.2582,4.2112,4.1718,4.158,4.0949,4.0219,4.0211,4.0035,0.0,0.0,0.0,4.0373,3.8292,0.0,0.0,0.0,0.0,0.0,0.0,0.0,0.0,0.0,0.0,0.0,0.0,0.0,0.0,0.0,3.0723,3.0859,3.2001,3.2676,3.2824,3.2226,3.1797,3.1894,3.2754,3.2012,3.2372,3.4414,3.5742,3.6836,3.7695,3.8848,3.9785,4.0469,3.9734,4.0141,4.168,3.776,3.64,3.7196,3.4364,3.3099,3.3187,3.291,3.2822,3.2822,3.2822,3.2954,3.3231,3.3567,3.3613,3.3468,3.344,3.3406,3.3373,3.3947,3.4502,3.4778,3.4073,3.5631,3.7965,4.0876,4.3148,4.5857,4.9473,5.0781,5.2624,5.6009,5.5262,5.447,5.4388,5.1981,4.9254,4.6399,4.5129,0.0,4.2336,4.2215,0.0,0.0,0.0,0.0,0.0,0.0,3.4371,3.435,3.435,3.4578,3.5066,3.6723,3.7522,3.786,4.0609,4.1372,4.0881,4.2403,4.3817,4.4872,0.0,4.3795,4.4096,0.0,4.2754,4.2578,4.2305,4.1896,4.1541,4.1563,4.1053,4.0399,4.0241,4.016,4.002,4.0,4.0325,0.0,3.8974,3.8706,0.0,3.6309,0.0,0.0,0.0,0.0,0.0,0.0,0.0,0.0,0.0,0.0,0.0,0.0,3.0625,3.0664,3.123,3.1406,3.1397,3.1133,3.0703,3.0586,3.1016,3.0733,3.1289,3.2891,3.4746,3.6186,3.7051,3.8613,3.9863,4.0742,3.9243,3.9219,4.0702,3.6849,3.5344,3.5914,3.3947,3.3071,3.3056,3.2866,3.2822,3.2822,3.2822,3.3027,3.3391,3.3611,3.3579,3.3378,3.3248,3.3015,3.2802,3.5533,3.5633,3.5708,3.5708,3.7865,4.0023,4.1252,4.3925,4.6836,4.9582,5.0671,5.2565,5.6202,5.4698,5.4218,5.6204,5.314,4.9769,4.6674,4.6618,0.0,0.0,4.2309,4.1606,3.7886,0.0,0.0,0.0,0.0,3.5666,3.4931,3.4848,3.5024,3.5511,3.8261,3.9257,3.9084,4.2675,4.3999,4.3695,4.4191,4.4143,4.3733,4.3244,4.3883,4.4786,4.3013,4.2109,4.1797,4.1777,4.1504,4.1211,4.1211,4.0879,4.043,4.0059,4.0215,4.0332,3.9492,3.959,3.9802,3.9251,0.0,0.0,0.0,0.0,3.7984,0.0,0.0,0.0,0.0,0.0,0.0,0.0,0.0,0.0,0.0,3.0898,3.0898,3.0918,3.0469,3.0508,3.1337,3.0312,2.9755,3.0137,2.9394,2.9863,3.2022,3.3371,3.4857,3.6597,3.8711,4.0254,4.1211,3.9374,3.9069,4.0151,3.6199,3.4455,3.476,3.3393,3.2822,3.2822,3.2822,3.2822,3.2822,3.2822,3.3158,3.3684,3.3684,3.3464,3.3177,3.313,3.29,3.2594,3.618,3.7487,3.8617,3.8617,3.8517,3.9496,4.2685,4.4291,4.6505,5.0297,5.2006,5.3416,5.4788,5.4951,5.4968,5.4865,5.3364,5.1779,5.0307,0.0,0.0,4.4835,4.517,4.4073,4.1157,4.0492,0.0,3.8655,0.0,3.6018,3.6763,3.5728,3.5314,3.549,3.791,3.8603,3.8236,4.1442,4.2961,4.3268,4.3699,4.4238,4.4541,0.0,4.2978,4.3934,4.2464,4.1894,4.1758,4.1445,4.1308,4.1211,4.1211,4.1132,4.0918,4.0488,4.043,4.043,4.0254,4.0235,4.0234,3.98,3.9552,3.9024,0.0,0.0,0.0,0.0,0.0,0.0,0.0,0.0,0.0,0.0,0.0,0.0,0.0,0.0,3.0996,3.1328,3.0391,2.997,3.0488,2.9989,2.9637,2.9755,2.9219,2.959,3.1133,0.0,3.4238,3.5684,3.7793,3.9648,4.1191,3.8091,3.727,3.8679,3.4717,3.3006,3.3335,3.294,3.2822,3.2822,3.2822,3.2822,3.2822,3.2822,3.3158,3.3684,3.3319,3.2969,3.255,3.2232,3.2278,3.2594,3.7436,3.9472,4.1155,4.1155,4.1133,4.1968,4.462,4.514,4.6786,5.118,5.2082,5.2899,5.4244,5.5279,5.5547,5.4594,5.3666,5.2627,5.1322,0.0,0.0,4.7197,4.6904,4.567,4.3272,4.1884,0.0,3.9101,0.0,3.6458,3.6577,3.5997,3.5593,3.549,3.7786,3.8583,3.8419,4.1156,4.2843,4.3646,4.348,4.3739,0.0,4.26,4.2425,4.2802,4.1876,4.1523,4.1484,4.1289,4.1211,4.1211,4.1211,4.1211,4.1172,4.0879,4.0801,4.0762,4.0586,4.0664,4.0664,4.0039,3.9994,3.9655,3.8196,3.8556,3.8803,0.0,0.0,0.0,0.0,0.0,0.0,0.0,0.0,0.0,0.0,0.0,3.0976,3.1211,3.0586,3.0185,3.0195,2.9473,2.9031,2.9031,2.9297,2.9726,0.0,0.0,3.4219,3.5351,3.7832,3.9805,4.1211,3.8213,3.7117,3.7913,3.4105,3.25,3.2822,3.2822,3.2822,3.2822,3.2822,3.2822,3.2822,3.2822,3.301,3.3348,3.2931,3.2589,3.2313,3.1853,3.2086,3.2607,3.8994,4.1507,4.3492,4.3266,4.4546,4.5993,4.7062,4.6703,4.7768,5.2033,5.2003,5.2329,5.4392,5.5515,5.5803,5.4855,5.4004,5.2768,5.1158,5.0993,5.02,4.8525,4.8052,4.6894,4.4863,4.3275,4.1131,0.0,0.0,3.6922,3.5759,3.6018,3.5862,3.5573,3.7703,3.8747,3.9074,4.1325,4.2982,4.4011,4.3405,4.3086,4.2949,4.2519,4.209,4.166,4.125,4.1172,4.1211,4.1211,4.1211,4.1211,4.1211,4.1211,4.1211,4.1211,4.1211,4.1094,4.0703,4.084,4.0918,4.0156,4.0215,4.0019,3.8421,3.8108,3.8047,3.7559,3.6543,3.6035,0.0,0.0,0.0,0.0,0.0,0.0,0.0,0.0,3.0976,3.0976,3.0918,0.0,3.0332,2.918,2.8437,2.8379,2.9355,2.9844,0.0,0.0,3.4231,3.5351,3.787,3.9776,4.0957,0.0,3.7343,3.7361,3.3929,3.25,3.2822,3.2822,3.2822,3.2822,3.2822,3.2763,3.2689,3.2689,3.2755,3.2796,3.2517,3.2374,3.228,3.1894,3.2126,3.2634,4.0124,4.3536,4.5944,4.4539,4.6568,4.8928,5.0517,5.0177,5.0457,5.2427,5.4139,5.5186,5.5144,5.5329,5.5279,5.4764,5.3902,5.3119,5.2403,0.0,0.0,4.9926,4.9422,4.8516,4.7051,4.4318,4.2604,0.0,0.0,0.0,3.7674,3.6618,3.608,3.6039,3.7198,3.82,3.9111,4.1032,4.1974,4.2346,4.3244,4.3164,4.25,4.207,4.1641,4.1269,4.0801,4.0859,4.1211,4.1211,4.1211,4.1211,4.1211,4.1211,4.1211,4.1211,4.1211,4.1191,4.1113,4.0859,4.0605,4.0449,4.0215,3.9824,3.9141,3.9277,3.9316,3.8552,3.7891,3.7344,3.691,0.0,0.0,0.0,0.0,0.0,0.0,0.0,0.0,3.1377,3.1094,3.0859,3.0781,2.9931,2.9227,2.8801,2.8691,2.8933,0.0,0.0,3.2656,0.0,3.5527,0.0,0.0,0.0,3.5167,3.6266,3.3565,3.25,3.2822,3.2822,3.2822,3.2822,3.2822,3.2542,3.2143,3.2143,3.1977,3.1817,3.2222,3.2185,3.1833,3.1979,3.2251,3.2607,4.3812,4.522,4.6538,4.723,4.8007,4.937,5.1802,5.2267,5.2654,5.3382,5.3797,5.4185,5.4694,5.5089,5.5137,5.4726,5.3918,5.3183,5.2734,5.2324,5.1699,5.0859,5.0215,4.9258,4.793,4.4699,4.2526,4.1494,0.0,0.0,0.0,0.0,3.5693,3.5529,3.6712,3.8419,4.0452,4.0868,0.0,4.2526,4.3128,4.3125,4.2715,4.2285,4.1855,4.1445,4.1016,4.0996,4.1211,4.1211,4.1211,4.1211,4.1211,4.1211,4.1172,4.0898,4.0996,4.1054,4.0332,4.0508,4.0703,4.0,4.0039,4.0039,3.9355,3.9375,3.9355,3.8747,3.8223,3.7676,3.6851,3.4883,0.0,0.0,0.0,0.0,0.0,0.0,3.2012,3.1533,3.1543,3.1416,3.0937,3.0508,3.0009,2.9316,2.9492,2.9735,0.0,0.0,3.2734,0.0,0.0,0.0,0.0,0.0,0.0,3.5391,3.3494,3.2617,3.2822,3.2822,3.2822,3.2822,3.2822,3.2498,3.1994,3.1814,3.1669,3.1527,3.1907,3.1901,3.1751,3.1998,3.2198,3.2393,4.7082,4.6784,4.7117,4.942,4.9399,4.9957,5.2637,5.3716,5.4316,5.4549,5.3546,5.3271,5.4415,5.5019,5.5137,5.4726,5.3965,5.332,5.2871,5.2441,5.2012,5.1582,5.0683,4.9609,4.8379,4.5156,4.2486,0.0,0.0,0.0,0.0,0.0,3.5616,3.538,3.6612,3.86,0.0,0.0,4.1595,4.2961,4.317,4.3205,4.3027,4.2598,4.2168,4.1738,4.1328,4.1152,4.1093,4.1191,4.1211,4.1211,4.1211,4.1211,4.1152,4.0762,4.0898,4.0996,3.9902,4.0312,4.0781,3.9746,3.9941,4.0176,3.9394,3.9199,3.9082,3.8689,3.8223,3.7637,3.6699,3.5215,0.0,0.0,0.0,0.0,0.0,0.0,3.2676,0.0,3.1973,3.1964,3.0976,3.0976,3.0703,2.9931,3.0361,3.0488,3.0215,0.0,0.0,0.0,0.0,3.5264,3.7651,0.0,3.4721,3.4423,3.3335,3.2822,3.2822,3.2822,3.2822,3.2822,3.2822,3.2454,3.1831,3.15,3.1335,3.1343,3.1625,3.1711,3.1751,3.1998,3.2144,3.2225,4.7459,4.8351,4.9151,4.9496,5.1165,5.2817,5.39,5.4684,5.5306,5.5678,5.5613,5.5613,5.5717,5.5495,5.5137,5.4726,5.4238,5.3769,5.3371,5.2891,5.2461,5.2031,5.084,4.9746,4.8855,4.6191,4.3543,0.0,0.0,0.0,0.0,0.0,0.0,0.0,0.0,0.0,0.0,4.0744,4.1915,4.254,4.332,4.3418,4.3027,4.2598,4.2168,4.1738,4.1328,4.0918,4.0644,4.1074,4.1211,4.1211,4.1211,4.1211,4.1211,4.1172,4.1191,4.1191,4.1054,4.0781,4.0547,4.0391,4.0176,3.9824,3.9316,3.9199,3.9082,3.8689,3.8223,3.7504,3.6274,3.623,3.5913,0.0,0.0,0.0,0.0,0.0,3.334,3.1719,0.0,0.0,3.1016,3.123,3.1269,3.0801,3.0126,2.9872,0.0,0.0,0.0,3.4089,0.0,3.1705,3.5288,3.3238,3.2424,3.2984,3.2837,3.2822,3.2822,3.2822,3.2822,3.2822,3.2822,3.2276,3.1327,3.0998,3.0887,3.0941,3.1483,3.1711,3.1751,3.1998,3.2278,3.2554,4.9894,4.9193,4.9226,5.1311,5.1006,5.1496,5.4415,5.5144,5.5547,5.623,5.6328,5.6328,5.6328,5.5937,5.5508,5.5098,5.4668,5.4121,5.3449,5.3253,5.2793,5.2109,5.1348,5.0293,4.8906,4.6855,4.4346,0.0,0.0,0.0,0.0,0.0,0.0,0.0,0.0,3.837,4.0073,4.1029,4.1798,4.246,4.3359,4.3594,4.3398,4.2969,4.2558,4.2129,4.1699,4.1269,4.0898,4.082,4.0781,4.084,4.1094,4.1211,4.1152,4.0859,4.0976,4.1093,4.0547,4.0644,4.084,4.0586,4.0586,4.0547,4.0098,3.9805,3.9492,3.9043,3.8398,3.7738,3.7211,3.6894,3.648,0.0,0.0,0.0,0.0,0.0,0.0,3.2109,0.0,3.083,2.982,2.9828,3.0103,3.0472,3.0412,0.0,0.0,0.0,0.0,3.1233,0.0,3.0495,3.335,3.2316,3.212,3.2822,3.2822,3.2822,3.2822,3.2822,3.2631,3.2321,3.201,3.1507,3.088,3.0816,3.0795,3.0849,3.1436,3.1711,3.1778,3.2246,3.2487,3.2648,5.1651,5.008,4.9623,5.2646,5.1765,5.1689,5.4824,5.541,5.5762,5.6484,5.6582,5.6543,5.6406,5.6113,5.5762,5.5351,5.4922,5.4414,5.384,5.3546,5.3077,5.2305,5.1738,0.0,4.9121,4.75,4.5304,4.2467,4.0799,0.0,0.0,0.0,0.0,0.0,3.8505,3.9468,4.1342,4.1641,4.2148,4.2851,4.3457,4.3711,4.3652,4.3086,4.2695,4.2323,4.1953,4.1367,4.082,4.0723,4.0449,4.0234,4.0801,4.0898,4.0781,4.0723,4.084,4.0879,4.041,4.0723,4.1094,4.0781,4.0937,4.1055,4.0625,4.0293,3.9902,3.9316,3.8633,3.8047,3.7793,3.7363,3.6875,3.6401,0.0,0.0,0.0,3.3638,0.0,3.1731,3.0859,2.9959,2.8982,2.889,2.9009,2.9238,2.968,0.0,0.0,0.0,0.0,0.0,0.0,0.0,0.0,3.1936,3.2076,3.2632,3.2764,3.2822,3.2763,3.2631,3.2365,3.1966,3.1472,3.1066,3.0749,3.0859,3.0915,3.0969,3.1524,3.1711,3.1791,3.238,3.2594,3.2674,5.1996,5.1262,5.0849,5.3049,5.4094,5.4765,5.5234,5.5664,5.6074,5.6523,5.6582,5.6426,5.5943,5.5885,5.5762,5.5351,5.4922,5.4668,5.4668,5.3898,5.3164,0.0,0.0,5.0792,4.9504,4.8242,4.6504,4.4355,0.0,0.0,4.0347,0.0,3.977,3.9813,4.0738,4.1406,4.1836,4.2695,4.3301,4.3691,4.3691,4.3711,4.3613,4.2754,4.2382,4.2323,4.1953,4.0996,4.0039,4.0879,4.0293,3.9375,4.0254,4.0254,4.0078,4.0957,4.0859,4.0625,4.1035,4.1211,4.1211,4.1211,4.1211,4.1055,4.0625,4.0527,4.0273,3.9394,3.8867,3.8337,3.7461,3.7637,3.7328,3.5684,0.0,0.0,0.0,0.0,0.0,3.0177,3.0448,3.0209,2.9,2.889,2.8385,2.7112,0.0,0.0,0.0,0.0,0.0,2.9528,2.8511,0.0,3.1967,3.1894,3.1959,3.2295,3.2661,3.2822,3.2778,3.2232,3.201,3.198,3.135,3.1112,3.1122,3.1168,3.1223,3.1249,3.1557,3.1711,3.1791,3.238,3.2594,3.2674,5.1578,5.2108,5.2608,5.3292,5.4101,5.4824,5.5254,5.5664,5.6094,5.6523,5.6582,5.6523,5.6387,5.6387,5.6094,0.0,5.5449,5.5293,0.0,5.4414,5.3926,5.3183,5.2598,5.1426,4.9523,4.9121,4.7558,4.4824,0.0,0.0,0.0,4.0503,4.0563,4.1209,4.2111,4.2871,4.3613,4.416,4.4316,4.418,4.418,4.3984,4.3672,4.3398,4.293,4.2323,4.1953,4.1172,4.0273,3.9941,3.9551,3.9258,3.9531,3.9941,4.0371,4.0644,4.0625,4.0625,4.1055,4.0957,4.0801,4.1132,4.1211,4.1172,4.0996,4.0508,3.9922,3.9316,3.8867,3.832,3.7461,3.7637,3.7425,3.6055,3.5544,0.0,0.0,0.0,0.0,2.9284,2.8422,2.7709,2.6983,2.6732,0.0,0.0,0.0,0.0,0.0,0.0,0.0,0.0,2.8074,0.0,3.0905,3.173,3.2295,3.2661,3.2764,3.2586,3.2232,3.1729,3.1329,3.1045,3.1079,3.0945,3.0667,3.1029,3.1176,3.1203,3.1557,3.1711,3.1764,3.2104,3.242,3.2648,5.207,5.2812,5.3468,5.3574,5.4336,5.5,5.5273,5.5801,5.6269,5.6543,5.6445,5.6348,5.6348,5.6191,0.0,5.5801,5.5879,5.5644,5.4961,5.4765,5.4219,5.3164,5.2851,5.1855,5.0039,4.9687,0.0,4.6465,4.5488,4.4199,4.2598,4.1992,4.209,4.2812,4.3672,4.4277,4.4648,4.4902,4.4785,4.4375,4.4199,4.3965,4.3691,4.3535,4.3144,4.2617,4.2187,4.1387,4.043,4.0078,3.9609,3.9238,3.9414,3.9941,4.045,4.0332,4.0293,4.0351,4.0625,4.0605,4.0586,4.0859,4.1055,4.1133,4.0976,4.0391,3.9766,3.9297,3.8867,3.8396,3.7656,3.7617,3.7324,3.6157,3.5302,3.3981,3.1871,0.0,0.0,0.0,0.0,0.0,0.0,2.5897,2.5848,0.0,0.0,0.0,0.0,0.0,0.0,2.6566,2.8315,0.0,3.0932,3.1855,3.2485,3.2822,3.2601,3.2321,3.1966,3.1329,3.0953,3.0807,3.0927,3.0902,3.0715,3.1196,3.1396,3.141,3.1644,3.1778,3.1864,3.2158,3.25,3.2795,5.3175,5.3429,5.3535,0.0,5.4746,0.0,5.5312,5.6035,5.6582,5.6582,5.6211,5.5885,5.5885,5.5566,5.5625,5.6426,0.0,0.0,0.0,5.4902,5.4101,5.2812,5.2734,5.209,5.0781,4.998,4.9316,4.8855,4.6367,4.5113,4.5094,4.4277,4.4121,4.457,4.5371,4.5488,4.5074,4.5074,4.4883,4.4453,4.3984,4.3769,4.3711,4.3281,4.3105,4.3068,4.2578,4.1601,4.0664,4.1055,4.0332,3.9375,3.9805,4.0215,4.0449,4.0059,3.9941,3.9941,3.9941,4.0234,4.0489,4.0489,4.084,4.1113,4.0664,4.0234,3.9805,3.9336,3.8906,3.8476,3.7972,3.7578,3.7012,3.6118,3.4183,3.2072,3.0164,0.0,0.0,0.0,0.0,0.0,0.0,2.6241,2.5782,0.0,2.5271,0.0,0.0,0.0,2.6281,2.7577,2.9174,3.061,3.1812,3.2149,3.2471,3.2719,3.2188,3.1921,3.1877,3.1,3.0762,3.1049,3.0872,3.0982,3.1249,3.1543,3.1711,3.1711,3.1711,3.1851,3.2131,3.246,3.2755,3.3013,0.0,0.0,5.3906,5.3953,5.4746,5.5312,5.5312,5.6035,5.6582,5.6582,5.6211,5.5885,5.5885,5.5566,5.539,5.5586,5.5508,5.5273,5.4863,5.4746,5.4238,5.3292,5.2891,5.1953,5.0371,5.0137,4.9473,4.8359,4.709,4.644,4.6421,4.5937,4.5742,4.5859,4.6055,4.6094,4.5996,4.5996,4.5762,4.5332,4.4883,4.4512,4.418,4.373,4.3359,4.3068,4.2578,4.2031,4.1465,4.1289,4.0742,4.0196,4.0332,4.0411,4.0469,4.041,4.0371,4.0371,4.0371,4.0449,4.0489,4.0489,4.084,4.1191,4.1035,4.0684,4.0254,3.9824,3.9375,3.8828,3.803,3.7578,3.7012,3.6118,3.5006,3.3199,3.0297,2.9223,0.0,0.0,2.5614,2.5699,2.5625,2.5495,2.5483,0.0,0.0,0.0,0.0,2.6903,2.7707,2.8534,3.0129,3.1359,3.2163,3.2485,3.2514,3.2188,3.1685,3.1285,3.0942,3.0592,3.0469,3.0563,3.0948,3.1156,3.1249,3.1543,3.1711,3.1711,3.1711,3.1851,3.2104,3.2185,3.2532,3.2986,5.3633,5.4023,5.4258,5.4011,5.485,5.5527,5.5332,5.6035,5.6504,5.6308,5.5918,5.5644,5.5644,5.5098,5.4805,5.5,5.5195,5.5137,5.4707,5.4492,5.3984,5.3105,5.2656,5.1816,5.0488,5.0273,4.9629,4.8496,4.7832,4.7475,4.75,4.6875,4.6582,4.6582,4.6387,4.6308,4.6289,4.6094,4.5879,4.5644,4.5195,4.4766,4.4375,4.4121,4.375,4.3301,4.2871,4.2441,4.2051,4.1816,4.1328,4.0859,4.1055,4.0976,4.082,4.082,4.0684,4.045,4.0293,4.0371,4.0528,4.0781,4.0996,4.1152,4.0918,4.0684,4.0351,3.9707,3.9375,3.8763,3.7375,3.6523,3.5606,3.4184,3.312,3.1583,2.8976,2.8428,0.0,2.5736,2.5652,2.5895,2.6383,2.6266,2.6287,2.6442,2.6383,0.0,2.6925,2.8286,2.9061,2.912,3.0685,3.1768,3.228,3.2382,3.2276,3.1966,3.1469,3.1091,3.0835,3.0649,3.0635,3.0768,3.1089,3.1303,3.1436,3.1597,3.1711,3.1724,3.181,3.2051,3.2318,3.2452,3.2786,3.3173,5.3914,5.4336,5.4473,5.4101,5.4928,5.5625,5.5273,5.5879,5.625,5.5845,5.5469,5.5215,5.5215,5.4512,5.418,5.4551,5.4902,5.4961,5.4609,5.416,5.3555,5.2754,5.2305,5.168,5.082,5.0332,4.9668,4.8913,4.8476,4.8281,4.8183,4.7402,4.6948,4.687,4.6484,4.6308,4.6289,4.5918,4.5781,4.5723,4.5293,4.4902,4.457,4.4453,4.416,4.375,4.332,4.293,4.2617,4.2617,4.2109,4.1563,4.1875,4.166,4.1308,4.1308,4.0957,4.0527,4.0098,4.0254,4.0625,4.1074,4.1211,4.1113,4.0703,4.0625,4.0391,3.957,3.9394,3.8736,3.6608,3.5373,3.4029,3.207,3.0685,2.9327,2.7666,0.0,2.6978,2.6178,2.6143,2.6603,2.7525,2.7627,2.7554,2.7364,2.8022,2.8247,2.7972,2.9496,3.0199,2.9804,3.1124,3.2003,3.2339,3.2174,3.2021,3.193,3.1433,3.1136,3.1058,3.0912,3.0996,3.1176,3.1276,3.1436,3.1711,3.1711,3.1711,3.1738,3.1944,3.2286,3.2621,3.2875,3.312,3.3414,5.3972,5.4082,5.4101,5.3992,5.4492,5.4863,5.4785,5.5195,5.5488,5.541,5.5039,5.4785,5.4785,5.4336,5.4011,5.4121,5.4199,5.4199,5.4141,5.3711,5.3242,5.2734,5.2305,5.168,5.082,5.0039,4.9375,4.8913,4.8835,4.8574,4.8203,4.7715,4.7285,4.687,4.6484,4.6308,4.6289,4.623,4.6211,4.6172,4.5742,4.5527,4.5433,4.4668,4.4355,4.4238,4.3769,4.3574,4.3516,4.3516,4.3183,4.2833,4.2892,4.2344,4.1699,4.1699,4.1406,4.0976,4.0547,4.043,4.0625,4.1074,4.1211,4.1191,4.1094,4.1074,4.0918,4.043,4.0312,3.9488,3.6775,3.563,3.462,3.3122,3.1206,2.966,2.8971,0.0,2.7252,2.6517,2.691,2.7525,2.8189,2.8247,2.8491,2.8973,2.8651,2.8871,2.9892,3.0229,3.0727,3.1402,3.1929,3.2324,3.2473,3.2441,3.2133,3.1565,3.1469,3.1221,3.0866,3.1069,3.1183,3.1236,3.149,3.1671,3.1711,3.1711,3.1711,3.1724,3.1764,3.2112,3.2607,3.2648,3.3009,3.3414,5.3972,5.4219,5.4375,5.4375,5.4726,5.5019,5.5019,5.5371,5.5566,5.5332,5.5332,5.5351,5.5351,5.498,5.4707,5.4707,5.4726,5.4531,5.4011,5.3379,5.293,5.2715,5.207,5.1445,5.082,4.9961,4.9433,4.9219,4.9031,4.8679,4.8203,4.7773,4.7344,4.687,4.6484,4.6308,4.6308,4.6308,4.6308,4.6289,4.6094,4.5879,4.5648,4.498,4.459,4.4336,4.3867,4.3711,4.3711,4.3711,4.3418,4.3127,4.3127,4.2637,4.209,4.1875,4.1504,4.1133,4.0918,4.0879,4.0918,4.1172,4.1211,4.1211,4.1211,4.1211,4.1093,4.0605,4.0489,3.9681,3.7035,3.5156,3.3479,3.2102,2.9418,0.0,0.0,2.7447,2.7084,2.7225,2.7847,2.8564,2.9383,2.931,2.9325,2.9657,2.9529,2.9774,3.0361,3.0888,3.1332,3.17,3.2148,3.2315,3.2107,3.2004,3.1793,3.1519,3.1405,3.1208,3.1036,3.133,3.1463,3.1476,3.161,3.1711,3.1711,3.1711,3.1711,3.1724,3.1837,3.2219,3.2607,3.2768,3.3053,3.3414,5.416,5.4375,5.457,5.4668,5.4863,5.5039,5.5137,5.543,5.5527,5.5195,5.5449,5.5644,5.5644,5.5351,5.5195,5.5293,5.5312,5.498,5.4238,5.3359,5.2812,5.2715,5.1894,5.1191,5.0664,5.0019,4.957,4.9375,4.907,4.8679,4.8203,4.7871,4.7441,4.687,4.6601,4.6387,4.6308,4.6308,4.6308,4.6308,4.6308,4.6055,4.5644,4.5312,4.4844,4.4355,4.3984,4.3789,4.3711,4.3711,4.3496,4.3223,4.3223,4.293,4.25,4.207,4.1641,4.1348,4.125,4.1211,4.1211,4.1211,4.1211,4.1211,4.1211,4.1211,4.1113,4.0742,4.0356,3.9298,3.6854,3.4291,3.2104,3.074,0.0,0.0,0.0,2.7054,2.7115,2.8116,2.8769,2.95,3.0522,3.039,3.0273,3.0346,3.058,3.08,3.0947,3.1537,3.1772,3.1588,3.2088,3.2178,3.1819,3.1689,3.1563,3.1552,3.141,3.137,3.1436,3.1597,3.1751,3.177,3.1751,3.1751,3.1805,3.1751,3.1791,3.1938,3.2038,3.2332,3.2728,3.2942,3.316,3.3414,5.4551,5.4336,5.4199,5.4609,5.4375,5.4258,5.4668,5.4746,5.4765,5.4726,5.4746,5.4765,5.4765,5.4746,5.4883,5.5273,5.5312,5.5117,5.4668,5.3808,5.3125,5.2734,5.1894,5.1055,5.0234,5.0156,4.9726,4.8952,4.8913,4.8679,4.8203,4.8164,4.7715,4.6889,4.685,4.666,4.6308,4.6308,4.6308,4.6308,4.6308,4.6055,4.5707,4.5644,4.5117,4.4394,4.4355,4.4062,4.3711,4.3711,4.3691,4.3652,4.3652,4.3359,4.2949,4.25,4.209,4.166,4.1289,4.1211,4.1211,4.1211,4.1211,4.1211,4.1211,4.1211,4.1211,4.1172,3.9865,3.7998,3.5591,3.3199,3.1161,2.9907,0.0,0.0,2.8716,2.806,2.7914,2.912,2.9613,3.0214,3.1139,3.1212,3.1329,3.1637,3.1681,3.1959,3.2602,3.222,3.1853,3.1533,3.1736,3.1875,3.1888,3.1869,3.1785,3.1705,3.1671,3.177,3.2024,3.1784,3.1824,3.2051,3.1831,3.1824,3.2051,3.1784,3.2032,3.25,3.2198,3.2452,3.2946,3.2973,3.316,3.3414,5.459,5.4336,5.4258,5.4941,5.4707,5.457,5.5,5.5293,5.5449,5.5449,5.5703,5.5859,5.5859,5.5859,5.582,5.5703,5.5703,5.541,5.4726,5.3898,5.293,5.1953,5.1553,5.1289,5.0957,5.0449,5.0067,4.9734,4.9167,4.8679,4.8203,4.793,4.7637,4.7305,4.6777,4.6601,4.668,4.6406,4.6308,4.6308,4.6308,4.6211,4.6035,4.5781,4.5312,4.4746,4.4492,4.4101,4.3711,4.3711,4.3711,4.3711,4.3711,4.3594,4.3379,4.2949,4.2519,4.2148,4.1992,4.1758,4.1504,4.1269,4.1211,4.1211,4.1211,4.0353,3.957,3.957,3.821,3.664,3.5467,3.3522,3.1997,3.1651,0.0,2.8138,2.9423,2.9082,2.9027,2.9921,3.0437,3.0978,3.1563,3.1607,3.1666,3.1783,3.2178,3.2515,3.2808,3.2427,3.2053,3.1779,3.1721,3.1649,3.1456,3.1678,3.1826,3.1931,3.1931,3.2091,3.242,3.2078,3.1998,3.2091,3.1984,3.1998,3.2104,3.2233,3.2393,3.2581,3.2474,3.2674,3.2973,3.2973,3.316,3.3414,5.459,5.4336,5.4258,5.498,5.4765,5.4668,5.5215,5.5547,5.5728,5.5865,5.6191,5.6387,5.6387,5.6387,5.6308,5.6152,5.6015,5.5625,5.4922,5.3789,5.2637,5.1436,5.1377,5.1319,5.1182,5.0664,5.0312,5.0176,4.9433,4.8906,4.8613,4.8183,4.791,4.7754,4.7168,4.6914,4.687,4.6621,4.6504,4.6484,4.6348,4.6308,4.6269,4.5976,4.5527,4.4957,4.4844,4.4512,4.4101,4.3965,4.4004,4.4101,4.3965,4.3828,4.3652,4.3359,4.2969,4.2637,4.2637,4.2422,4.209,4.168,4.1562,4.1562,4.1562,4.0109,3.8808,3.8808,3.6885,3.512,3.4829,3.3178,3.1842,3.187,3.0105,2.9003,2.9804,2.9804,2.9965,3.061,3.1124,3.1593,3.1915,3.1959,3.2032,3.2237,3.2661,3.2864,3.2754,3.2482,3.2222,3.1948,3.1799,3.1664,3.1637,3.1885,3.1998,3.2104,3.2198,3.2398,3.2714,3.242,3.2238,3.2238,3.2238,3.2238,3.2251,3.2514,3.2701,3.2862,3.2768,3.2915,3.312,3.312,3.324,3.3414,5.459,5.4336,5.416,5.4609,5.4336,5.4265,5.5176,5.5312,5.5469,5.5826,5.5885,5.5885,5.5885,5.5885,5.6113,5.6543,5.6191,5.5742,5.5312,5.3672,5.2324,5.1416,5.1377,5.1182,5.082,5.0801,5.0605,5.0176,4.9746,4.9484,4.9465,4.9062,4.8659,4.8223,4.8203,4.7734,4.6889,4.6889,4.6889,4.685,4.6484,4.6308,4.6308,4.6308,4.5781,4.5098,4.5527,4.5391,4.4918,4.4551,4.4687,4.4961,4.4531,4.4082,4.3711,4.3711,4.3418,4.3086,4.3086,4.3086,4.2988,4.2539,4.2382,4.2382,4.2382,4.0712,3.919,3.915,3.6082,3.3404,3.3388,3.1746,3.0287,2.9965,2.9643,2.954,2.9877,3.0199,3.0639,3.1242,3.1607,3.1929,3.2266,3.2295,3.2559,3.3158,3.3201,3.3026,3.2719,3.2526,3.2321,3.2091,3.1824,3.2005,3.2581,3.2594,3.2447,3.2104,3.246,3.2755,3.2973,3.2728,3.2594,3.2594,3.2594,3.2594,3.2594,3.2607,3.2942,3.3387,3.3093,3.316,3.3414,3.3414,3.3414,3.3414,5.459,5.4336,5.416,5.4609,5.4824,5.5019,5.5273,5.582,5.625,5.6367,5.6387,5.6387,5.6387,5.6387,5.6308,5.6152,5.5742,5.4922,5.3574,5.2715,5.2012,5.1416,5.1377,5.1319,5.1201,5.0957,5.0742,5.0625,4.9883,4.9484,4.9465,4.875,4.8496,4.8633,4.8027,4.7793,4.7812,4.7519,4.7383,4.7383,4.7246,4.7012,4.6777,4.709,4.666,4.5937,4.6074,4.584,4.541,4.498,4.4879,4.4957,4.4883,4.4704,4.4629,4.4629,4.4551,4.4453,4.4453,4.4453,4.4121,4.2713,4.2382,4.2061,4.0793,3.9055,3.7366,3.6083,3.3929,3.2221,3.1954,3.1458,3.092,3.0583,3.0451,3.051,3.0832,3.0964,3.1271,3.1915,3.2076,3.2354,3.2865,3.2909,3.3084,3.3508,3.3483,3.314,3.2539,3.2667,3.2538,3.2104,3.2273,3.242,3.2594,3.2393,3.234,3.246,3.2755,3.2942,3.2973,3.2942,3.2902,3.2902,3.2902,3.2902,3.2915,3.3066,3.3253,3.34,3.332,3.3334,3.3414,3.3414,3.3414,3.3414,5.4375,5.4219,5.4121,5.4375,5.4629,5.4922,5.5254,5.5742,5.6211,5.6543,5.6582,5.6582,5.6582,5.6582,5.6406,5.5924,5.539,5.4394,5.2812,5.2461,5.207,5.1416,5.1377,5.1377,5.1377,5.1172,5.1055,5.1055,5.0195,4.9785,4.9766,4.8887,4.8659,4.8874,4.8366,4.8125,4.8183,4.793,4.7832,4.7812,4.7656,4.7519,4.7441,4.7539,4.7266,4.6816,4.6816,4.6641,4.6348,4.5742,4.543,4.5332,4.5621,4.5547,4.5293,4.5293,4.5156,4.4977,4.4977,4.4977,4.4723,4.367,4.332,4.2654,4.0662,3.8743,3.6887,3.5007,3.3142,3.1739,3.1534,3.1505,3.1446,3.1242,3.1212,3.1329,3.1651,3.1812,3.2076,3.2602,3.2778,3.3012,3.3348,3.3391,3.3478,3.363,3.3486,3.3131,3.2633,3.2572,3.2549,3.2438,3.2554,3.2701,3.2929,3.2599,3.2532,3.2768,3.3013,3.3146,3.3146,3.3146,3.3093,3.2986,3.3106,3.308,3.3,3.3293,3.3414,3.3414,3.3414,3.3414,3.3414,3.3414,3.3414,3.3414,5.3972,5.3972,5.3972,5.3972,5.4011,5.4355,5.5137,5.5293,5.5605,5.6426,5.6523,5.6543,5.6582,5.6543,5.6348,5.5865,5.5078,5.4043,5.2851,5.2695,5.2305,5.1475,5.1397,5.1377,5.1377,5.1377,5.1377,5.1377,5.0625,5.0262,5.0156,4.9363,4.8972,4.8952,4.8913,4.8652,4.832,4.8281,4.8262,4.8223,4.7851,4.7891,4.8164,4.7832,4.7676,4.7637,4.7637,4.7637,4.75,4.6641,4.6113,4.5918,4.6699,4.6406,4.5781,4.5781,4.5379,4.4919,4.4896,4.4772,4.4605,4.4562,4.4296,4.343,4.1334,3.9187,3.7148,3.5258,3.3317,3.1959,3.1929,3.1929,3.1915,3.1885,3.1885,3.2002,3.2324,3.2632,3.2939,3.3201,3.3508,3.3698,3.3727,3.3757,3.3659,3.35,3.3286,3.3047,3.2859,3.2447,3.2425,3.2959,3.2768,3.2902,3.34,3.312,3.2973,3.2986,3.328,3.34,3.3374,3.34,3.3267,3.3026,3.3293,3.3253,3.304,3.3307,3.3414,3.3414,3.3414,3.3414,3.3414,3.3414,3.3414,3.3414,5.3972,5.3972,5.3972,5.3972,5.4316,5.4609,5.4785,5.5098,5.5488,5.6015,5.6074,5.6211,5.6543,5.6269,5.5898,5.5488,5.4336,5.3586,5.3292,5.2598,5.2129,5.1953,5.1621,5.1377,5.1377,5.1377,5.1377,5.1377,5.0918,5.0508,5.0176,4.9629,4.9375,4.9375,4.907,4.9004,4.9219,4.8867,4.8757,4.8757,4.8659,4.8437,4.8242,4.8522,4.8405,4.8066,4.8066,4.8066,4.7949,4.709,4.6694,4.6699,4.6831,4.6753,4.666,4.666,4.5484,4.4234,4.4145,4.2836,4.1469,4.138,4.1081,4.0667,3.9914,3.8227,3.6253,3.4382,3.3619,3.3187,3.2938,3.288,3.2851,3.2602,3.2559,3.2676,3.2953,3.3055,3.3216,3.3537,3.364,3.3786,3.4095,3.3958,3.3697,3.33,3.3074,3.2757,3.2283,3.2581,3.2853,3.2973,3.2919,3.3053,3.3414,3.312,3.2973,3.2986,3.328,3.3293,3.308,3.3307,3.3374,3.332,3.3387,3.3374,3.332,3.3387,3.3414,3.3414,3.3414,3.3414,3.3414,3.3414,3.3414,3.3414,5.3972,5.4199,5.4336,5.4336,5.4687,5.5039,5.5254,5.5293,5.5449,5.5826,5.5709,5.5723,5.5957,5.5781,5.5469,5.5039,5.4199,5.3594,5.3429,5.2999,5.2598,5.2383,5.2168,5.1953,5.1738,5.1738,5.1641,5.1377,5.1016,5.0683,5.0469,5.0039,4.9844,4.9824,4.9375,4.9316,4.9445,4.9043,4.8913,4.8913,4.8913,4.8776,4.8535,4.8815,4.8757,4.8516,4.8516,4.8379,4.8164,4.793,4.7578,4.7305,4.7715,4.6864,4.5792,4.6045,4.4526,4.2792,4.2764,4.1872,4.0983,4.0891,4.0067,3.9043,3.8212,3.7258,3.5975,3.4078,3.3684,3.364,3.3464,3.3435,3.3377,3.3261,3.3232,3.3349,3.3611,3.3669,3.3786,3.4154,3.4197,3.4236,3.4276,3.4107,3.3746,3.3116,3.3106,3.2885,3.2367,3.2781,3.304,3.3187,3.3187,3.3253,3.3414,3.3253,3.3187,3.3187,3.3334,3.3334,3.3187,3.3347,3.3414,3.3414,3.3414,3.3414,3.3414,3.3414,3.3414,3.3414,3.3414,3.3414,3.3414,3.3414,3.3414,3.3414,5.3972,5.4375,5.4687,5.4687,5.498,5.5312,5.5664,5.5351,5.5234,5.5664,5.541,5.5234,5.5293,5.5254,5.5039,5.4609,5.4238,5.3867,5.3496,5.3449,5.3253,5.2832,5.2754,5.2519,5.209,5.209,5.1875,5.1377,5.1016,5.0801,5.0801,5.0371,5.0215,5.0273,4.9766,4.9523,4.9609,4.9128,4.8913,4.8913,4.8913,4.8913,4.8913,4.8913,4.8913,4.8913,4.8913,4.8679,4.8359,4.8698,4.8079,4.7295,4.8037,4.637,4.4149,4.4585,4.2982,4.1106,4.1059,4.0792,4.0524,4.0574,3.9334,3.7774,3.6631,3.6318,3.5833,3.4284,3.3978,3.3963,3.3859,3.3934,3.3978,3.3978,3.3978,3.4095,3.4417,3.4417,3.4505,3.4827,3.4776,3.4689,3.4522,3.4154,3.3713,3.3017,3.3118,3.31,3.2674,3.2942,3.316,3.34,3.3414,3.3414,3.3414,3.3414,3.3414,3.3414,3.3414,3.3414,3.3414,3.3414,3.3414,3.3414,3.3414,3.3414,3.3414,3.3414,3.3414,3.3414,3.3414,3.3414,3.3414,3.3414,3.3414,3.3414,5.3972,5.4375,5.4687,5.4687,5.4726,5.4785,5.4844,5.4473,5.4355,5.4785,5.4805,5.4902,5.5273,5.498,5.459,5.416,5.4011,5.4004,5.3945,5.3574,5.339,5.3331,5.291,5.2519,5.209,5.209,5.1875,5.1377,5.1016,5.0801,5.0801,5.0371,5.0371,5.0683,4.9883,4.9746,5.0039,4.9246,4.8913,4.8913,4.8913,4.8913,4.8913,4.8913,4.8913,4.8913,4.8913,4.8874,4.8776,4.8398,4.7041,4.5566,4.5659,4.421,4.2437,4.2489,4.1102,3.9499,3.9356,3.7923,3.6555,3.6792,3.6464,3.6019,3.5842,3.5575,3.5288,3.5053,3.502,3.4932,3.4622,3.4783,3.502,3.502,3.502,3.5123,3.5445,3.5255,3.5196,3.5518,3.5179,3.4857,3.4851,3.3976,3.3346,3.3256,3.3138,3.3018,3.2969,3.32,3.3374,3.3414,3.3414,3.3414,3.3414,3.3414,3.3414,3.3414,3.3414,3.3414,3.3414,3.3414,3.3414,3.3414,3.3414,3.3414,3.3414,3.3414,3.3414,3.3414,3.3414,3.3414,3.3414,3.3414,3.3414,3.3414,5.4336,5.4746,5.5039,5.5039,5.5234,5.5293,5.5058,5.4668,5.4473,5.4648,5.4473,5.4394,5.457,5.4433,5.4238,5.3992,5.3972,5.3972,5.3972,5.3848,5.373,5.373,5.3555,5.3125,5.2441,5.2441,5.2109,5.1377,5.125,5.1152,5.1152,5.0957,5.0859,5.0781,5.0156,4.9863,4.9766,4.9167,4.8913,4.8913,4.8913,4.8913,4.8913,4.8913,4.8913,4.8913,4.8913,4.8134,4.7148,4.6913,4.5517,4.3809,4.3809,4.2389,4.0782,4.0782,3.9354,3.7718,3.7684,3.696,3.6217,3.6348,3.629,3.6173,3.6173,3.5924,3.5646,3.5518,3.5474,3.543,3.5299,3.5386,3.5474,3.5474,3.5474,3.5533,3.5665,3.5562,3.5437,3.528,3.4921,3.4548,3.4269,3.3721,3.3305,3.3143,3.3202,3.3146,3.2986,3.3253,3.3414,3.3414,3.3414,3.3414,3.3414,3.3414,3.3414,3.3414,3.3414,3.3414,3.3414,3.3414,3.3414,3.3414,3.3414,3.3414,3.3414,3.3414,3.3414,3.3414,3.3414,3.3414,3.3414,3.3414,3.3414,3.3414]},{"header":{"parameterUnit":"m.s-1","parameterCategory":1,"la1":30.6,"la2":28.766,"lo1":-90.7593,"lo2":-88.6598,"dy":0.0162,"dx":0.0183,"nx":116,"ny":114,"refTime":"2023-11-11T06:00:00:Z","depth":0,"parameterNumber":3,"parameterNumberName":"V-component_of_WINDS"},"data":[0.0,0.0,0.0,0.0,0.0,0.0,0.0,0.0,0.0,0.0,0.0,0.0,0.0,0.0,0.0,0.0,0.0,0.0,0.0,0.0,0.0,0.0,0.0,0.0,0.0,0.0,0.0,0.0,0.0,0.0,0.0,0.0,0.0,0.0,0.0,0.0,0.0,0.0,0.0,0.0,0.0,0.0,0.0,0.0,0.0,0.0,0.0,0.0,0.0,0.0,0.0,0.0,0.0,0.0,0.0,0.0,0.0,0.0,0.0,0.0,0.0,0.0,0.0,0.0,0.0,0.0,0.0,0.0,0.0,0.0,0.0,0.0,0.0,0.0,0.0,0.0,0.0,0.0,0.0,0.0,0.0,0.0,0.0,0.0,0.0,0.0,0.0,0.0,0.0,0.0,0.0,0.0,0.0,0.0,0.0,0.0,0.0,0.0,0.0,0.0,0.0,0.0,0.0,0.0,0.0,0.0,0.0,0.0,0.0,0.0,0.0,0.0,0.0,0.0,0.0,0.0,0.0,0.0,0.0,0.0,0.0,0.0,0.0,0.0,0.0,0.0,0.0,0.0,0.0,0.0,0.0,0.0,0.0,0.0,0.0,0.0,0.0,0.0,0.0,0.0,0.0,0.0,0.0,0.0,0.0,0.0,0.0,0.0,0.0,0.0,0.0,0.0,0.0,0.0,0.0,0.0,0.0,0.0,0.0,0.0,0.0,0.0,0.0,0.0,0.0,0.0,0.0,0.0,0.0,0.0,0.0,0.0,0.0,0.0,0.0,0.0,0.0,0.0,0.0,0.0,0.0,0.0,0.0,0.0,0.0,0.0,0.0,0.0,0.0,0.0,0.0,0.0,0.0,0.0,0.0,0.0,0.0,0.0,0.0,0.0,0.0,0.0,0.0,0.0,0.0,0.0,0.0,0.0,0.0,0.0,0.0,0.0,0.0,0.0,0.0,0.0,0.0,0.0,0.0,0.0,0.0,0.0,0.0,0.0,0.0,0.0,0.0,0.0,0.0,0.0,0.0,0.0,0.0,0.0,0.0,0.0,0.0,0.0,0.0,0.0,0.0,0.0,0.0,0.0,0.0,0.0,0.0,0.0,0.0,0.0,0.0,0.0,0.0,0.0,0.0,0.0,0.0,0.0,0.0,0.0,0.0,0.0,0.0,0.0,0.0,0.0,0.0,0.0,0.0,0.0,0.0,0.0,0.0,0.0,0.0,0.0,0.0,0.0,0.0,0.0,0.0,0.0,0.0,0.0,0.0,0.0,0.0,0.0,0.0,0.0,0.0,0.0,0.0,0.0,0.0,0.0,0.0,0.0,0.0,0.0,0.0,0.0,0.0,0.0,0.0,0.0,0.0,0.0,0.0,0.0,0.0,0.0,0.0,0.0,0.0,0.0,0.0,0.0,0.0,0.0,0.0,0.0,0.0,0.0,0.0,0.0,0.0,0.0,0.0,0.0,0.0,0.0,0.0,0.0,0.0,0.0,0.0,0.0,0.0,0.0,0.0,0.0,0.0,0.0,0.0,0.0,0.0,0.0,0.0,0.0,0.0,0.0,0.0,0.0,0.0,0.0,0.0,0.0,0.0,0.0,0.0,0.0,0.0,0.0,0.0,0.0,0.0,0.0,0.0,0.0,0.0,0.0,0.0,0.0,0.0,0.0,0.0,0.0,0.0,0.0,0.0,0.0,0.0,0.0,0.0,0.0,0.0,0.0,0.0,0.0,0.0,0.0,0.0,0.0,0.0,0.0,0.0,0.0,0.0,0.0,0.0,0.0,0.0,0.0,0.0,0.0,0.0,0.0,0.0,0.0,0.0,0.0,0.0,0.0,0.0,0.0,0.0,0.0,0.0,0.0,0.0,0.0,0.0,0.0,0.0,0.0,0.0,0.0,0.0,0.0,0.0,0.0,0.0,0.0,0.0,0.0,0.0,0.0,0.0,0.0,0.0,0.0,0.0,0.0,0.0,0.0,0.0,0.0,0.0,0.0,0.0,0.0,0.0,0.0,0.0,0.0,0.0,0.0,0.0,0.0,0.0,0.0,0.0,0.0,0.0,0.0,0.0,0.0,0.0,0.0,0.0,0.0,0.0,0.0,0.0,0.0,0.0,0.0,0.0,0.0,0.0,0.0,0.0,0.0,0.0,0.0,0.0,0.0,0.0,0.0,0.0,0.0,0.0,0.0,0.0,0.0,0.0,0.0,0.0,0.0,0.0,0.0,0.0,0.0,0.0,0.0,0.0,0.0,0.0,0.0,0.0,0.0,0.0,0.0,0.0,0.0,0.0,0.0,0.0,0.0,0.0,0.0,0.0,0.0,0.0,0.0,0.0,0.0,0.0,0.0,0.0,0.0,0.0,0.0,0.0,0.0,0.0,0.0,0.0,0.0,0.0,0.0,0.0,0.0,0.0,0.0,0.0,0.0,0.0,0.0,0.0,0.0,0.0,0.0,0.0,0.0,0.0,0.0,0.0,0.0,0.0,0.0,0.0,0.0,0.0,0.0,0.0,0.0,0.0,0.0,0.0,0.0,0.0,0.0,0.0,0.0,0.0,0.0,0.0,0.0,0.0,0.0,0.0,0.0,0.0,0.0,0.0,0.0,0.0,0.0,0.0,0.0,0.0,0.0,0.0,0.0,0.0,0.0,0.0,0.0,0.0,0.0,0.0,0.0,0.0,0.0,0.0,0.0,0.0,0.0,0.0,0.0,0.0,0.0,0.0,0.0,0.0,0.0,0.0,0.0,0.0,0.0,0.0,0.0,0.0,0.0,0.0,0.0,0.0,0.0,0.0,0.0,0.0,0.0,0.0,0.0,0.0,0.0,0.0,0.0,0.0,0.0,0.0,0.0,0.0,0.0,0.0,0.0,0.0,0.0,0.0,0.0,0.0,0.0,0.0,0.0,0.0,0.0,0.0,0.0,0.0,0.0,0.0,0.0,0.0,0.0,0.0,0.0,0.0,0.0,0.0,0.0,0.0,0.0,0.0,0.0,0.0,0.0,0.0,0.0,0.0,0.0,0.0,0.0,0.0,0.0,0.0,0.0,0.0,0.0,0.0,0.0,0.0,0.0,0.0,0.0,0.0,0.0,0.0,0.0,0.0,0.0,0.0,0.0,0.0,0.0,0.0,0.0,0.0,0.0,0.0,0.0,0.0,0.0,0.0,0.0,0.0,0.0,0.0,0.0,0.0,0.0,0.0,0.0,0.0,0.0,0.0,0.0,0.0,0.0,0.0,0.0,0.0,0.0,0.0,0.0,0.0,0.0,0.0,0.0,0.0,0.0,0.0,0.0,0.0,0.0,0.0,0.0,0.0,0.0,0.0,0.0,0.0,0.0,0.0,0.0,0.0,0.0,0.0,0.0,0.0,0.0,0.0,0.0,0.0,0.0,0.0,0.0,0.0,0.0,0.0,0.0,0.0,0.0,0.0,0.0,0.0,0.0,0.0,0.0,0.0,0.0,0.0,0.0,0.0,0.0,0.0,0.0,0.0,0.0,0.0,0.0,0.0,0.0,0.0,0.0,0.0,0.0,0.0,0.0,0.0,0.0,0.0,0.0,0.0,0.0,0.0,0.0,0.0,0.0,0.0,0.0,0.0,0.0,0.0,0.0,0.0,0.0,0.0,0.0,0.0,0.0,0.0,0.0,0.0,0.0,0.0,0.0,0.0,0.0,0.0,0.0,0.0,0.0,0.0,0.0,0.0,0.0,0.0,0.0,0.0,0.0,0.0,0.0,0.0,0.0,0.0,0.0,0.0,0.0,0.0,0.0,0.0,0.0,0.0,0.0,0.0,0.0,0.0,0.0,0.0,0.0,0.0,0.0,0.0,0.0,0.0,0.0,0.0,0.0,0.0,0.0,0.0,0.0,0.0,0.0,0.0,0.0,0.0,0.0,0.0,0.0,0.0,0.0,0.0,0.0,0.0,0.0,0.0,0.0,0.0,0.0,0.0,0.0,0.0,0.0,0.0,0.0,0.0,0.0,0.0,0.0,0.0,0.0,0.0,0.0,0.0,0.0,0.0,0.0,0.0,0.0,0.0,0.0,0.0,0.0,0.0,0.0,0.0,0.0,0.0,0.0,0.0,0.0,0.0,0.0,0.0,0.0,0.0,0.0,0.0,0.0,0.0,0.0,0.0,0.0,0.0,0.0,0.0,0.0,0.0,0.0,0.0,0.0,0.0,0.0,0.0,0.0,0.0,0.0,0.0,0.0,0.0,0.0,0.0,0.0,0.0,0.0,0.0,0.0,0.0,0.0,0.0,0.0,0.0,0.0,0.0,0.0,0.0,0.0,0.0,0.0,0.0,0.0,0.0,0.0,0.0,0.0,0.0,0.0,0.0,0.0,0.0,0.0,0.0,0.0,0.0,0.0,0.0,0.0,0.0,0.0,0.0,0.0,0.0,0.0,0.0,0.0,0.0,0.0,0.0,0.0,0.0,0.0,0.0,0.0,0.0,0.0,0.0,0.0,0.0,0.0,0.0,0.0,0.0,0.0,0.0,0.0,0.0,0.0,0.0,0.0,0.0,0.0,0.0,0.0,0.0,0.0,0.0,0.0,0.0,0.0,0.0,0.0,0.0,0.0,0.0,0.0,0.0,0.0,0.0,0.0,0.0,0.0,0.0,0.0,0.0,0.0,0.0,0.0,0.0,0.0,0.0,0.0,0.0,0.0,0.0,0.0,0.0,0.0,0.0,0.0,0.0,0.0,0.0,0.0,0.0,0.0,0.0,0.0,0.0,0.0,0.0,0.0,0.0,0.0,0.0,0.0,0.0,0.0,0.0,0.0,0.0,0.0,0.0,0.0,0.0,0.0,0.0,0.0,0.0,0.0,0.0,0.0,0.0,0.0,0.0,0.0,0.0,0.0,0.0,0.0,0.0,0.0,0.0,0.0,0.0,0.0,0.0,0.0,0.0,0.0,0.0,0.0,0.0,0.0,0.0,0.0,0.0,0.0,0.0,0.0,0.0,0.0,0.0,0.0,0.0,0.0,0.0,0.0,0.0,0.0,0.0,0.0,0.0,0.0,0.0,0.0,0.0,0.0,0.0,0.0,0.0,0.0,0.0,0.0,0.0,0.0,0.0,0.0,0.0,0.0,0.0,0.0,0.0,0.0,0.0,0.0,0.0,0.0,0.0,0.0,0.0,0.0,0.0,0.0,0.0,0.0,0.0,0.0,0.0,0.0,0.0,0.0,0.0,0.0,0.0,0.0,0.0,0.0,0.0,0.0,0.0,0.0,0.0,0.0,0.0,0.0,0.0,0.0,0.0,0.0,0.0,0.0,0.0,0.0,0.0,0.0,0.0,0.0,0.0,0.0,0.0,0.0,0.0,0.0,0.0,0.0,0.0,0.0,0.0,0.0,0.0,0.0,0.0,0.0,0.0,0.0,0.0,0.0,0.0,0.0,0.0,0.0,0.0,0.0,0.0,0.0,0.0,0.0,0.0,0.0,0.0,0.0,0.0,0.0,0.0,0.0,0.0,0.0,0.0,0.0,0.0,0.0,0.0,0.0,0.0,0.0,0.0,0.0,0.0,0.0,0.0,0.0,0.0,0.0,0.0,0.0,0.0,0.0,0.0,0.0,0.0,0.0,0.0,0.0,0.0,0.0,0.0,0.0,0.0,0.0,0.0,0.0,0.0,0.0,0.0,0.0,0.0,0.0,0.0,0.0,0.0,0.0,0.0,0.0,0.0,0.0,0.0,0.0,0.0,0.0,0.0,0.0,0.0,0.0,0.0,0.0,0.0,0.0,0.0,0.0,0.0,0.0,0.0,0.0,0.0,0.0,0.0,0.0,0.0,0.0,0.0,0.0,0.0,0.0,0.0,0.0,0.0,0.0,0.0,0.0,0.0,0.0,0.0,0.0,0.0,0.0,0.0,0.0,0.0,0.0,0.0,0.0,0.0,0.0,0.0,0.0,0.0,0.0,0.0,0.0,0.0,0.0,0.0,0.0,0.0,0.0,0.0,0.0,0.0,0.0,0.0,0.0,0.0,0.0,0.0,0.0,0.0,0.0,0.0,0.0,0.0,0.0,0.0,0.0,0.0,0.0,0.0,0.0,0.0,0.0,0.0,0.0,0.0,0.0,0.0,0.0,0.0,0.0,3.5759,0.0,0.0,0.0,0.0,0.0,0.0,0.0,0.0,0.0,0.0,0.0,0.0,0.0,0.0,0.0,0.0,0.0,0.0,0.0,0.0,0.0,0.0,0.0,0.0,0.0,0.0,0.0,0.0,0.0,0.0,0.0,0.0,0.0,0.0,0.0,0.0,0.0,0.0,0.0,3.5519,3.5818,3.6417,3.6746,3.6387,3.5519,0.0,0.0,0.0,0.0,0.0,0.0,0.0,0.0,0.0,0.0,0.0,0.0,0.0,0.0,0.0,0.0,0.0,0.0,0.0,0.0,0.0,0.0,0.0,0.0,0.0,0.0,0.0,0.0,0.0,0.0,0.0,0.0,0.0,0.0,0.0,0.0,0.0,0.0,0.0,0.0,0.0,0.0,0.0,0.0,0.0,0.0,0.0,0.0,0.0,0.0,0.0,0.0,0.0,0.0,0.0,0.0,0.0,0.0,0.0,0.0,0.0,0.0,0.0,0.0,0.0,0.0,0.0,0.0,0.0,0.0,0.0,3.7973,0.0,0.0,0.0,0.0,0.0,0.0,0.0,0.0,0.0,0.0,0.0,0.0,0.0,0.0,0.0,0.0,0.0,0.0,0.0,0.0,0.0,0.0,0.0,0.0,0.0,0.0,0.0,0.0,0.0,0.0,0.0,0.0,0.0,0.0,0.0,3.5519,3.5519,3.5519,3.5968,3.6939,3.8434,3.911,3.8631,3.7165,3.6357,0.0,0.0,0.0,0.0,0.0,0.0,0.0,0.0,0.0,0.0,0.0,0.0,0.0,0.0,0.0,0.0,0.0,0.0,0.0,0.0,0.0,0.0,0.0,0.0,0.0,0.0,0.0,0.0,0.0,0.0,0.0,0.0,0.0,0.0,0.0,0.0,0.0,0.0,0.0,0.0,0.0,0.0,0.0,0.0,0.0,0.0,0.0,0.0,0.0,0.0,0.0,0.0,0.0,0.0,0.0,0.0,0.0,0.0,0.0,0.0,0.0,0.0,0.0,4.5523,4.6749,4.8177,4.8267,4.8686,4.9105,4.5415,4.2521,4.0378,3.993,0.0,0.0,0.0,0.0,0.0,0.0,0.0,0.0,0.0,0.0,0.0,0.0,0.0,0.0,0.0,0.0,0.0,0.0,0.0,0.0,0.0,3.5519,3.5519,3.5519,3.5519,3.5519,0.0,0.0,0.0,0.0,0.0,0.0,3.5519,3.5519,3.5519,3.5519,3.7776,4.0139,4.2562,4.322,4.3718,4.3838,3.9798,3.9308,4.1272,0.0,0.0,0.0,0.0,0.0,0.0,0.0,0.0,0.0,0.0,0.0,0.0,0.0,0.0,0.0,0.0,0.0,0.0,0.0,0.0,0.0,0.0,0.0,0.0,0.0,0.0,0.0,0.0,0.0,0.0,0.0,0.0,0.0,0.0,0.0,0.0,0.0,0.0,0.0,0.0,0.0,3.7704,3.7225,0.0,0.0,0.0,0.0,0.0,0.0,0.0,0.0,0.0,0.0,0.0,0.0,0.0,4.5095,4.6852,4.9374,5.0189,4.9299,5.1744,5.2426,5.1588,5.2181,5.2785,5.3414,5.3384,0.0,4.4347,4.2092,0.0,0.0,0.0,0.0,0.0,0.0,0.0,0.0,0.0,0.0,0.0,0.0,0.0,0.0,0.0,0.0,0.0,0.0,0.0,0.0,0.0,3.6477,3.6985,3.658,3.896,3.9331,3.6746,0.0,0.0,0.0,0.0,3.5519,3.5519,3.5519,3.6417,3.8242,4.1634,4.4237,4.6142,4.7138,4.7975,4.8506,4.5744,4.3738,4.2231,3.9757,0.0,0.0,0.0,0.0,0.0,0.0,0.0,0.0,0.0,0.0,0.0,0.0,0.0,0.0,0.0,0.0,0.0,0.0,0.0,0.0,0.0,0.0,0.0,0.0,0.0,0.0,0.0,0.0,0.0,0.0,0.0,0.0,0.0,0.0,0.0,0.0,0.0,0.0,0.0,3.8601,3.9409,3.7597,3.899,3.899,0.0,0.0,0.0,0.0,0.0,0.0,0.0,0.0,0.0,4.6082,4.8117,4.9434,4.9912,5.2935,5.4521,5.4675,5.6585,5.7782,5.8321,5.8231,5.856,5.9159,5.871,5.6436,5.2665,4.784,4.4217,4.1534,0.0,0.0,0.0,0.0,4.0317,4.1668,0.0,0.0,0.0,0.0,0.0,0.0,0.0,0.0,0.0,0.0,0.0,0.0,3.6178,3.7973,3.917,3.917,4.2192,4.2651,3.9379,3.9918,0.0,0.0,3.5759,3.5519,3.5519,3.6477,3.8691,4.2162,4.5942,4.8686,5.0354,5.1624,5.2492,5.2911,5.1821,4.8917,4.4726,4.2222,4.0397,3.9002,0.0,0.0,0.0,0.0,0.0,0.0,0.0,0.0,0.0,0.0,0.0,0.0,0.0,0.0,0.0,0.0,0.0,0.0,0.0,0.0,0.0,0.0,0.0,0.0,0.0,0.0,0.0,0.0,0.0,0.0,0.0,0.0,0.0,0.0,0.0,0.0,0.0,4.0487,4.1343,3.8512,4.1134,4.1403,0.0,0.0,0.0,0.0,0.0,0.0,4.5433,4.7168,4.8985,5.099,5.3443,5.473,5.4735,5.7363,5.9189,6.0119,6.0954,6.2121,6.3558,6.3079,6.3019,6.3287,6.2271,6.1014,5.9159,5.3258,4.9104,4.628,4.4306,4.3643,4.38,4.4289,4.5426,4.6891,0.0,0.0,0.0,0.0,0.0,0.0,0.0,0.0,0.0,0.0,0.0,3.6207,3.805,4.0056,4.1972,4.3788,4.3629,4.3599,4.3938,3.996,3.7793,3.823,3.6477,3.5519,3.5519,3.917,4.3,4.695,5.0272,5.3234,5.5833,5.7124,5.7726,5.7726,5.7034,5.485,5.1319,4.5583,4.3459,4.3549,3.914,0.0,0.0,0.0,0.0,0.0,0.0,0.0,0.0,0.0,0.0,0.0,0.0,0.0,0.0,0.0,0.0,0.0,0.0,0.0,0.0,0.0,0.0,0.0,0.0,0.0,0.0,0.0,0.0,0.0,0.0,0.0,0.0,0.0,0.0,0.0,0.0,0.0,0.0,4.0636,4.4796,0.0,0.0,0.0,0.0,4.4796,4.6142,4.8327,5.1588,5.2426,5.461,5.8441,6.0535,6.248,6.4276,6.5084,6.5533,6.5592,6.5024,6.4815,6.4904,6.4874,6.4516,6.3947,6.3887,6.278,6.0657,5.6585,5.3916,5.2176,5.0223,4.9721,5.0026,5.009,5.0912,5.2021,0.0,0.0,0.0,0.0,0.0,0.0,0.0,0.0,0.0,3.5011,3.6447,3.829,4.0715,4.3888,4.6621,4.8574,4.9733,4.9374,4.701,4.3718,4.1384,4.0385,3.8003,3.7943,4.0516,4.318,4.6501,5.0451,5.4192,5.6496,5.7453,5.9219,5.9817,5.9368,5.868,5.7513,5.5632,5.0099,4.6659,4.4616,4.0846,3.8542,0.0,0.0,0.0,0.0,0.0,0.0,0.0,0.0,0.0,0.0,0.0,0.0,0.0,0.0,0.0,0.0,0.0,0.0,0.0,0.0,0.0,0.0,0.0,0.0,0.0,0.0,0.0,0.0,0.0,0.0,0.0,0.0,0.0,0.0,0.0,0.0,0.0,4.6809,5.0661,0.0,4.6809,4.7228,4.8484,5.0265,5.2031,5.4461,5.7752,5.9757,6.1642,6.3498,6.5503,6.646,6.6281,6.7388,6.7717,6.7299,6.8304,6.8817,6.8817,6.872,6.8536,6.8285,6.7355,6.6579,6.5798,6.3898,6.0575,5.6593,5.5763,5.552,5.5708,5.6111,5.7257,5.8486,0.0,0.0,0.0,0.0,0.0,0.0,0.0,0.0,3.4158,3.504,3.7644,4.0415,4.308,4.751,5.1169,5.3329,5.3927,5.2995,5.0145,4.5783,4.2641,4.1134,3.9349,4.0277,4.4287,4.7189,5.0451,5.4192,5.7696,5.9458,5.9461,6.1044,6.1403,6.0745,6.0296,5.9608,5.853,5.4556,5.0578,4.6681,4.3389,4.1654,4.0576,0.0,0.0,0.0,0.0,0.0,0.0,0.0,0.0,0.0,0.0,0.0,0.0,0.0,0.0,0.0,0.0,0.0,0.0,0.0,0.0,0.0,0.0,0.0,0.0,0.0,0.0,0.0,0.0,0.0,0.0,0.0,0.0,0.0,0.0,4.8438,5.1702,5.1864,5.5807,5.6881,5.2611,5.3419,5.497,5.6705,5.8707,6.1102,6.3947,6.5772,6.7183,6.8303,6.9196,6.9404,6.8999,6.9603,6.9724,6.9301,7.0826,7.1547,7.1514,7.12,7.0901,7.0616,6.9445,6.8658,6.8237,6.8389,6.5865,6.1889,6.1528,6.1436,6.162,6.2068,6.2991,6.3941,0.0,0.0,0.0,0.0,0.0,0.0,0.0,3.4039,3.4503,3.4578,3.8619,4.2511,4.5185,5.078,5.5363,5.8025,5.5782,5.3952,5.3288,4.5804,4.1134,4.0487,4.0546,4.2491,4.648,5.099,5.491,5.8175,6.0835,6.2091,6.2091,6.2778,6.2748,6.2091,6.2091,6.1373,6.0084,5.8743,5.5214,5.0219,4.683,4.5813,4.5762,0.0,0.0,0.0,0.0,0.0,0.0,0.0,0.0,0.0,0.0,0.0,0.0,0.0,0.0,0.0,0.0,0.0,0.0,0.0,0.0,0.0,0.0,0.0,0.0,0.0,0.0,0.0,0.0,0.0,0.0,0.0,0.0,0.0,4.7279,5.263,5.6162,5.5628,6.0174,6.1551,5.706,6.0114,6.2869,6.4126,6.6041,6.8016,6.9993,7.0145,7.1023,7.2891,7.1756,7.1724,7.2984,7.2275,7.1905,7.1875,7.2596,7.2918,7.2918,7.2192,7.1523,7.0822,7.0101,6.8993,6.7864,6.9672,6.9534,6.8147,6.7416,6.7343,6.7655,6.7655,6.7839,6.7979,0.0,0.0,0.0,0.0,0.0,0.0,0.0,3.3664,3.4442,3.6357,4.0636,4.5065,4.9112,5.4047,5.8321,6.1433,5.7543,5.464,5.3982,4.6052,4.1523,4.1822,4.3658,4.7198,5.2636,5.4486,5.6974,6.0268,6.1493,6.1852,6.1403,6.254,6.2748,6.2091,6.2091,6.1882,6.1493,6.0655,5.9159,5.6885,5.1146,4.8125,4.6629,0.0,0.0,0.0,0.0,0.0,0.0,0.0,0.0,0.0,0.0,0.0,0.0,0.0,0.0,0.0,0.0,0.0,0.0,0.0,0.0,0.0,0.0,0.0,0.0,0.0,0.0,0.0,0.0,0.0,0.0,0.0,4.8716,5.2396,5.2935,5.6915,6.0745,6.3438,6.6341,6.7628,6.6341,6.7209,6.8136,6.8944,6.9961,7.1009,7.2056,7.3493,7.4296,7.437,7.5402,7.5651,7.5016,7.4796,7.4421,7.3919,7.5052,7.5555,7.5584,7.5739,7.5427,7.4733,7.4045,7.3194,7.2361,7.2546,7.206,7.1118,7.0164,6.9688,6.9483,6.9483,6.9313,6.9074,0.0,0.0,0.0,0.0,0.0,0.0,0.0,3.3739,3.4757,3.7088,4.2402,4.7309,5.0817,5.6081,5.9909,6.1283,5.7334,5.3803,5.1468,4.5355,4.2361,4.3559,4.692,5.105,5.5867,5.7483,5.9458,6.1942,6.2331,6.245,6.2331,6.3109,6.3408,6.3318,6.3318,6.3318,6.3288,6.26,6.2091,6.1343,5.6974,5.4167,5.2247,4.8454,4.71,4.6852,4.4407,4.4047,4.4287,4.1414,0.0,0.0,0.0,0.0,0.0,0.0,0.0,0.0,0.0,0.0,0.0,0.0,0.0,0.0,0.0,0.0,0.0,0.0,0.0,0.0,0.0,0.0,0.0,0.0,5.464,5.8949,6.1433,6.3288,6.5562,6.8675,7.032,7.1448,7.1999,7.2579,7.317,7.3774,7.4728,7.5341,7.5399,7.6513,7.7213,7.7432,7.7743,7.7763,7.7506,7.7219,7.6838,7.6452,7.7406,7.8028,7.8285,7.766,7.7325,7.7126,7.5886,7.4943,7.4339,7.4057,7.3214,0.0,0.0,0.0,0.0,0.0,7.0304,7.0095,0.0,0.0,0.0,0.0,0.0,0.0,0.0,3.4009,3.5176,3.7327,4.3718,4.8805,5.0757,5.6735,6.0146,5.9099,5.5867,5.1983,4.7608,4.4487,4.3888,4.6202,5.0511,5.4401,5.7693,6.0266,6.2121,6.3317,6.3317,6.3588,6.4126,6.4126,6.4455,6.4994,6.4994,6.5083,6.5172,6.4571,6.4389,6.4414,6.3156,6.1573,5.9485,5.467,5.3832,5.4725,5.1043,4.8409,4.6381,4.4745,0.0,0.0,0.0,0.0,0.0,0.0,0.0,0.0,0.0,0.0,0.0,0.0,0.0,0.0,0.0,0.0,0.0,0.0,0.0,0.0,0.0,0.0,0.0,0.0,6.0715,6.4993,7.0755,7.0667,7.0637,7.2259,7.313,7.4084,7.5359,7.6663,7.7674,7.8216,7.9416,7.9827,7.9068,7.9162,0.0,0.0,0.0,7.8997,8.012,7.9469,7.9083,7.9014,7.9507,8.0067,8.0631,7.8577,7.7954,7.8384,7.6317,7.517,7.4706,7.4614,7.3451,7.1771,7.1647,7.1165,7.0561,7.0848,7.0939,7.0984,0.0,0.0,0.0,0.0,0.0,0.0,0.0,3.3604,3.4981,3.8554,4.3489,4.7459,4.9456,5.4156,5.7453,5.8205,5.4286,5.0488,4.7519,4.6181,4.7638,5.2276,5.5333,5.853,6.188,6.3468,6.4366,6.4605,6.4605,6.4665,6.4815,6.4815,6.4874,6.4994,6.4994,6.5556,6.6451,6.6329,6.6832,6.7606,6.6386,6.3232,5.9129,5.7547,5.6226,5.4965,5.3109,5.3468,5.4281,5.0817,4.968,4.9134,4.5822,4.2851,0.0,0.0,0.0,0.0,0.0,0.0,0.0,0.0,0.0,0.0,0.0,0.0,0.0,0.0,0.0,0.0,0.0,0.0,0.0,6.1102,6.5622,7.0197,7.5116,7.6075,7.6196,7.5946,7.7051,7.8138,7.8942,7.9825,8.0362,8.046,8.0744,8.0586,7.9827,8.0793,8.1238,8.0898,8.1563,8.1787,8.1421,8.1289,8.0893,8.0332,0.0,0.0,8.0664,7.9643,7.8914,7.8444,7.703,7.6028,7.5339,7.4582,7.3474,7.2167,7.1354,7.0982,7.0848,7.1098,7.1222,7.1244,0.0,0.0,0.0,0.0,0.0,0.0,0.0,3.3484,3.4681,3.7956,4.2442,4.5672,4.6681,5.0631,5.2785,5.1798,4.8386,4.6441,4.6779,4.8334,5.1618,5.6915,5.9668,6.2301,6.4994,6.5353,6.5982,6.6966,6.6966,6.7472,6.839,6.839,6.8575,6.8914,6.8914,6.9232,6.9808,6.9808,7.0146,7.0651,7.0064,6.8061,6.5186,6.254,6.0717,5.9458,5.8497,5.8112,5.7693,5.5059,5.3503,5.2247,4.9591,4.6741,4.4018,0.0,0.0,0.0,0.0,0.0,0.0,0.0,0.0,0.0,0.0,0.0,0.0,0.0,0.0,4.9763,5.3084,0.0,6.318,6.7784,7.1936,7.5707,7.9085,7.9837,7.9773,7.9086,7.9617,8.0451,8.1437,8.2233,8.2803,8.3065,8.3418,8.3321,8.2578,8.2821,8.2819,8.2458,8.2736,8.2718,8.2353,8.2353,8.2154,8.179,8.1426,8.1426,8.1757,8.0403,7.9793,7.9687,7.7755,7.6826,7.65,7.5013,7.3597,7.2338,7.1852,7.1435,7.1131,7.1244,7.1289,7.1289,0.0,0.0,0.0,0.0,0.0,0.0,0.0,0.0,3.4442,3.7075,4.0995,4.3519,4.3519,4.6719,4.7706,4.4796,4.3559,4.4217,4.7258,5.1409,5.6047,6.1222,6.4088,6.6252,6.7748,6.7729,6.8392,6.9685,6.995,7.087,7.2382,7.2382,7.2699,7.3209,7.3209,7.3353,7.3553,7.3394,7.3505,7.3643,7.3289,7.2822,7.1897,6.7855,6.5645,6.4597,6.3494,6.1283,5.877,5.7812,5.5658,5.3228,5.2276,5.0272,4.7848,4.5693,4.4237,0.0,0.0,0.0,0.0,0.0,0.0,0.0,0.0,4.521,4.7813,4.9269,5.2939,5.693,6.0398,6.5305,7.0241,7.4501,7.7622,8.0238,8.2397,8.2588,8.2461,8.2301,8.2079,8.2363,8.3595,8.4368,8.5021,8.5479,8.6093,8.6026,8.5169,8.454,8.4076,8.3811,8.3215,8.2883,8.2883,8.2883,8.2883,8.2883,8.2343,8.2404,8.2902,8.1119,8.0648,8.1042,7.8399,7.7271,7.7107,7.5344,7.3815,7.2597,7.2462,7.2056,7.1492,7.1357,7.1289,7.1289,0.0,0.0,0.0,0.0,0.0,0.0,0.0,0.0,0.0,3.7075,3.9409,4.0846,4.0846,4.2771,4.3459,4.1972,4.5864,4.9307,5.1409,5.6346,6.1283,6.6011,6.9367,7.0891,7.0472,7.2704,7.3429,7.246,7.3672,7.4356,7.4566,7.4566,7.4568,7.4692,7.4692,7.5275,7.6213,7.5542,7.5896,7.6735,7.5082,7.4346,7.4047,7.1812,6.9483,6.7089,6.4171,6.0984,5.8264,5.874,5.6735,5.4162,5.461,5.3324,5.1139,4.8596,4.5672,4.313,4.2301,4.1792,4.1882,4.3389,4.4377,4.6172,0.0,5.3404,5.5435,5.7385,6.1939,6.6044,6.7693,7.186,7.6029,7.8942,8.0238,8.1793,8.4406,8.4302,8.4637,8.6417,8.5439,8.4962,8.5769,8.6515,8.6971,8.7024,8.7153,8.659,8.5169,8.5037,8.4374,8.3049,8.295,8.2883,8.2883,8.2883,8.2883,8.2883,8.3037,8.3182,8.321,8.1978,8.1471,8.1404,7.874,7.6905,7.5831,7.4975,7.4119,7.3308,7.2665,7.236,7.2191,7.1526,7.1289,7.1289,0.0,0.0,0.0,0.0,0.0,0.0,0.0,0.0,0.0,0.0,3.7674,3.8362,3.7644,3.8255,3.87,3.8493,4.3326,4.8203,5.2507,5.847,6.4416,7.0189,7.2151,7.3509,7.4376,7.5108,7.5736,7.6327,7.6921,7.7532,7.8279,7.8279,7.8279,7.8279,7.8279,7.8565,7.9011,7.8688,7.8865,7.9185,7.7998,7.7511,7.7107,7.3494,7.0362,6.7471,6.3745,6.0688,0.0,5.6732,5.5707,5.4983,5.4695,5.332,5.1417,4.9092,4.652,4.4508,4.4727,4.4519,4.4921,4.7636,5.025,5.2833,5.5407,5.9047,6.2223,6.3469,6.7995,7.2246,7.4005,7.7558,8.0712,8.2227,8.3749,8.5109,8.6219,8.5815,8.537,8.5376,8.5228,8.557,8.673,8.712,8.7319,8.7319,8.7319,8.7054,8.6395,8.5567,8.4838,8.4208,8.3347,8.2968,8.3136,8.3136,8.322,8.3416,8.3526,8.3609,8.3543,8.2342,8.1238,8.008,7.8521,7.7033,7.5676,7.5371,7.4559,7.3466,7.3161,7.2766,7.2326,7.156,7.1289,7.1289,0.0,0.0,0.0,0.0,0.0,0.0,0.0,0.0,0.0,0.0,3.6281,3.6603,3.5838,3.5587,3.583,3.6662,4.1364,4.6698,5.2352,5.9542,6.6326,7.2398,7.45,7.6116,7.7423,7.7702,7.8353,7.94,7.9748,8.0381,8.1293,8.1293,8.1293,8.1293,8.1094,8.1227,8.1558,8.073,8.073,8.1194,7.9841,7.9179,7.8469,7.3561,6.974,6.6461,6.2236,5.8739,5.5795,5.3607,5.2933,5.3074,5.3128,5.217,5.0737,4.9449,4.7313,4.5576,4.6422,4.6986,4.8321,5.2291,5.6289,5.9645,6.1227,6.5439,6.9255,7.0235,7.4339,7.812,7.9267,8.2137,8.4485,8.4977,8.6456,8.7584,8.7584,8.6623,8.5364,8.3877,8.3645,8.4175,8.5662,8.6524,8.7087,8.7286,8.7319,8.7219,8.7021,8.5964,8.5302,8.5103,8.4162,8.3607,8.3604,8.3688,8.3754,8.3802,8.3884,8.3911,8.3844,8.2662,8.1221,7.9667,7.872,7.7536,7.6318,7.6115,7.527,7.4086,7.3883,7.3477,7.2902,7.1954,7.1458,7.1289,0.0,0.0,0.0,0.0,0.0,0.0,0.0,0.0,0.0,0.0,0.0,0.0,0.0,3.5846,3.6068,3.7442,4.168,4.6348,5.1155,5.9921,6.7059,7.1812,7.6892,7.9402,7.8847,8.1362,8.2096,8.0863,8.2157,8.2789,8.2817,8.2817,8.2817,8.2784,8.2088,8.2552,8.3711,8.0835,8.0868,8.2585,7.9676,7.8086,7.6894,7.1828,6.7632,6.3925,5.9428,5.4307,4.9671,4.9497,4.8161,4.7049,4.9662,4.9976,4.9514,5.0298,4.8182,4.5789,4.6734,4.8439,5.135,5.7039,6.1591,6.5689,6.9686,7.3697,7.6961,7.8455,8.1983,8.4405,8.3179,8.5268,8.7193,8.7193,8.7789,8.8283,8.8283,8.6461,8.4606,8.3115,8.1034,8.0338,8.1823,8.4568,8.6524,8.7253,8.7319,8.6987,8.6258,8.6192,8.5861,8.5136,8.5325,8.5097,8.4365,8.4707,8.4511,8.3802,8.4075,8.4211,8.4143,8.2927,8.1968,8.1148,7.9701,7.8619,7.7874,7.7164,7.6386,7.5574,7.4864,7.4536,7.4333,7.2902,7.1921,7.1289,0.0,0.0,0.0,0.0,0.0,0.0,0.0,0.0,0.0,0.0,0.0,0.0,0.0,0.0,0.0,0.0,4.1222,4.5334,5.0523,5.8531,6.5135,6.9727,7.5338,7.8676,7.9337,8.1204,8.2189,8.2223,8.2685,8.2651,8.2188,8.2651,8.2386,8.1459,8.1691,8.179,8.1757,8.0763,8.0763,8.1161,7.8246,7.6894,7.6026,6.9907,6.4763,6.0043,0.0,5.0588,4.7485,4.5921,4.533,4.553,4.6773,4.7081,4.7024,4.729,4.7977,4.9328,5.2441,5.5528,5.9297,6.5315,6.9559,7.2956,7.5604,7.8983,8.1365,8.0528,8.1334,8.191,8.0932,8.1147,8.1956,8.3413,8.507,8.6362,8.6855,8.6693,8.4904,8.0498,8.1061,8.1028,7.9074,8.1558,8.4204,8.6391,8.659,8.6778,8.7153,8.675,8.6438,8.6407,8.602,8.5822,8.5723,8.533,8.5159,8.5114,8.4689,8.421,8.373,8.2795,8.2002,8.1215,7.9735,7.8957,7.8619,7.7401,7.6758,7.6352,7.51,7.4603,7.4468,7.3477,7.2665,7.1954,0.0,0.0,0.0,0.0,0.0,0.0,0.0,0.0,0.0,0.0,0.0,0.0,0.0,0.0,0.0,0.0,0.0,4.3868,4.856,5.5037,6.0802,6.5481,6.9878,7.2981,7.4611,7.5093,7.5897,7.7053,7.7371,7.7802,7.8312,7.9306,7.9432,7.8802,7.9347,7.9718,7.9836,7.8617,7.8219,7.8073,7.4303,7.2183,7.056,6.4211,5.931,0.0,4.9756,4.6749,4.5082,4.3282,4.3267,4.4088,4.4633,4.5627,4.6613,4.6856,4.9406,5.3317,5.8626,6.2324,6.6177,7.2422,7.6465,7.922,8.0713,8.277,8.3809,8.1741,8.0335,7.9074,7.7557,7.6464,7.6755,7.9736,8.1426,8.3248,8.5828,8.5463,8.3612,8.0101,8.0432,8.0233,7.8351,8.0276,8.2659,8.5231,8.5982,8.6625,8.7266,8.7216,8.729,8.7491,8.7103,8.6875,8.6802,8.6172,8.5702,8.5351,8.485,8.4343,8.3862,8.3152,8.2408,8.1629,8.0412,7.96,7.9034,7.8077,7.7536,7.7198,7.6217,7.5811,7.5676,7.4661,7.3984,7.3409,0.0,0.0,0.0,0.0,0.0,0.0,0.0,0.0,0.0,0.0,0.0,0.0,0.0,0.0,0.0,0.0,0.0,0.0,4.5374,4.9883,5.4495,5.9164,6.1342,6.3345,6.5336,6.4224,6.4537,6.6353,6.7241,6.9001,7.1521,7.297,7.3997,7.4627,7.4855,7.5992,7.7517,7.4248,7.3126,7.3161,6.8109,6.4399,6.1339,5.5554,5.1991,4.9574,4.5269,4.3201,4.2454,4.1759,4.209,4.2918,4.3631,4.5865,4.8415,4.9405,5.2815,5.783,6.5048,6.8693,7.1975,7.8323,8.2088,8.4341,8.497,8.5003,8.4275,8.1889,7.9007,7.5967,7.3045,7.1488,7.2084,7.6424,7.7424,7.9703,8.5463,8.3309,8.1326,8.1856,7.9504,7.8378,7.967,8.0798,8.2184,8.4,8.5657,8.6663,8.6792,8.7749,8.8261,8.829,8.8511,8.8283,8.7576,8.7114,8.6102,8.4614,8.4614,8.4614,8.458,8.3828,8.3118,8.2408,8.1629,8.0513,7.9228,7.9135,7.8686,7.8068,7.8034,7.8,7.7831,7.6318,7.5743,7.5371,0.0,0.0,0.0,0.0,0.0,0.0,0.0,0.0,0.0,0.0,0.0,0.0,0.0,0.0,0.0,0.0,0.0,0.0,4.2903,4.7177,5.0375,5.2062,5.7267,6.0385,6.0911,6.222,6.3378,6.4393,6.4636,6.4825,6.4851,6.5769,6.599,6.5547,6.6178,6.6754,6.7231,6.5803,6.5271,6.5094,6.1572,5.9663,5.8456,5.4229,5.128,4.9011,4.6245,4.4408,4.3267,4.3116,4.4607,4.6726,4.7455,4.9359,5.219,5.6717,6.0736,6.5201,7.1969,7.6624,8.0372,8.3683,8.5496,8.6196,8.5302,8.3811,8.1393,7.7046,7.2912,6.888,6.4895,6.6055,6.888,7.2746,7.7947,8.2784,8.649,8.709,8.6262,8.3745,8.3939,8.3781,8.255,8.386,8.5203,8.6249,8.6483,8.7532,8.97,8.932,8.9235,8.9662,8.9235,8.8858,8.8689,8.7494,8.6102,8.4614,8.4614,8.4614,8.458,8.3828,8.3389,8.3152,8.1858,8.1114,8.0648,7.9566,7.8991,7.8754,7.8213,7.8,7.7899,7.6927,7.6217,7.554,0.0,0.0,0.0,0.0,0.0,0.0,0.0,0.0,0.0,0.0,0.0,0.0,0.0,0.0,0.0,0.0,0.0,0.0,0.0,4.3774,4.5797,4.6764,5.0055,5.2285,5.3187,5.3507,5.4778,5.7039,5.678,5.7158,5.8205,5.9271,5.9518,5.9106,6.0251,6.0884,6.1022,6.0151,5.9331,0.0,0.0,5.3748,5.2812,5.0056,4.8448,4.7504,4.6261,4.6113,4.6594,4.7223,4.8564,5.0286,5.2274,5.4877,5.8257,6.3769,6.8185,7.2556,7.8577,8.2684,8.5666,8.719,8.7451,8.649,8.3413,8.0763,7.7046,7.0319,6.6187,6.2456,5.8071,6.0523,6.4443,6.8473,7.4999,8.1128,8.5699,8.7024,8.7153,8.6235,8.6675,8.6625,8.5392,8.6726,8.7898,8.852,8.7898,8.8243,8.9831,8.9802,8.9682,8.9715,8.9309,8.8937,8.8598,8.7482,8.6298,8.5114,8.4749,8.4614,8.458,8.4174,8.3795,8.3456,0.0,8.2069,8.1697,8.0547,8.0073,8.0006,7.9228,7.8957,7.8855,7.8145,7.7367,7.6555,0.0,0.0,0.0,0.0,0.0,0.0,0.0,0.0,0.0,0.0,0.0,0.0,0.0,0.0,0.0,0.0,0.0,0.0,0.0,0.0,4.1638,4.3024,4.2564,4.3185,4.5082,4.3455,4.435,4.7995,4.7466,4.8744,5.1697,5.2985,5.3619,5.3752,5.5185,5.6066,5.6406,5.5384,5.4042,5.2357,4.9759,4.7946,4.6633,0.0,0.0,4.5631,4.5549,4.7272,4.9971,5.2458,5.3518,5.4512,5.8204,6.1935,6.5912,7.1123,7.5397,7.9537,8.4606,8.7389,8.9012,8.9575,8.8415,8.5765,8.0504,7.6622,7.1711,6.3227,5.9649,5.6779,5.2723,5.5752,6.0423,6.5094,7.1322,7.798,8.4871,8.5695,8.6542,8.9138,8.8754,8.8342,8.8483,8.9508,9.0312,9.0787,8.9812,8.9244,8.9345,9.0051,9.0064,8.9241,8.9168,8.8734,8.7989,8.738,8.667,8.5926,8.5148,8.4749,8.4749,8.4647,8.4242,8.3625,8.3524,8.3152,8.2509,8.1731,8.1418,8.1249,8.0581,8.0276,8.0107,7.9397,7.8686,7.7908,0.0,0.0,0.0,0.0,0.0,0.0,0.0,0.0,0.0,0.0,0.0,0.0,0.0,0.0,0.0,0.0,0.0,0.0,0.0,0.0,0.0,4.1384,4.1876,4.2658,4.3706,4.3872,4.4398,4.5293,4.5187,4.5337,4.5782,4.6051,4.6398,4.6912,4.7038,4.7602,4.8442,4.7352,4.682,4.6629,4.5927,4.5423,4.5132,4.5465,0.0,0.0,4.4209,4.507,4.7703,5.5222,5.9383,6.2167,6.6386,7.0253,7.4362,8.0034,8.2684,8.4771,8.9244,9.1165,9.1828,9.1331,8.881,8.49,7.9107,7.2722,6.6055,5.9085,5.544,5.2756,5.0154,5.4725,6.092,6.7115,7.3144,7.9968,8.8385,8.8725,8.9344,9.255,9.1961,9.1614,9.2553,9.2221,9.2237,9.2984,9.2237,9.2063,9.2701,9.209,9.1151,9.0025,8.941,8.8734,8.7989,8.7854,8.7448,8.6704,8.596,8.5587,8.5554,8.4884,8.4512,8.4377,8.3761,0.0,8.3253,8.2509,8.1832,8.1283,8.1181,8.0716,8.0107,7.9397,7.9025,7.872,0.0,0.0,0.0,0.0,0.0,0.0,0.0,0.0,0.0,0.0,4.0209,3.9347,0.0,0.0,0.0,0.0,0.0,0.0,0.0,0.0,0.0,0.0,4.1103,4.187,4.2596,4.2967,4.3721,4.4913,0.0,4.3928,4.4212,4.4212,4.4136,4.4097,4.4764,4.508,4.5154,4.5499,4.5402,4.5068,4.5345,4.5435,4.5441,0.0,0.0,0.0,4.4721,4.6344,4.9873,5.4114,6.051,6.7602,7.2713,7.7119,8.1227,8.5567,8.762,8.9177,9.2424,9.3583,9.3384,9.1496,8.7157,8.152,7.4469,6.7214,5.9993,5.3036,5.0502,4.8978,4.7139,5.2506,5.8601,6.2908,6.8804,7.5927,8.4738,8.599,8.7891,9.3155,9.3375,9.3507,9.4431,9.395,9.3821,9.4444,9.3956,9.3436,9.2996,9.1768,9.0794,9.0222,8.9478,8.8931,8.8564,8.8192,8.782,8.7448,8.6332,8.5817,8.5757,8.4979,8.4614,8.458,8.4234,0.0,8.4031,8.3287,8.2746,8.2374,8.1621,8.1325,8.1224,8.0107,7.9667,7.9532,0.0,0.0,0.0,0.0,0.0,0.0,0.0,3.7387,3.8811,4.272,4.325,4.2475,4.0265,3.8075,0.0,0.0,0.0,0.0,0.0,0.0,0.0,0.0,0.0,0.0,4.2356,0.0,0.0,4.4949,4.381,0.0,0.0,0.0,0.0,0.0,4.4422,4.463,4.4242,4.5469,4.5624,0.0,0.0,4.62,4.6251,0.0,0.0,0.0,0.0,4.752,5.1397,5.2656,5.9595,6.8705,7.4568,8.0531,8.5832,8.8415,9.0436,9.2291,9.4544,9.514,9.4378,9.1266,8.5434,7.8312,7.0096,6.2312,5.4924,4.8067,4.6543,4.6179,4.5333,5.0236,5.5535,5.8833,6.41,7.1048,8.0575,8.2971,8.6254,9.3119,9.429,9.4772,9.5483,9.5183,9.5071,9.5372,9.4977,9.4112,9.2759,9.1237,9.0459,9.0459,8.9545,8.91,8.91,8.8531,8.8226,8.8226,8.6738,8.6027,8.5993,8.5019,8.4614,8.4614,8.4614,8.4614,0.0,8.3964,8.3625,8.3389,8.2205,8.2035,8.2272,8.1088,8.0682,8.0547,0.0,0.0,0.0,0.0,0.0,0.0,0.0,3.7387,3.9451,4.5194,4.4416,4.302,4.2218,4.1316,0.0,0.0,0.0,0.0,0.0,0.0,0.0,0.0,0.0,0.0,0.0,0.0,0.0,4.4198,4.4064,0.0,0.0,0.0,0.0,0.0,0.0,4.4419,4.5076,4.4921,0.0,0.0,0.0,0.0,0.0,0.0,0.0,0.0,0.0,4.5863,4.8199,5.3515,5.7787,6.1914,6.7744,7.7212,8.6391,8.7952,9.0403,9.3053,9.5306,9.5902,9.5041,9.1399,8.5041,7.7424,6.8682,6.0005,5.2307,4.6974,4.5366,4.5267,4.6477,4.8895,5.2919,5.9794,6.304,6.8798,8.0607,8.3737,8.7314,9.392,9.5278,9.5822,9.6257,9.596,9.5702,9.5774,9.5097,9.4349,9.3503,9.2015,9.1203,9.1203,8.9816,8.91,8.91,8.9032,8.8998,8.8998,8.7516,8.6805,8.6771,8.5256,8.4614,8.4614,8.4614,8.4614,0.0,8.4512,8.4099,8.349,8.3355,8.2915,8.2408,8.2272,8.2205,8.2002,0.0,0.0,0.0,0.0,0.0,0.0,0.0,3.7345,3.929,4.6001,4.6181,4.5463,4.4825,4.3777,4.131,0.0,0.0,0.0,0.0,0.0,0.0,0.0,0.0,0.0,0.0,0.0,4.3883,4.3805,4.3805,0.0,0.0,0.0,0.0,0.0,0.0,4.4991,4.497,4.6175,0.0,0.0,0.0,0.0,0.0,0.0,0.0,0.0,0.0,0.0,4.7106,4.8564,5.2473,5.6793,5.7376,6.5293,7.5662,8.2419,8.6461,8.9771,9.4146,9.567,9.5107,9.1399,8.3981,7.5669,6.8185,5.8701,5.0403,4.6576,4.4854,4.4489,4.5947,4.7305,5.0021,5.5568,5.6846,6.0796,7.1326,7.4339,7.9002,8.8453,9.1115,9.3567,9.701,9.6825,9.6277,9.5838,9.5127,9.4383,9.3639,9.2116,9.1102,9.0662,8.9613,8.91,8.91,8.91,8.91,8.91,8.8057,8.7347,8.6873,8.579,8.508,8.4614,8.4614,8.4614,0.0,8.4614,8.4411,8.4133,8.3659,8.3592,8.3599,8.2746,8.2678,8.2915,0.0,0.0,0.0,0.0,0.0,0.0,3.7434,3.7674,3.9619,4.5903,4.6711,4.6531,4.6061,4.4117,4.1363,3.7607,0.0,0.0,0.0,0.0,0.0,0.0,0.0,0.0,0.0,0.0,4.3732,4.3598,4.3812,4.3812,0.0,0.0,4.3812,4.3631,0.0,0.0,0.0,0.0,0.0,0.0,0.0,0.0,0.0,0.0,0.0,0.0,0.0,0.0,0.0,0.0,0.0,5.2223,5.017,5.5435,6.4432,7.5132,8.1393,8.6093,9.1463,9.3948,9.4146,9.0469,8.2718,7.4171,6.7148,5.7594,4.9293,4.6128,4.4655,4.4309,4.5549,4.6576,4.8431,5.2175,5.3102,5.6453,6.5371,6.8488,7.3484,8.3321,8.6483,8.9903,9.5109,9.6382,9.6612,9.5838,9.5127,9.4282,9.33,9.2218,9.1305,9.056,8.9816,8.9309,8.91,8.91,8.8998,8.8767,8.8023,8.7279,8.6569,8.579,8.5148,8.4614,8.4614,8.4614,0.0,8.4614,8.4614,8.4546,8.4031,8.414,8.4478,8.343,8.3389,8.3727,0.0,0.0,0.0,0.0,0.0,0.0,0.0,3.8524,4.0797,4.4796,4.5304,4.5304,4.5304,4.1784,3.9421,3.9361,0.0,0.0,0.0,0.0,0.0,0.0,0.0,0.0,0.0,0.0,4.3598,4.3598,4.4324,4.4324,4.3598,4.4357,4.4291,4.3598,0.0,0.0,0.0,0.0,0.0,0.0,0.0,0.0,0.0,0.0,0.0,0.0,0.0,0.0,0.0,0.0,0.0,0.0,0.0,5.0088,5.4844,6.6485,7.5562,8.2784,8.719,9.0502,9.1861,8.8247,8.1288,7.3202,6.5149,5.65,4.9161,4.5465,4.4703,4.4935,4.5664,4.7007,4.873,5.0966,5.3699,5.8236,6.5912,6.9526,7.3694,7.9894,8.2206,8.506,8.9542,9.4196,9.6612,9.5838,9.5127,9.4045,9.2493,9.2392,9.202,9.1305,9.056,8.985,8.9134,8.91,8.8734,8.7989,8.7279,8.6535,8.5784,8.4979,8.4614,8.4614,8.4614,8.4614,0.0,8.4614,8.4614,8.4614,8.458,8.458,8.4614,8.458,8.458,8.4478,0.0,0.0,0.0,0.0,0.0,0.0,0.0,3.5775,3.7464,4.1414,4.1564,4.1934,4.3728,4.1216,3.9391,3.9391,0.0,0.0,0.0,0.0,0.0,0.0,0.0,0.0,0.0,0.0,0.0,0.0,0.0,4.5036,4.4316,4.5594,4.5549,4.439,4.5417,4.5814,0.0,0.0,0.0,0.0,0.0,0.0,4.6411,0.0,0.0,0.0,0.0,0.0,0.0,0.0,0.0,0.0,0.0,0.0,0.0,5.607,6.5017,7.3575,7.6987,8.0399,8.2022,7.7881,7.2283,6.6541,6.1471,5.4659,4.8696,4.598,4.4655,4.4309,4.5549,4.6179,4.8382,5.4048,5.5771,5.8243,6.3722,6.9354,7.4629,7.9283,8.7823,9.3858,9.5311,9.6315,9.6612,9.5838,9.5127,9.4282,9.3267,9.2725,9.1817,9.0594,9.0324,8.985,8.9134,8.91,8.8998,8.8734,8.7989,8.7279,8.6535,8.5757,8.5114,8.4614,8.4614,8.4614,0.0,8.4614,8.4614,8.4614,8.4614,8.4614,8.4614,8.4614,8.4614,8.458,0.0,0.0,0.0,0.0,0.0,0.0,0.0,3.4757,3.6224,3.8931,3.8883,3.966,4.2293,3.978,3.8315,3.9302,0.0,0.0,0.0,0.0,0.0,0.0,0.0,0.0,0.0,0.0,0.0,0.0,0.0,0.0,0.0,0.0,4.7321,4.5167,4.6079,4.607,0.0,0.0,0.0,0.0,0.0,0.0,4.6311,0.0,0.0,0.0,0.0,0.0,0.0,0.0,0.0,0.0,0.0,0.0,0.0,0.0,5.6169,6.3459,6.9434,7.3483,7.5305,7.2349,6.7943,6.336,5.9396,5.3831,4.8829,4.6311,4.5086,4.4706,4.5616,4.6245,4.8299,5.34,5.5156,5.7448,6.1962,6.8222,7.4453,8.0218,8.92,9.5105,9.5466,9.6074,9.6277,9.5838,9.4857,9.4079,9.3605,9.2861,9.1851,9.0662,9.0357,8.985,8.9134,8.91,8.8801,8.826,8.7786,8.7042,8.6,8.5554,8.508,8.4614,8.4614,0.0,0.0,8.4614,8.4614,8.4614,8.4614,8.4614,8.4614,8.4614,8.4614,8.4614,0.0,0.0,0.0,0.0,0.0,0.0,0.0,0.0,0.0,0.0,3.7268,3.8212,4.0715,3.7704,3.646,0.0,0.0,0.0,0.0,0.0,0.0,0.0,0.0,0.0,0.0,0.0,0.0,4.5421,4.7813,4.8582,4.7841,0.0,0.0,4.5963,4.6029,4.555,0.0,0.0,0.0,0.0,0.0,0.0,0.0,0.0,0.0,0.0,0.0,0.0,0.0,0.0,0.0,0.0,0.0,0.0,0.0,0.0,0.0,0.0,0.0,6.8516,7.0461,6.9566,6.6353,6.2266,5.8025,5.3367,0.0,4.6327,4.5731,4.5797,4.5996,4.7073,4.8564,5.0501,5.3084,5.6425,6.1071,6.7213,7.4399,8.2985,8.7852,9.0804,9.1643,9.4214,9.5872,9.5872,9.4485,9.3634,9.3503,9.2759,9.1952,9.1237,9.0527,8.9782,8.9134,8.91,8.8395,8.6974,8.6941,8.6102,8.4681,8.4614,8.4614,0.0,8.4614,0.0,0.0,8.4614,8.4614,8.4614,8.4614,8.4614,8.4614,8.4614,8.4614,8.4614,0.0,0.0,0.0,0.0,0.0,0.0,0.0,0.0,0.0,0.0,0.0,3.6178,3.6806,3.6058,0.0,0.0,0.0,0.0,0.0,0.0,0.0,0.0,0.0,0.0,0.0,0.0,0.0,4.4728,4.6898,4.8145,4.8586,5.0841,0.0,0.0,0.0,0.0,0.0,0.0,0.0,0.0,0.0,0.0,0.0,0.0,0.0,0.0,4.3812,4.4077,0.0,0.0,0.0,0.0,0.0,0.0,0.0,0.0,4.7122,4.8282,5.3684,0.0,5.719,5.4825,5.3897,5.2837,0.0,4.8531,4.7139,4.5333,4.4968,4.5664,4.7901,4.7703,4.9293,5.5786,5.7409,5.9477,6.4114,7.3668,8.312,9.1054,9.4429,9.5946,9.5601,9.624,9.6646,9.6646,9.5263,9.3943,9.2759,9.1981,9.1237,9.0493,8.9748,8.9303,8.91,8.91,8.8632,8.7719,8.7177,8.6399,8.5486,8.4884,8.4614,8.4614,0.0,0.0,8.4614,8.4614,8.4614,8.4614,8.4614,8.4614,8.4614,8.4614,8.4614,8.4614,0.0,0.0,0.0,0.0,0.0,0.0,0.0,0.0,0.0,0.0,0.0,0.0,0.0,0.0,0.0,0.0,0.0,0.0,0.0,0.0,0.0,0.0,0.0,0.0,0.0,0.0,0.0,0.0,0.0,4.8517,0.0,0.0,0.0,0.0,0.0,0.0,0.0,0.0,0.0,0.0,4.5963,0.0,0.0,0.0,0.0,0.0,4.3845,4.4077,0.0,4.5417,4.6146,4.6742,0.0,0.0,0.0,0.0,4.5384,4.5384,4.805,5.0834,5.2738,5.1793,5.1413,5.0883,4.9707,4.81,4.6576,4.5432,4.52,4.5797,4.7736,4.7784,4.9592,5.5852,5.7916,6.1886,7.0974,7.8926,8.6668,9.4286,9.6277,9.7089,9.736,9.6785,9.6409,9.6409,9.4687,9.3271,9.2426,9.1406,9.0628,9.0222,8.9478,8.91,8.91,8.91,8.8564,8.7482,8.711,8.6332,8.5249,8.4783,8.4614,8.4614,0.0,0.0,8.4614,8.4614,8.4614,8.4614,8.4614,8.4614,8.4614,8.4614,8.4614,8.4614,0.0,0.0,0.0,0.0,0.0,0.0,0.0,0.0,0.0,0.0,0.0,0.0,0.0,0.0,0.0,0.0,0.0,0.0,0.0,0.0,0.0,0.0,0.0,0.0,0.0,0.0,0.0,0.0,0.0,0.0,0.0,0.0,5.1977,0.0,0.0,0.0,0.0,0.0,0.0,0.0,4.5163,0.0,0.0,0.0,0.0,0.0,0.0,0.0,0.0,4.6742,4.7537,4.7901,4.815,0.0,0.0,0.0,0.0,0.0,4.6212,4.9641,5.2672,5.3217,5.2705,5.1961,5.1497,4.9061,4.6676,4.5947,4.5996,4.646,4.7586,4.8596,5.0657,5.5013,5.8617,6.5597,7.9171,8.3595,8.8029,9.4992,9.6007,9.6548,9.7563,9.6514,9.5804,9.5804,9.3706,9.2358,9.2223,9.0966,9.0154,9.0053,8.941,8.91,8.91,8.8998,8.826,8.6907,8.6805,8.5993,8.4614,8.4614,8.4614,8.4614,0.0,0.0,8.4614,8.4614,8.4614,8.4614,8.4614,8.4614,8.4614,8.4614,8.4614,8.4614,0.0,0.0,0.0,0.0,0.0,0.0,0.0,0.0,0.0,0.0,0.0,0.0,0.0,0.0,0.0,0.0,0.0,0.0,0.0,0.0,0.0,0.0,0.0,3.856,0.0,0.0,0.0,0.0,0.0,0.0,5.2483,5.49,5.3409,4.8624,0.0,0.0,0.0,0.0,0.0,0.0,4.4952,0.0,0.0,0.0,0.0,0.0,0.0,0.0,0.0,4.4375,4.5501,4.6775,4.5004,0.0,0.0,0.0,0.0,0.0,4.9972,5.2307,5.2389,4.8928,4.9326,4.9889,4.7371,4.6841,4.6676,4.5947,4.6775,4.8514,5.129,5.2748,5.5231,6.0423,6.7057,7.503,8.5006,8.8093,9.0966,9.5296,9.6886,9.7258,9.6244,9.5939,9.5804,9.5804,9.3706,9.2121,9.1508,9.0662,8.9918,8.9275,8.9168,8.91,8.91,8.8463,8.7753,8.6879,8.6264,8.5486,8.4614,8.4614,8.4614,8.4614,0.0,8.4614,8.4614,8.4614,8.4614,8.4614,8.4614,8.4614,8.4614,8.4614,8.4614,8.4614,0.0,0.0,0.0,0.0,0.0,0.0,0.0,0.0,0.0,0.0,0.0,0.0,0.0,0.0,0.0,0.0,0.0,0.0,0.0,0.0,0.0,0.0,3.8691,3.9601,4.0819,0.0,0.0,0.0,0.0,5.2304,5.5001,5.4124,5.1689,4.801,0.0,0.0,4.2066,0.0,0.0,0.0,0.0,0.0,0.0,0.0,0.0,0.0,0.0,0.0,0.0,0.0,4.598,4.7239,4.5847,0.0,0.0,0.0,0.0,0.0,4.7371,4.9624,5.0883,5.0055,5.181,5.2955,5.0107,4.8845,4.8363,4.8779,4.9443,5.0823,5.3925,5.6644,6.1053,6.8998,7.5463,8.1619,8.7558,8.9793,9.2049,9.5398,9.6413,9.6683,9.6413,9.6041,9.5466,9.4654,9.2861,9.1474,9.0763,9.0019,8.9275,8.8531,8.8497,8.8294,8.7922,8.7177,8.6839,8.6907,8.6129,8.5384,8.4614,8.4614,8.4614,8.4614,0.0,8.4614,8.4614,8.4614,8.4614,8.4614,8.4614,8.4614,8.4614,8.4614,8.4614,8.4614,0.0,0.0,0.0,0.0,0.0,0.0,0.0,0.0,0.0,0.0,0.0,0.0,0.0,0.0,0.0,0.0,0.0,0.0,0.0,0.0,3.7524,3.8883,4.0187,4.1235,4.2013,0.0,4.6711,5.0205,5.2306,5.479,5.7509,5.3747,5.0401,0.0,0.0,0.0,4.1277,4.1814,4.2477,0.0,0.0,0.0,0.0,0.0,0.0,0.0,0.0,0.0,0.0,0.0,0.0,0.0,0.0,0.0,0.0,4.5731,4.4688,4.4507,4.6245,4.8266,5.0386,5.2605,5.4446,5.5459,5.4527,5.2573,5.1492,5.3441,5.3877,5.468,5.7134,6.1582,6.7779,7.6573,8.2424,8.6969,9.0194,9.1778,9.3537,9.6007,9.6142,9.621,9.6582,9.5973,9.4924,9.3436,9.2049,9.0966,9.0256,8.9342,8.8564,8.8023,8.782,8.7482,8.6907,8.6163,8.6061,8.6636,8.5892,8.5215,8.4614,8.4614,8.4614,8.4614,8.4614,8.4614,8.4614,8.4614,8.4614,8.4614,8.4614,8.4614,8.4614,8.4614,8.4614,8.4614,0.0,0.0,0.0,0.0,0.0,0.0,0.0,0.0,0.0,0.0,0.0,0.0,0.0,0.0,0.0,0.0,0.0,0.0,0.0,0.0,3.8033,3.7567,4.0565,4.3678,4.6741,4.701,4.8985,5.2929,5.5478,5.7513,5.889,5.5559,5.1616,4.7224,4.5175,4.2897,4.0698,4.2716,4.2799,4.1767,0.0,0.0,0.0,0.0,0.0,0.0,0.0,0.0,0.0,0.0,0.0,0.0,0.0,0.0,4.6941,4.6775,4.6212,4.6676,5.1461,5.2473,5.269,5.4839,5.403,5.3916,5.8422,5.7423,5.6515,6.0064,6.0926,6.1334,6.2232,6.8797,7.5654,8.055,8.6449,9.1589,9.4861,9.6003,9.6819,9.7732,9.7225,9.6548,9.5939,9.5229,9.4146,9.2595,9.1744,9.0966,9.0256,8.8835,8.8057,8.7989,8.7347,8.6974,8.6907,8.6163,8.5851,8.5858,8.508,8.4647,8.4614,8.4614,8.4614,8.4614,8.4614,8.4614,8.4614,8.4614,8.4614,8.4614,8.4614,8.4614,8.4614,8.4614,8.4614,8.4614,0.0,0.0,0.0,0.0,0.0,0.0,0.0,0.0,0.0,0.0,0.0,0.0,0.0,0.0,0.0,0.0,0.0,0.0,0.0,0.0,3.8661,3.923,4.1673,4.3978,4.6022,4.9703,5.3533,5.7509,5.889,5.9009,5.7752,5.3258,0.0,0.0,4.4259,4.2645,4.1745,4.2648,4.2663,4.2105,4.2766,0.0,0.0,0.0,0.0,0.0,0.0,0.0,0.0,0.0,4.5152,4.6029,4.5664,4.6775,4.81,4.7173,4.6378,4.6311,4.8696,5.085,5.2922,5.5071,5.6694,5.8243,5.9823,6.1155,6.2949,6.6168,6.7758,6.8964,7.0193,7.4714,7.9811,8.4587,8.9431,9.3656,9.6721,9.7394,9.7529,9.7326,9.7056,9.6413,9.5229,9.4451,9.3368,9.1846,9.0594,8.9613,8.8869,8.7888,8.711,8.6636,8.6366,8.5993,8.5459,8.5189,8.4809,8.437,8.4539,8.4614,8.4614,8.4614,8.4614,8.4614,8.4614,8.4614,8.4614,8.4614,8.4614,8.4614,8.4614,8.4614,8.4614,8.4614,8.4614,8.4614,0.0,0.0,0.0,0.0,0.0,0.0,0.0,0.0,0.0,0.0,0.0,0.0,0.0,0.0,0.0,0.0,0.0,0.0,0.0,3.8003,3.902,3.9738,4.1912,4.3978,4.5873,5.1588,5.5957,5.8887,6.0386,5.9428,5.6077,0.0,0.0,0.0,4.4661,4.3667,4.398,4.3955,4.3617,4.305,4.2992,4.3051,0.0,0.0,0.0,0.0,0.0,0.0,0.0,0.0,4.4971,4.5881,4.6046,4.7305,4.8663,4.81,4.757,4.7305,4.7802,4.979,5.2274,5.4674,5.8018,6.1305,6.3511,6.6246,6.9359,7.298,7.3952,7.4524,7.5945,7.8623,8.2181,8.6846,9.1363,9.506,9.7326,9.7664,9.736,9.6646,9.6345,9.5702,9.4485,9.3673,9.2489,9.0729,8.9647,8.8666,8.7719,8.6738,8.596,8.5452,8.4979,8.4573,8.4242,8.4005,8.3795,8.349,8.3795,8.3903,8.3903,8.4377,8.4478,8.4275,8.4512,8.4614,8.4614,8.4614,8.4614,8.4614,8.4614,8.4614,8.4614,8.4614,8.4614,8.4614,0.0,0.0,0.0,0.0,0.0,0.0,0.0,0.0,0.0,0.0,0.0,0.0,0.0,0.0,0.0,0.0,0.0,0.0,0.0,3.8644,3.9092,3.8439,4.0973,4.3918,4.716,5.2396,5.5504,5.6222,5.9458,5.871,5.4102,5.1445,0.0,0.0,4.6803,4.6355,4.7343,4.7061,4.5969,4.4427,4.3929,4.4115,0.0,0.0,0.0,0.0,0.0,0.0,0.0,0.0,4.4821,4.426,4.7918,4.8597,4.8332,4.9773,5.0203,5.0203,5.0203,5.0203,5.0932,5.3813,5.7342,6.2179,7.0229,7.308,7.5502,8.062,7.934,7.7598,7.8565,8.0386,8.302,8.6993,9.2208,9.6041,9.6815,9.6917,9.6616,9.5872,9.5161,9.4417,9.3668,9.2861,9.1474,8.9269,8.91,8.8429,8.6974,8.5425,8.458,8.458,8.3159,8.2746,8.349,8.278,8.278,8.3456,8.2746,8.2408,8.2475,8.3903,8.4174,8.3524,8.4275,8.458,8.4614,8.4614,8.4614,8.4614,8.4614,8.4614,8.4614,8.4614,8.4614,8.4606,0.0,0.0,0.0,0.0,0.0,0.0,0.0,0.0,0.0,0.0,0.0,0.0,0.0,0.0,0.0,0.0,0.0,0.0,0.0,3.8913,3.9302,3.9092,4.0775,4.1942,4.2432,4.6689,5.2007,5.8231,5.7869,5.5508,0.0,0.0,0.0,4.7425,0.0,0.0,4.6209,4.7098,4.5982,4.3777,4.5319,4.5131,0.0,0.0,0.0,0.0,0.0,0.0,0.0,0.0,0.0,0.0,4.6444,4.9094,5.1495,4.9872,5.0518,5.1512,5.0468,5.1296,5.3283,5.6746,6.1881,6.788,7.4614,7.6302,7.841,8.556,8.5241,8.3618,8.3456,8.4912,8.6626,8.8132,9.2111,9.5466,9.6748,9.6917,9.6413,9.5195,9.4383,9.3605,9.2827,9.1135,8.9816,8.9168,8.7679,8.6332,8.5324,8.437,8.3592,8.3084,8.2644,8.2509,8.2746,8.2509,8.2238,8.1934,8.2272,8.2408,8.2382,8.2855,8.3219,8.3524,8.3727,8.4133,8.4614,8.4614,8.4614,8.4614,8.4614,8.4614,8.4614,8.4614,8.5048,8.5677,0.0,0.0,0.0,0.0,0.0,0.0,0.0,0.0,0.0,0.0,3.5519,3.5519,0.0,0.0,0.0,0.0,0.0,0.0,0.0,0.0,3.9511,3.978,4.0576,4.1534,4.2731,4.5873,4.9643,5.4042,0.0,0.0,0.0,0.0,4.9799,4.933,0.0,5.1783,4.8685,4.9678,4.795,4.4725,4.6834,4.6515,4.4932,0.0,0.0,0.0,0.0,0.0,0.0,0.0,0.0,0.0,4.5731,4.8299,5.0965,4.9508,5.0452,5.1828,5.1247,5.2837,5.5719,5.9993,6.5437,7.1679,7.902,8.1991,8.4762,9.0341,8.9259,8.7436,8.7874,8.8116,8.8802,9.0365,9.3149,9.5229,9.5563,9.5597,9.5026,9.3537,9.2962,9.2252,9.1203,8.9884,8.8863,8.826,8.6433,8.5114,8.4614,8.3355,8.2408,8.1968,8.1697,8.1663,8.1968,8.1663,8.146,8.1317,8.146,8.1528,8.1562,8.2137,8.2475,8.2644,8.2949,8.3321,8.3753,8.4137,8.406,8.384,8.4899,8.5078,8.4839,8.5548,8.6162,8.6703,0.0,0.0,0.0,0.0,0.0,0.0,0.0,0.0,0.0,0.0,3.5519,3.5519,0.0,0.0,0.0,0.0,0.0,0.0,0.0,0.0,3.969,4.0367,4.0576,4.2372,4.5942,4.778,4.778,4.5942,0.0,0.0,0.0,0.0,5.2986,5.3423,0.0,5.7284,5.299,5.3153,5.0486,4.6289,4.8243,4.7992,4.6613,4.8434,0.0,0.0,0.0,0.0,0.0,0.0,0.0,0.0,4.5929,4.7239,4.8597,4.916,5.0386,5.1762,5.2557,5.4744,5.8104,6.3637,6.8951,7.5005,8.3291,8.889,9.2763,9.4213,9.177,8.9918,9.1712,9.0563,9.0303,9.3136,9.4755,9.5195,9.3804,9.3567,9.2928,9.1474,9.1169,9.056,8.9235,8.8931,8.8192,8.6805,8.5324,8.4444,8.4309,8.2374,8.1283,8.1215,8.0547,8.0513,8.1215,8.0513,8.0547,8.1215,8.0513,8.0209,8.0242,8.1596,8.1866,8.1351,8.2069,8.2408,8.2485,8.3323,8.3173,8.2682,8.5279,8.5748,8.521,8.6965,8.7667,8.7736,0.0,0.0,0.0,0.0,0.0,0.0,0.0,0.0,0.0,0.0,0.0,0.0,0.0,0.0,0.0,0.0,0.0,0.0,0.0,0.0,3.969,4.0367,4.1844,4.307,4.3938,4.3918,4.3668,0.0,0.0,4.645,4.5603,5.0216,5.2735,5.3551,0.0,5.4837,5.1005,5.0091,4.7468,4.4305,4.8296,4.8291,4.6108,4.8272,4.7968,0.0,0.0,0.0,0.0,0.0,0.0,0.0,4.8663,5.0634,5.2042,5.1099,5.2241,5.4096,5.5421,5.6666,5.9628,6.8208,7.7096,8.4406,8.6954,9.1428,9.4542,9.2928,9.3477,9.4057,9.3347,9.3787,9.4121,9.3673,9.4349,9.462,9.3736,9.3064,9.2319,9.1406,9.0256,8.9472,8.9134,8.7543,8.6129,8.5155,8.4268,8.3219,8.2069,8.1562,8.1021,8.0445,8.0276,8.0276,8.0445,8.0276,8.0276,0.0,8.0276,8.0209,8.0209,8.0513,8.0885,8.1351,8.2069,8.2408,8.2408,8.2606,8.258,8.2605,8.4535,8.518,8.521,8.6965,8.8081,8.8765,0.0,0.0,0.0,0.0,0.0,0.0,0.0,0.0,0.0,0.0,0.0,0.0,0.0,0.0,0.0,0.0,0.0,0.0,0.0,0.0,0.0,0.0,4.2741,4.3339,4.2432,4.2391,0.0,0.0,4.2821,4.4267,4.5873,5.01,5.3043,5.4868,0.0,5.5396,5.1773,5.0076,4.7792,4.5615,4.9177,4.8946,4.6893,4.9996,4.937,4.6914,4.7242,0.0,0.0,0.0,0.0,0.0,0.0,0.0,5.1726,5.0982,5.2307,5.4442,5.6614,5.9529,6.4354,7.4439,8.2598,8.8328,8.8864,9.1879,9.3912,9.1876,9.365,9.5457,9.5022,9.4714,9.4305,9.3706,9.3605,9.3233,9.2116,9.1305,9.056,8.9816,8.8734,8.7753,8.7008,8.5892,8.4911,8.4133,8.305,8.2272,8.1832,8.1156,8.0581,8.0209,8.0209,8.0209,8.0209,8.0209,8.0209,8.0209,8.0209,8.0209,8.0209,8.0209,8.0412,8.0784,8.119,8.1359,8.1384,8.1848,8.1748,8.1546,8.3749,8.4622,8.4879,8.7015,8.8427,8.9276,0.0,0.0,0.0,0.0,0.0,0.0,0.0,0.0,0.0,0.0,0.0,0.0,0.0,0.0,0.0,0.0,0.0,0.0,0.0,0.0,0.0,0.0,4.306,4.3269,4.1762,0.0,0.0,0.0,4.0666,4.2821,4.7219,5.0428,5.3518,5.6423,5.7778,5.6425,5.307,5.1045,4.9069,4.7557,5.0054,4.9742,4.8168,0.0,0.0,4.754,4.8842,4.8895,4.8398,4.8531,0.0,0.0,0.0,0.0,5.0585,5.0585,5.1843,5.3897,5.6978,6.2851,7.0348,7.9908,8.5943,8.9613,8.9763,9.1653,9.292,9.135,9.3261,9.5274,9.5418,9.42,9.3174,9.3203,9.2421,9.1406,9.0188,8.9275,8.8497,8.7888,8.7042,8.6,8.4715,8.4377,8.3903,8.3186,8.1968,8.1494,8.2002,8.0851,8.0141,8.0006,8.0006,7.9938,7.9803,7.9803,7.9803,7.9803,7.9938,7.9938,7.9803,7.9938,8.0073,8.0209,8.0209,8.0209,8.025,8.1048,8.0902,8.0444,8.2998,8.4079,8.4488,8.6902,8.8465,8.9495,0.0,0.0,0.0,0.0,0.0,0.0,0.0,0.0,0.0,0.0,3.5519,3.5519,0.0,0.0,0.0,0.0,0.0,0.0,3.7507,0.0,0.0,4.1373,4.2211,4.278,4.304,0.0,0.0,4.2901,4.1803,4.4436,5.0548,5.1663,5.386,5.6967,5.6791,5.5092,5.2255,5.0679,4.8755,4.6995,5.0038,5.0275,4.8996,0.0,0.0,0.0,4.997,4.9971,5.0004,5.0635,5.09,0.0,0.0,0.0,5.2126,5.2126,5.2325,5.3319,5.6846,6.5958,7.5713,8.094,8.6458,9.0565,8.9999,9.2278,9.3904,9.1853,9.3193,9.4133,9.2011,9.266,9.3102,9.1812,9.0425,8.9444,8.9241,8.8057,8.7177,8.7076,8.5763,8.4817,8.4614,8.343,8.2408,8.1655,8.1418,8.1054,8.0513,8.031,7.9904,7.9295,7.9261,7.8957,7.828,7.8305,7.8305,7.828,7.8957,7.8923,7.8314,7.8957,7.96,8.0209,8.0209,8.0209,8.0234,8.0326,8.0301,8.0369,8.225,8.3485,8.4396,8.6276,8.8013,8.9422,0.0,0.0,0.0,0.0,0.0,0.0,0.0,0.0,0.0,0.0,0.0,3.5519,0.0,0.0,0.0,3.5519,3.6357,3.7195,3.7913,3.9499,4.0516,4.0834,4.1493,4.1792,4.1664,0.0,4.1294,4.2252,4.1654,4.5145,5.2336,5.2995,5.5089,5.8108,5.5304,5.3874,5.3314,4.9651,4.8237,4.865,5.005,5.0446,0.0,0.0,0.0,0.0,0.0,0.0,5.1479,5.1795,5.1927,5.1961,5.2292,0.0,0.0,0.0,5.2955,5.5127,6.2224,6.8887,7.5439,8.2058,8.6695,8.9702,8.9818,9.1371,9.2372,9.0888,9.1425,9.2063,9.1602,9.1463,9.1103,9.0194,8.9173,8.8328,8.7922,8.6569,8.5594,8.5594,8.4275,8.3219,8.278,8.2171,8.146,8.075,8.0682,8.0547,8.0209,8.0209,7.987,7.9101,7.9498,7.9363,7.8619,7.9025,7.9025,7.8619,7.8957,7.872,7.8034,7.8754,7.9295,7.96,7.96,7.9837,8.0209,8.0209,8.0209,8.0293,8.1031,8.2229,8.3696,8.489,8.6755,8.8807,0.0,0.0,0.0,0.0,0.0,0.0,0.0,0.0,0.0,0.0,0.0,0.0,0.0,0.0,0.0,0.0,3.6118,3.7032,3.832,3.9499,4.0157,4.0157,4.0606,4.0666,4.0157,4.0157,4.0546,4.1403,4.1713,4.5933,5.3737,5.4551,5.7064,6.0655,5.6453,5.4796,5.4925,5.0351,4.9683,5.1588,5.0686,5.0783,0.0,0.0,0.0,0.0,0.0,0.0,0.0,0.0,5.2391,5.2391,5.2391,5.2391,0.0,0.0,0.0,5.5743,6.3848,6.8346,7.2586,8.0206,8.472,8.7633,8.8923,8.9859,9.0204,8.9384,8.942,8.9833,9.0457,8.999,8.9397,8.8909,8.8023,8.7177,8.6406,8.5155,8.4242,8.4039,8.2915,8.19,8.1351,8.1148,8.0784,8.0242,8.0209,8.0209,8.0209,8.0209,7.987,7.9101,7.9634,7.9566,7.8822,7.9194,7.8991,7.8247,7.845,7.8145,7.7435,7.8213,7.8551,7.8585,7.8957,7.9431,7.9938,8.0107,8.0326,8.0542,8.0542,8.1698,8.3418,8.404,8.593,8.828,0.0,0.0,0.0,0.0,0.0,0.0,0.0,0.0,0.0,0.0,0.0,0.0,0.0,3.5519,3.5519,3.5519,3.6118,3.7032,3.832,3.908,3.9451,3.9451,3.9481,0.0,3.9451,3.9451,4.0098,4.1403,4.2592,4.7287,5.5119,5.6346,6.0057,6.5503,6.2351,5.943,5.6729,5.441,5.4497,5.5848,5.2449,0.0,0.0,0.0,0.0,0.0,0.0,0.0,0.0,0.0,0.0,5.2391,5.2391,5.2391,5.2391,0.0,0.0,0.0,5.6773,6.1886,6.7569,7.3079,7.9009,8.4197,8.7004,8.7902,8.8075,8.77,8.7868,8.7838,8.6858,8.8031,8.8903,8.8158,8.6839,8.5621,8.4817,8.4065,8.3287,8.2611,8.1832,8.1351,8.1317,8.0648,8.0242,8.0209,8.0209,8.0209,8.0209,8.0209,7.987,7.9101,7.916,7.8822,7.8044,7.7401,7.6657,7.5879,7.6657,7.6589,7.5845,7.6657,7.7029,7.7096,7.8483,7.9101,7.9228,7.9904,8.0706,8.1532,8.1532,8.2664,8.4314,8.4349,8.6013,8.8208,0.0,0.0,0.0,0.0,0.0,0.0,0.0,0.0,0.0,0.0,0.0,0.0,0.0,3.5519,3.5669,3.6088,3.7122,3.793,3.838,3.902,3.9391,3.9391,3.981,4.0038,4.0038,4.0038,4.0696,4.2051,4.2092,4.5693,5.2695,5.485,5.8083,6.1957,6.025,5.8899,5.7641,5.3745,5.2711,5.357,5.2412,5.265,5.3699,5.3003,0.0,0.0,0.0,0.0,0.0,0.0,0.0,0.0,0.0,0.0,5.2391,5.2391,5.2391,5.3274,5.7392,5.9931,6.3227,7.0844,7.5741,7.9657,8.3387,8.5439,8.6541,8.6432,8.6081,8.5703,8.5324,8.6182,8.6704,8.5933,8.4979,8.4065,8.3321,8.2543,8.1968,8.1731,8.1021,8.0581,8.0581,8.0344,8.0209,8.0209,8.0209,8.0209,8.0209,8.0209,7.987,7.9101,7.9566,7.9464,7.872,7.7502,7.6758,7.6454,7.6758,7.6487,7.5743,7.6521,7.6623,7.6265,7.8361,7.9569,8.0059,8.0779,8.1651,8.2518,8.2518,8.3261,8.4467,8.4967,8.6448,8.828,0.0,0.0,0.0,0.0,0.0,0.0,0.0,0.0,0.0,0.0,0.0,0.0,0.0,0.0,3.6327,3.6746,3.7781,3.8409,3.8409,3.902,3.9391,3.9391,4.0038,4.0397,4.0397,4.0816,4.1523,4.241,4.2601,4.5633,5.1236,5.3473,5.645,5.9836,5.8214,5.8545,6.0,5.5382,5.4229,5.5299,5.3074,5.3578,5.5554,5.4825,0.0,0.0,0.0,0.0,0.0,0.0,0.0,0.0,0.0,0.0,0.0,5.2458,5.2391,5.3057,5.6164,5.7565,6.0023,6.7724,7.0832,7.3481,7.9137,8.1222,8.2254,8.3321,8.3727,8.3836,8.3836,8.4099,8.4268,8.4234,8.3625,8.2881,8.2137,8.1596,8.1215,8.0978,8.0276,7.9837,7.9837,7.9837,7.9837,7.9837,8.0073,8.0209,8.0209,8.0209,7.987,7.9101,7.9329,7.9092,7.8382,7.7401,7.6758,7.6487,7.6487,7.6217,7.5709,7.6251,7.6374,7.6286,7.8454,7.9684,8.0236,8.1529,8.2596,8.3456,8.3456,8.4186,8.5323,8.5861,8.6977,8.8316,0.0,0.0,0.0,0.0,0.0,0.0,0.0,0.0,0.0,0.0,0.0,0.0,0.0,0.0,0.0,3.7477,3.8093,3.8499,3.8469,3.908,3.9451,3.9451,4.0098,4.0457,4.0457,4.1733,4.241,4.244,4.4307,4.7219,5.1133,5.245,5.5554,5.9855,5.6995,5.8783,6.3682,5.9635,5.9558,6.1513,5.4629,5.4334,5.8005,5.8634,0.0,0.0,6.0357,5.9661,0.0,5.5752,0.0,0.0,0.0,0.0,0.0,0.0,0.0,5.2391,0.0,0.0,0.0,6.3203,6.4054,6.5786,7.4176,7.5027,7.4954,7.8231,8.0589,8.2171,8.2306,8.1731,8.1757,8.3152,8.2813,8.2103,8.1359,8.1283,8.1012,8.0242,7.9532,7.9101,7.9101,7.9067,7.9067,7.9101,7.9735,8.0141,8.0141,8.0141,7.9803,7.9092,7.8348,7.7604,7.6893,7.6893,7.6454,7.5709,7.5709,7.5709,7.5709,7.5709,7.6184,7.7189,7.874,7.9442,7.9637,8.2034,8.362,8.4437,8.4437,8.5479,8.6977,8.6977,8.752,8.8316,0.0,0.0,0.0,0.0,0.0,0.0,0.0,0.0,0.0,0.0,0.0,0.0,0.0,0.0,0.0,3.9619,4.0187,4.0355,3.9888,4.0038,4.0337,4.0834,4.1493,4.1852,4.1852,4.2201,4.2601,4.304,4.3169,4.5042,4.8626,0.0,5.2895,5.7394,5.6473,5.7652,6.0062,5.5774,5.608,5.9061,5.5283,5.6961,6.1504,5.9032,0.0,0.0,0.0,6.2598,6.2785,0.0,6.0368,5.8005,0.0,0.0,0.0,0.0,0.0,0.0,5.2391,0.0,0.0,0.0,0.0,0.0,6.5935,6.7487,6.9272,7.3409,7.4728,7.6149,7.9406,8.0276,8.0648,8.1054,8.0953,8.075,8.0513,8.0513,8.0242,7.9498,7.9203,7.9101,7.9101,7.8619,7.8517,7.9058,7.8788,7.8585,7.8585,7.8585,7.8517,7.8314,7.7604,7.7096,7.6893,7.6318,7.5912,7.5709,7.5709,7.5709,7.5709,7.5709,7.6184,7.7199,7.8807,7.9894,8.0677,8.3031,8.4574,8.5492,8.5492,8.5791,8.6271,8.6795,8.752,8.8316,0.0,0.0,0.0,0.0,0.0,0.0,0.0,0.0,0.0,0.0,0.0,0.0,0.0,0.0,0.0,0.0,4.2132,4.1942,4.1283,4.0965,4.0984,4.1373,4.2051,4.241,4.241,4.293,4.324,4.329,4.3874,4.5009,0.0,0.0,0.0,0.0,5.3912,5.4772,5.5791,5.3422,5.4604,5.8044,5.7364,5.9762,6.3625,6.2676,6.3824,0.0,0.0,0.0,6.6984,6.6101,6.3691,0.0,0.0,0.0,0.0,0.0,0.0,0.0,0.0,0.0,5.3554,5.6602,0.0,0.0,6.1689,6.2697,6.4025,6.8279,6.9891,7.1616,7.5178,7.6454,7.7266,7.8179,7.8314,7.8754,8.0006,8.0209,7.9938,7.9169,7.8822,7.8517,7.8213,7.7502,7.7198,7.7671,7.7604,7.7696,7.8,7.7705,7.7536,7.7536,7.6792,7.6386,7.6386,7.5946,7.5709,7.5709,7.6048,7.6014,7.5733,7.6431,7.7079,7.7724,7.9395,8.0661,8.16,8.3324,8.4566,8.5402,8.5402,8.5801,8.6416,8.6832,8.752,8.8316,0.0,0.0,0.0,0.0,0.0,0.0,0.0,0.0,0.0,0.0,0.0,0.0,0.0,0.0,0.0,0.0,4.4137,4.3319,4.2631,4.1912,0.0,0.0,0.0,0.0,0.0,0.0,0.0,0.0,0.0,0.0,0.0,0.0,0.0,0.0,0.0,5.1301,5.1911,5.2501,5.4669,5.7919,5.9923,6.2474,6.5371,6.7966,6.9888,7.1229,7.1536,7.1498,7.0912,6.8283,6.5371,0.0,0.0,0.0,0.0,0.0,5.3672,0.0,0.0,0.0,0.0,0.0,5.5992,0.0,5.9614,5.9612,5.9606,6.322,6.5561,6.7726,7.0308,7.1548,7.2732,7.4525,7.5236,7.6589,7.9532,7.9972,7.9667,7.8822,7.8145,7.7435,7.6724,7.5912,7.5473,7.5574,7.6149,7.6792,7.7493,7.686,7.6521,7.6521,7.5912,7.554,7.5473,7.5608,7.5676,7.5574,7.6487,7.6536,7.5899,7.7491,7.8319,7.8641,8.0119,8.131,8.2233,8.2958,8.3736,8.4569,8.4678,8.5547,8.6759,8.6832,8.7447,8.8316,0.0,0.0,0.0,0.0,0.0,0.0,0.0,0.0,0.0,0.0,0.0,0.0,0.0,0.0,0.0,0.0,0.0,4.4646,0.0,0.0,0.0,0.0,0.0,0.0,0.0,0.0,0.0,0.0,0.0,0.0,0.0,0.0,0.0,0.0,5.0583,5.089,5.2378,5.4072,5.5752,5.7462,6.0002,6.4608,6.9973,7.0324,7.1534,7.3067,7.3484,7.3741,7.3282,6.9476,6.6314,6.3321,0.0,0.0,0.0,5.5606,0.0,0.0,0.0,0.0,0.0,0.0,5.6746,0.0,5.5414,5.608,5.7744,5.9689,6.0433,6.2158,6.6825,6.9316,7.0364,6.9553,7.2462,7.5676,7.8077,7.844,7.7908,7.6521,7.6251,7.5845,7.5134,7.4356,7.4187,7.4796,7.439,7.4244,7.438,7.4244,7.4153,7.4153,7.4593,7.4525,7.394,7.51,7.5405,7.483,7.6217,7.6883,7.685,7.7788,7.8702,7.9542,7.9877,8.0521,8.1346,8.1491,8.2432,8.3791,8.4443,8.4859,8.5221,8.5873,8.6977,8.8208,0.0,0.0,0.0,0.0,0.0,0.0,0.0,0.0,0.0,0.0,0.0,0.0,0.0,0.0,0.0,0.0,0.0,0.0,0.0,0.0,0.0,0.0,0.0,0.0,0.0,0.0,0.0,0.0,4.7559,0.0,0.0,0.0,0.0,0.0,5.129,5.1582,5.2506,5.3851,5.5367,5.7352,6.2321,6.671,7.0443,7.2519,7.3841,7.4697,7.5581,7.5839,7.5064,7.0565,6.8316,0.0,6.1776,6.0074,5.9543,0.0,5.7233,5.7036,0.0,0.0,0.0,5.6203,0.0,0.0,0.0,5.4698,5.5209,5.7442,5.7018,5.7627,6.2091,6.326,6.4106,6.5967,6.7861,7.0263,7.3612,7.5371,7.5879,7.4728,7.4289,7.3747,7.3037,7.2293,7.1988,7.2394,7.2394,7.2394,7.2394,7.3105,7.3331,7.2969,7.368,7.4052,7.4052,7.4796,7.5371,7.5777,7.6893,7.7717,7.8269,7.9042,7.974,8.0367,8.0411,8.0694,8.1111,8.1111,8.1817,8.2994,8.3791,8.4569,8.5402,8.6163,8.7194,8.8263,3.5759,0.0,0.0,0.0,0.0,0.0,0.0,0.0,0.0,0.0,0.0,0.0,0.0,0.0,0.0,0.0,0.0,0.0,0.0,0.0,0.0,0.0,0.0,4.4941,0.0,0.0,0.0,0.0,4.8486,4.9234,0.0,0.0,5.2017,5.1397,5.2239,5.2725,5.2855,5.3735,5.561,5.8582,6.4929,6.7862,6.8977,7.3531,7.5389,7.5756,7.7103,7.7232,7.6097,7.1477,7.0298,6.9681,6.3484,6.2595,0.0,0.0,0.0,0.0,0.0,0.0,0.0,0.0,0.0,5.6398,0.0,0.0,0.0,5.5783,5.4785,5.4565,5.7538,5.7335,5.803,6.2042,6.3024,6.441,6.759,7.0364,7.2191,7.2597,7.1718,7.1041,7.0883,6.9925,6.9541,6.9958,7.0128,7.041,7.085,7.2022,7.236,7.1785,7.2597,7.3274,7.3747,7.4187,7.51,7.6454,7.7416,7.8469,7.967,8.0346,8.0865,8.1191,8.111,8.1111,8.1111,8.1111,8.1563,8.2378,8.3211,8.4388,8.5764,8.6506,8.7375,8.8319,3.5759,3.6148,0.0,0.0,0.0,0.0,0.0,0.0,0.0,5.315,5.5239,5.7394,0.0,5.7981,5.7536,0.0,0.0,0.0,5.2843,0.0,0.0,0.0,0.0,0.0,4.7241,0.0,0.0,0.0,5.0011,5.0822,5.0841,0.0,5.2356,5.2299,5.3147,5.3829,5.4361,5.5908,5.8999,6.3073,6.5858,6.6701,6.6812,7.1832,7.4312,7.5294,7.6976,7.7109,7.5864,0.0,7.0985,7.031,0.0,6.4001,6.4234,6.2919,0.0,0.0,0.0,0.0,0.0,0.0,6.2167,0.0,0.0,0.0,5.8149,5.4376,0.0,5.434,5.4762,0.0,0.0,5.5834,5.9558,6.2009,6.0467,6.1738,6.4512,6.9045,6.7726,6.7218,6.918,6.7455,6.7049,6.9079,6.7421,6.7218,6.9248,6.9519,6.9553,6.9485,7.0838,7.1278,7.0703,7.2631,7.4052,7.4864,7.6428,7.8388,8.0551,8.0764,8.1334,8.2106,8.1418,8.1111,8.1111,8.1111,8.1563,8.2378,8.3211,8.4044,8.4931,8.5728,8.694,8.8227,3.5699,3.6956,3.8452,0.0,0.0,0.0,0.0,0.0,5.3288,5.5568,5.8408,6.0789,6.2317,6.014,5.9157,6.0689,5.6186,5.3086,0.0,0.0,0.0,0.0,0.0,0.0,0.0,0.0,0.0,0.0,5.0761,5.1359,5.1871,0.0,5.2623,5.3003,5.3467,5.4319,5.541,5.7001,5.8719,6.0717,6.4202,6.5137,6.5171,7.2477,7.5583,7.6129,7.6395,7.6285,7.5576,0.0,7.167,0.0,0.0,0.0,0.0,6.5127,0.0,0.0,0.0,0.0,0.0,0.0,0.0,0.0,5.7801,0.0,5.6908,0.0,0.0,0.0,0.0,0.0,0.0,0.0,5.6731,5.8152,5.8878,5.8829,6.0317,6.4681,6.2821,6.1873,6.37,6.299,6.3024,6.4478,6.4478,6.485,6.5797,6.7929,6.8876,6.8402,6.9857,7.0737,7.0838,7.2191,7.3883,7.5946,7.7182,7.9282,8.2037,8.1723,8.2098,8.2921,8.1672,8.1111,8.1111,8.1111,8.1563,8.2378,8.3211,8.4008,8.4841,8.6222,8.7421,8.8476,3.6088,3.7704,3.9182,3.9361,4.1074,0.0,0.0,0.0,5.5089,5.6645,5.9395,6.1813,6.3329,6.1822,6.1453,6.3256,6.0156,5.7365,0.0,0.0,5.0618,0.0,0.0,0.0,0.0,0.0,0.0,0.0,5.1083,5.1643,5.269,0.0,0.0,5.3765,5.4963,5.624,5.7558,5.9385,6.0784,6.2004,6.5089,6.6457,6.7313,7.3251,7.5951,7.6521,7.6149,7.5743,7.51,7.3002,7.2119,0.0,7.0153,0.0,6.7577,0.0,0.0,0.0,6.3183,0.0,0.0,0.0,0.0,0.0,0.0,0.0,0.0,0.0,0.0,0.0,0.0,0.0,0.0,0.0,0.0,5.5581,5.7543,5.6697,5.7205,6.0742,5.9592,5.8896,6.0013,5.9539,5.9776,6.1197,6.1163,6.1752,6.3409,6.5899,6.7354,6.759,6.9079,7.0263,7.1007,7.1751,7.351,7.6275,7.7272,7.9269,8.2058,8.1916,8.2308,8.3102,8.1708,8.1111,8.1111,8.1111,8.1563,8.2378,8.3211,8.4027,8.4952,8.6444,8.7481,8.8318,3.7225,3.7913,3.8631,3.9302,4.1074,4.3728,4.763,4.9441,5.1804,5.5713,5.6342,5.8448,6.3887,6.3116,6.511,7.2251,6.7504,6.434,6.4849,0.0,5.4506,0.0,0.0,5.0247,0.0,0.0,0.0,0.0,5.1083,5.1871,5.3349,5.3349,0.0,0.0,5.8421,6.0538,6.1499,6.4259,6.7556,7.0847,7.0546,7.2384,7.5107,0.0,7.409,7.5845,7.6589,0.0,0.0,7.2681,7.2245,0.0,0.0,0.0,0.0,0.0,0.0,0.0,0.0,0.0,0.0,6.3404,0.0,0.0,0.0,0.0,5.9388,0.0,0.0,0.0,0.0,0.0,0.0,0.0,0.0,0.0,0.0,5.4093,5.4702,5.7697,5.9201,6.0047,6.0114,5.8152,5.8118,6.1095,5.7306,5.7408,6.3173,6.2922,6.3903,6.6757,6.8335,6.9485,7.0251,7.0973,7.2439,7.4684,7.5753,7.7492,7.9733,8.0698,8.1581,8.2305,8.1454,8.1111,8.1111,8.1111,8.1563,8.2378,8.3211,8.4119,8.5064,8.5845,8.6645,8.7501,3.8673,3.9619,4.0176,3.9511,4.1074,4.3878,4.8289,5.0421,5.408,6.1221,6.2917,6.6035,7.2763,7.2688,7.3434,7.6613,7.3353,7.0272,6.82,6.4233,0.0,0.0,0.0,5.5622,0.0,0.0,0.0,0.0,0.0,5.3126,5.4144,5.4144,5.4508,5.5369,5.8268,6.0351,6.1936,6.5285,6.7257,6.8272,6.9914,7.313,7.6727,0.0,7.5127,7.5676,7.5473,7.5067,0.0,7.3384,7.2302,7.1356,7.112,7.0041,6.8793,6.8436,6.8222,0.0,0.0,0.0,6.8884,6.4443,0.0,0.0,0.0,0.0,0.0,0.0,0.0,0.0,0.0,0.0,0.0,0.0,0.0,0.0,0.0,5.3213,5.345,5.5497,5.6596,5.6781,5.5818,5.5074,5.5243,5.6731,5.5446,5.614,5.9607,6.1907,6.3802,6.529,6.7286,6.891,7.0184,7.1498,7.3548,7.6268,7.7849,7.9526,8.1267,8.17,8.2052,8.2269,8.1454,8.1111,8.1111,8.1111,8.1563,8.2378,8.3211,8.4119,8.51,8.5992,8.6885,8.7943,4.0457,4.1164,4.1493,4.0606,4.2511,4.5295,4.8768,5.287,5.7909,6.4402,6.7773,7.1853,7.7891,7.8375,7.9069,8.1015,7.9096,7.6025,7.1963,6.9575,0.0,6.3511,6.1423,0.0,0.0,0.0,0.0,0.0,0.0,5.4939,5.4906,5.4906,5.527,5.6117,5.9272,6.1532,6.3244,6.7335,6.911,6.9401,7.1451,7.4109,7.6751,0.0,7.557,7.5802,0.0,7.4052,7.3747,7.3274,7.2201,7.1142,7.1808,7.0749,6.9186,6.8916,6.8692,6.8366,6.7653,6.8459,0.0,6.5673,6.506,0.0,5.9984,0.0,0.0,0.0,0.0,0.0,0.0,0.0,0.0,0.0,0.0,0.0,0.0,5.3044,5.3112,5.4093,5.4397,5.4312,5.3923,5.3179,5.2976,5.3721,5.3298,5.4194,5.6968,6.0182,6.2598,6.4174,6.688,6.9045,7.0567,7.1902,7.3955,7.675,7.8241,7.9617,8.0902,8.1578,8.1853,8.1817,8.1346,8.1111,8.1111,8.1111,8.1744,8.2776,8.332,8.43,8.5555,8.6192,8.7285,8.8616,4.244,4.256,4.265,4.265,4.5175,4.7698,4.9217,5.6347,6.2578,6.5351,7.0711,7.5685,7.9432,8.0428,8.2207,8.5623,8.4528,8.1515,7.654,7.4968,0.0,0.0,6.5072,6.3991,6.3366,0.0,0.0,0.0,0.0,5.7077,5.5833,5.57,5.6051,5.6898,6.1305,6.3905,6.5289,7.024,7.3045,7.4272,7.5022,7.5504,7.5652,7.4806,7.5248,7.6032,7.4127,7.3026,7.2394,7.236,7.1887,7.1289,7.1289,7.0804,7.0116,6.9383,6.9654,6.9857,6.8402,6.8571,6.8765,6.7052,0.0,0.0,0.0,0.0,6.3216,0.0,0.0,0.0,0.0,0.0,0.0,0.0,0.0,0.0,0.0,5.3518,5.3518,5.3551,5.2773,5.2841,5.4347,5.2503,5.1472,5.2198,5.0913,5.1725,5.5395,5.7728,6.0298,6.3308,6.7049,6.9722,7.1289,7.2142,7.3769,7.6113,7.7079,7.796,7.8765,8.037,8.1111,8.1111,8.1111,8.1111,8.1111,8.1111,8.207,8.3501,8.3501,8.4682,8.6429,8.6447,8.7704,8.94,4.307,4.4676,4.6022,4.6022,4.5903,4.707,5.087,5.6309,6.2776,7.0595,7.6921,8.2451,8.7044,8.8692,8.9371,8.9204,8.7833,8.5961,8.3519,0.0,0.0,7.5549,7.4346,7.2452,6.9783,6.6401,0.0,6.3312,0.0,5.7641,5.8833,5.7177,5.6514,5.6865,6.0742,6.284,6.3793,6.8885,7.2391,7.4566,7.531,7.5855,7.5995,0.0,7.3696,7.4585,7.3181,7.2563,7.2326,7.1785,7.1458,7.1289,7.1289,7.1154,7.0872,7.0128,7.0026,7.0116,6.9722,6.9777,6.9688,6.8676,6.7735,6.6415,0.0,0.0,0.0,0.0,0.0,0.0,0.0,0.0,0.0,0.0,0.0,0.0,0.0,0.0,5.3687,5.4262,5.2638,5.1844,5.2807,5.1877,5.1269,5.1472,5.0608,5.1251,5.3923,0.0,5.9302,6.1806,6.5459,6.8673,7.1255,7.2783,7.4956,7.7789,7.8783,7.9684,8.0478,8.0894,8.1111,8.1111,8.1111,8.1111,8.1111,8.1111,8.207,8.3501,8.3647,8.4918,8.6625,8.6786,8.7935,8.94,4.4566,4.6988,4.8992,4.8992,5.0682,5.3116,5.6347,5.9699,6.4989,7.3603,8.0104,8.4862,8.7338,9.0874,9.2675,9.1651,9.0204,8.8458,8.6371,0.0,0.0,8.0324,7.9726,7.7823,7.4293,7.0487,0.0,6.4595,0.0,5.8701,5.8535,5.7608,5.7031,5.6865,6.0543,6.2577,6.3547,6.892,7.2643,7.4934,7.5121,7.5377,0.0,7.3599,7.3114,7.3301,7.2258,7.1921,7.1853,7.1424,7.1289,7.1289,7.1289,7.1289,7.1222,7.0804,7.0669,7.0601,7.0297,7.0432,7.0432,6.935,6.8924,6.8082,6.5496,6.5783,6.5956,0.0,0.0,0.0,0.0,0.0,0.0,0.0,0.0,0.0,0.0,0.0,5.3653,5.4059,5.2976,5.2216,5.23,5.1048,5.022,5.022,5.0744,5.1488,0.0,0.0,5.9268,6.1231,6.5527,6.8944,7.1289,7.3997,7.6207,7.7948,7.9263,8.0314,8.1111,8.1111,8.1111,8.1111,8.1111,8.1111,8.1111,8.1111,8.2088,8.372,8.4681,8.5734,8.6714,8.6925,8.8005,8.9436,4.642,4.9411,5.1774,5.1505,5.6952,6.2085,6.4258,6.6008,6.9503,7.6241,8.252,8.613,8.5584,9.0593,9.3796,9.3358,9.191,8.9918,8.7284,8.7878,8.6622,8.2896,8.281,8.1224,7.7705,7.402,6.948,0.0,0.0,5.9884,5.7296,5.7641,5.7461,5.6998,6.0411,6.2614,6.4155,6.9547,7.306,7.4902,7.4803,7.4627,7.439,7.3646,7.2902,7.2157,7.1447,7.1222,7.1289,7.1289,7.1289,7.1289,7.1289,7.1289,7.1289,7.1289,7.1289,7.1176,7.05,7.0737,7.0872,6.9553,6.9654,6.9316,6.663,6.6089,6.5899,6.5053,6.3294,6.2415,0.0,0.0,0.0,0.0,0.0,0.0,0.0,0.0,5.3653,5.3653,5.3551,0.0,5.2536,5.0541,4.9255,4.9154,5.0845,5.1691,0.0,0.0,5.9216,6.1231,6.6091,6.9681,7.175,0.0,7.7313,7.7781,7.9211,8.0314,8.1111,8.1111,8.1111,8.1111,8.1111,8.1092,8.1164,8.1164,8.2232,8.4063,8.597,8.6733,8.6768,8.7036,8.8115,8.951,4.7818,5.1941,5.4815,5.3139,5.9537,6.6958,7.316,7.6169,7.9106,8.2991,8.9328,9.3571,9.3732,9.4755,9.5146,9.4497,9.3009,9.1658,9.0537,0.0,0.0,8.6149,8.5493,8.4031,8.1494,7.5899,7.2058,0.0,0.0,0.0,6.0291,5.8601,5.774,5.7674,5.9529,6.2033,6.5091,6.9312,7.1794,7.3069,7.4806,7.4762,7.3612,7.2868,7.2124,7.1391,7.0669,7.077,7.1289,7.1289,7.1289,7.1289,7.1289,7.1289,7.1289,7.1289,7.1289,7.1255,7.112,7.077,7.0331,7.006,6.9654,6.8977,6.7793,6.803,6.8098,6.669,6.5628,6.4681,6.3849,0.0,0.0,0.0,0.0,0.0,0.0,0.0,0.0,5.4414,5.3856,5.345,5.3315,5.1776,5.0558,4.9947,4.9695,5.0051,0.0,0.0,5.6562,0.0,6.4673,0.0,0.0,0.0,7.7727,8.0274,8.0044,8.0314,8.1111,8.1111,8.1111,8.1111,8.1111,8.1181,8.134,8.134,8.2496,8.4397,8.6039,8.6803,8.7016,8.7711,8.861,8.9436,5.227,5.5162,5.8116,5.9911,6.6227,7.328,7.9959,8.4565,8.6984,8.6264,8.9534,9.1758,9.1364,9.3991,9.5499,9.4789,9.3271,9.2116,9.1338,9.0628,8.9545,8.8091,8.6974,8.5317,8.3016,7.7033,7.2467,6.9401,0.0,0.0,0.0,0.0,5.775,5.7484,5.9325,6.254,6.6745,6.8864,0.0,7.292,7.4512,7.4695,7.3984,7.324,7.2496,7.1785,7.1041,7.1007,7.1289,7.1289,7.1289,7.1289,7.1289,7.1289,7.1222,7.0838,7.1007,7.1019,6.9857,7.0161,7.05,6.9282,6.935,6.935,6.8166,6.8199,6.8166,6.7028,6.6203,6.5256,6.3748,6.0419,0.0,0.0,0.0,0.0,0.0,0.0,5.5446,5.4685,5.4634,5.4346,5.3585,5.2841,5.1911,5.0777,5.1082,5.1438,0.0,0.0,5.6697,0.0,0.0,0.0,0.0,0.0,0.0,7.9724,8.0243,8.073,8.1111,8.1111,8.1111,8.1111,8.1111,8.1199,8.1483,8.2475,8.3451,8.4464,8.6198,8.6908,8.7088,8.7912,8.8463,8.8849,5.7626,5.9814,6.2953,6.7324,7.3496,7.9561,8.475,9.0401,9.2904,8.9673,9.0002,9.0211,8.9343,9.3171,9.5499,9.4789,9.347,9.2353,9.1575,9.0831,9.0087,8.9342,8.7786,8.5926,8.3795,7.8213,7.2852,0.0,0.0,0.0,0.0,0.0,5.8119,5.7806,5.9891,6.3299,0.0,0.0,7.0703,7.3299,7.4398,7.4739,7.4525,7.3781,7.3037,7.2293,7.1582,7.1188,7.1086,7.1255,7.1289,7.1289,7.1289,7.1289,7.1188,7.0601,7.0838,7.0917,6.9113,6.9823,7.0635,6.8842,6.918,6.9586,6.8233,6.7895,6.7692,6.6927,6.6203,6.5189,6.3565,6.0994,0.0,0.0,0.0,0.0,0.0,0.0,5.6596,0.0,5.5378,5.5293,5.3653,5.3653,5.3179,5.1776,5.252,5.2807,5.2334,0.0,0.0,0.0,0.0,6.8837,7.2616,0.0,7.9379,7.9168,8.0478,8.1111,8.1111,8.1111,8.1111,8.1111,8.1111,8.1217,8.1589,8.3556,8.4369,8.4532,8.6302,8.6978,8.7088,8.7912,8.8316,8.8536,6.2695,6.7087,7.1017,7.2439,7.8976,8.473,8.6678,9.1916,9.5672,9.5953,9.6082,9.6082,9.6021,9.5879,9.5499,9.4789,9.3943,9.3131,9.2324,9.1609,9.0865,9.0121,8.8057,8.6163,8.4512,8.0006,7.5039,0.0,0.0,0.0,0.0,0.0,0.0,0.0,0.0,0.0,0.0,6.9255,7.1783,7.3589,7.5033,7.5202,7.4525,7.3781,7.3037,7.2293,7.1582,7.0872,7.0398,7.1052,7.1289,7.1289,7.1289,7.1289,7.1289,7.1222,7.1255,7.1255,7.1019,7.0635,7.0229,7.0048,6.9586,6.8977,6.8098,6.7895,6.7692,6.6927,6.6203,6.504,6.2908,6.2753,6.2124,0.0,0.0,0.0,0.0,0.0,5.7746,5.4938,0.0,0.0,5.3721,5.4093,5.416,5.3348,5.2114,5.1674,0.0,0.0,0.0,5.9118,0.0,6.8873,7.2753,7.6786,7.9502,8.0876,8.102,8.1111,8.1111,8.1111,8.1111,8.1111,8.1111,8.1287,8.1742,8.3744,8.4575,8.4722,8.6354,8.6978,8.7088,8.7912,8.8683,8.929,7.0354,7.2504,7.5531,7.9486,8.2727,8.6449,9.1576,9.432,9.621,9.7394,9.7563,9.7563,9.7563,9.6886,9.6142,9.5432,9.4687,9.374,9.2459,9.2121,9.144,9.0256,8.8937,8.711,8.4708,8.1156,7.6425,0.0,0.0,0.0,0.0,0.0,0.0,0.0,0.0,6.4896,6.82,7.0265,7.2032,7.3635,7.51,7.5506,7.5168,7.4424,7.3713,7.2969,7.2225,7.1481,7.0838,7.0703,7.0635,7.0737,7.1176,7.1289,7.1188,7.077,7.0973,7.1086,7.0229,7.0398,7.0737,7.0297,7.0297,7.0229,6.9451,6.8944,6.8402,6.7624,6.6508,6.5446,6.4532,6.3903,6.3105,0.0,0.0,0.0,0.0,0.0,0.0,5.5615,0.0,5.5978,5.4215,5.43,5.4728,5.5328,5.3616,0.0,0.0,0.0,0.0,5.9442,0.0,6.8392,7.276,7.6713,7.9499,8.1111,8.1111,8.1111,8.1111,8.1111,8.1146,8.127,8.1392,8.1547,8.1911,8.3811,8.4609,8.4756,8.6371,8.6978,8.7161,8.8445,8.9106,8.9546,7.7301,7.842,8.078,8.6121,8.7335,8.9416,9.4958,9.5973,9.6582,9.7834,9.8003,9.7935,9.7698,9.7191,9.6582,9.5872,9.5127,9.4248,9.3136,9.2629,9.1817,9.0594,8.9613,0.0,8.508,8.2272,7.8173,7.2728,7.0399,0.0,0.0,0.0,0.0,0.0,6.5451,6.7423,7.0625,7.1762,7.3003,7.4221,7.527,7.5709,7.5608,7.4627,7.395,7.3398,7.2665,7.165,7.0613,7.0534,7.006,6.9688,7.0669,7.0838,7.0635,7.0534,7.0737,7.0804,6.9992,7.0534,7.1176,7.0635,7.0906,7.1109,7.0364,6.9789,6.9113,6.8098,6.6914,6.5899,6.5459,6.4715,6.3869,6.297,0.0,0.0,0.0,6.0451,0.0,5.637,5.6541,5.6271,5.4579,5.4407,5.4919,5.6166,5.5092,0.0,0.0,0.0,0.0,0.0,0.0,0.0,0.0,7.6745,7.939,8.0766,8.0966,8.1111,8.1092,8.1146,8.1252,8.141,8.1853,8.2133,8.2378,8.4211,8.4939,8.5086,8.6464,8.6978,8.7198,8.8812,8.94,8.962,8.2709,8.5315,8.7962,9.1653,9.3575,9.4857,9.5669,9.6413,9.7123,9.7901,9.8003,9.7732,9.7018,9.6917,9.6582,9.5872,9.5127,9.4687,9.4687,9.3237,9.2083,0.0,0.0,8.8085,8.5851,8.3558,8.0547,7.6826,0.0,0.0,6.8582,0.0,6.7517,6.7673,7.0118,7.1627,7.2462,7.395,7.4999,7.5676,7.5676,7.5709,7.554,7.4052,7.35,7.3398,7.2665,7.1007,6.935,7.0804,6.9789,6.8199,6.9722,6.9722,6.9417,7.085,7.077,7.0364,7.1075,7.1289,7.1289,7.1289,7.1289,7.1109,7.0364,7.0195,6.9755,6.8233,6.732,6.6318,6.4884,6.5189,6.4735,6.1806,0.0,0.0,0.0,0.0,0.0,5.7129,5.7339,5.6891,5.4614,5.4407,5.4672,5.5358,0.0,0.0,0.0,0.0,0.0,6.1133,6.6361,0.0,7.2866,7.6763,7.91,7.9933,8.0712,8.1111,8.1128,8.1305,8.1392,8.1446,8.2611,8.3076,8.3239,8.5055,8.5783,8.5857,8.6701,8.6978,8.7198,8.8812,8.94,8.962,8.7127,8.9127,9.1005,9.2189,9.3706,9.4958,9.5702,9.6413,9.7157,9.7901,9.8003,9.7901,9.7664,9.7664,9.7157,0.0,9.6041,9.577,0.0,9.4248,9.3402,9.2116,9.1102,8.9072,8.5885,8.508,8.2374,7.7638,0.0,0.0,0.0,6.9713,6.9904,7.0929,7.2754,7.4255,7.554,7.6487,7.6758,7.6521,7.6521,7.6183,7.5642,7.5168,7.4356,7.3398,7.2665,7.1312,6.9755,6.918,6.8504,6.7996,6.847,6.918,6.9925,7.0398,7.0364,7.0364,7.1109,7.0939,7.0669,7.1154,7.1289,7.1222,7.1007,7.0161,6.9147,6.8098,6.732,6.6373,6.4884,6.5189,6.4905,6.2448,6.2426,0.0,0.0,0.0,0.0,5.8336,5.8761,5.8668,5.7456,5.684,0.0,0.0,0.0,0.0,0.0,0.0,0.0,0.0,6.8197,0.0,7.4382,7.7802,7.9933,8.0712,8.0966,8.1163,8.1305,8.146,8.1615,8.1807,8.2713,8.318,8.3408,8.5106,8.58,8.5874,8.6701,8.6978,8.7124,8.8206,8.8923,8.9546,9.0188,9.1474,9.2493,9.2793,9.4112,9.5263,9.5736,9.665,9.7461,9.7935,9.7766,9.7597,9.7597,9.7326,0.0,9.665,9.6785,9.6379,9.5195,9.4857,9.3909,9.2083,9.1541,8.9816,8.667,8.6061,0.0,8.0479,7.8788,7.6555,7.3781,7.2732,7.2902,7.4153,7.5642,7.669,7.7333,7.7773,7.757,7.686,7.6555,7.6149,7.5676,7.5405,7.4728,7.3815,7.3071,7.1684,7.0116,6.9417,6.8605,6.7963,6.8267,6.918,7.015,6.9857,6.9789,6.9891,7.0364,7.0331,7.0297,7.077,7.1109,7.1244,7.0973,6.9958,6.8876,6.8064,6.732,6.6419,6.5222,6.5155,6.4647,6.2705,6.2159,6.1779,6.1224,0.0,0.0,0.0,0.0,0.0,0.0,5.8509,5.8744,0.0,0.0,0.0,0.0,0.0,0.0,6.5649,7.0082,0.0,7.6439,7.8721,8.0278,8.1111,8.12,8.127,8.141,8.1615,8.1968,8.2398,8.327,8.3904,8.4389,8.571,8.6261,8.6297,8.6794,8.7161,8.7545,8.8353,8.9143,8.995,9.1986,9.2426,9.2725,0.0,9.4823,0.0,9.5804,9.7056,9.8003,9.8003,9.736,9.6917,9.6917,9.6244,9.6345,9.7732,0.0,0.0,0.0,9.5093,9.3706,9.1474,9.1338,9.0222,8.7955,8.6569,8.5418,8.4512,8.031,7.8237,7.8204,7.669,7.642,7.7198,7.8585,7.8788,7.817,7.817,7.7739,7.6995,7.6183,7.5811,7.5709,7.4965,7.4661,7.4502,7.3747,7.2146,7.0432,7.1109,6.9857,6.8199,6.8944,6.9654,7.006,6.9383,6.918,6.918,6.918,6.9688,7.0217,7.0217,7.0737,7.112,7.0432,6.9688,6.8944,6.8132,6.7387,6.6643,6.5852,6.5087,6.4106,6.2637,6.1667,6.112,6.1083,0.0,0.0,0.0,0.0,0.0,0.0,5.9638,6.0008,0.0,6.2549,0.0,0.0,0.0,6.5048,6.8147,7.2094,7.5643,7.8738,7.9571,8.0368,8.111,8.1322,8.1427,8.1445,8.1824,8.2414,8.3183,8.4248,8.5123,8.5857,8.6664,8.6978,8.6978,8.6978,8.7509,8.828,8.9033,8.984,9.0702,0.0,0.0,9.3368,9.3567,9.4823,9.5804,9.5804,9.7056,9.8003,9.8003,9.736,9.6917,9.6917,9.6244,9.5939,9.6277,9.6142,9.5736,9.5026,9.4823,9.3943,9.2189,9.1609,8.9985,8.7245,8.6839,8.5689,8.3761,8.1562,8.0538,8.0505,7.9566,7.9228,7.9431,7.9769,7.9837,7.9667,7.9667,7.9261,7.8517,7.7739,7.7096,7.6521,7.5743,7.51,7.4502,7.3747,7.28,7.1819,7.1424,7.0567,6.971,6.9857,7.0082,7.0184,6.9992,6.9925,6.9925,6.9925,7.006,7.0217,7.0217,7.0737,7.1255,7.1075,7.0466,6.9722,6.8977,6.8199,6.7252,6.5954,6.5087,6.4106,6.2637,6.1249,6.0515,6.1017,6.0586,0.0,0.0,6.2029,6.2332,6.2151,6.174,6.1998,0.0,0.0,0.0,0.0,6.6692,6.8685,7.0625,7.4573,7.7615,7.9607,8.0404,8.0982,8.1322,8.1478,8.1632,8.1805,8.2645,8.3148,8.3404,8.4886,8.56,8.5857,8.6664,8.6978,8.6978,8.6978,8.7509,8.8206,8.8426,8.9381,9.0629,9.2895,9.3571,9.3977,9.3668,9.5123,9.6176,9.5838,9.7056,9.7867,9.7529,9.6853,9.6379,9.6379,9.5432,9.4924,9.5263,9.5601,9.5499,9.4755,9.4383,9.3503,9.1981,9.1203,8.9748,8.7448,8.7076,8.596,8.3998,8.2847,8.2332,8.2272,8.119,8.0682,8.0682,8.0344,8.0209,8.0175,7.9837,7.9464,7.9058,7.828,7.7536,7.686,7.642,7.5777,7.4999,7.4255,7.351,7.2834,7.2428,7.1582,7.077,7.1109,7.0973,7.0703,7.0703,7.0466,7.015,6.9789,6.9925,7.0285,7.0635,7.1007,7.1188,7.0872,7.0466,6.9891,6.8774,6.8199,6.765,6.6909,6.5551,6.4317,6.3536,6.1802,6.067,6.1007,6.0704,0.0,6.2908,6.349,6.4192,6.5301,6.5011,6.4961,6.5446,6.5301,0.0,6.6641,7.0009,7.1929,7.2074,7.5949,7.8629,7.9897,8.0782,8.1287,8.141,8.198,8.2333,8.2471,8.3498,8.4168,8.4535,8.5416,8.6004,8.6371,8.6811,8.6978,8.7014,8.7399,8.8059,8.8793,8.916,9.0078,9.1143,9.3499,9.4112,9.4349,9.3706,9.5259,9.6345,9.5736,9.6785,9.7428,9.6849,9.6074,9.5635,9.5635,9.4417,9.3842,9.4485,9.5093,9.5195,9.4586,9.3808,9.2759,9.1372,9.0594,8.9512,8.8023,8.7177,8.6027,8.4614,8.3964,8.3625,8.3456,8.2103,8.1418,8.1283,8.0513,8.0209,8.0175,7.9532,7.9295,7.9194,7.845,7.7773,7.7198,7.6995,7.6487,7.5777,7.5033,7.4356,7.3815,7.3815,7.2935,7.1898,7.2529,7.2157,7.1458,7.1458,7.0939,7.0195,6.9451,6.9722,7.0364,7.1142,7.1289,7.112,7.05,7.0364,6.9958,6.8538,6.8233,6.8205,6.8042,6.6178,6.4592,6.4323,6.2481,6.1056,6.0884,0.0,6.2045,6.4288,6.4808,6.5844,6.8126,6.838,6.8199,6.7728,6.9358,7.0025,6.9125,7.2891,7.4629,7.3651,7.7036,7.9335,8.0294,8.116,8.1682,8.1843,8.283,8.3276,8.3346,8.4358,8.5159,8.58,8.593,8.6371,8.6978,8.6978,8.6978,8.7051,8.7766,8.8556,8.9473,9.017,9.0996,9.1803,9.3601,9.3673,9.3706,9.3634,9.4383,9.5026,9.489,9.5601,9.6108,9.5973,9.533,9.489,9.489,9.4112,9.3668,9.374,9.3876,9.3876,9.3774,9.303,9.2218,9.1338,9.0594,8.9512,8.8023,8.667,8.552,8.4614,8.4478,8.4133,8.349,8.2644,8.19,8.1283,8.0513,8.0209,8.0175,8.0073,8.004,7.9972,7.9228,7.8855,7.8594,7.7367,7.6826,7.6623,7.5811,7.5473,7.5371,7.5371,7.4796,7.4096,7.4198,7.3341,7.2225,7.2225,7.1718,7.0973,7.0229,7.0116,7.0364,7.1142,7.1289,7.1255,7.1176,7.1142,7.0872,7.0026,6.9823,6.944,6.8174,6.6572,6.4854,6.3039,6.1829,6.0895,6.0231,0.0,6.2863,6.512,6.6605,6.8126,6.988,7.0025,7.0517,7.1712,7.0915,7.1458,7.3868,7.4701,7.5932,7.7724,7.9028,8.0511,8.2176,8.2356,8.2896,8.3866,8.4027,8.4203,8.4375,8.5216,8.5673,8.582,8.6518,8.6867,8.6978,8.6978,8.6978,8.7014,8.7124,8.8078,8.9436,8.9546,9.0537,9.1803,9.3601,9.3909,9.418,9.418,9.4789,9.5296,9.5296,9.5905,9.6244,9.5838,9.5838,9.5872,9.5872,9.5229,9.4755,9.4755,9.4789,9.4451,9.3668,9.2455,9.1677,9.1305,9.0188,8.9106,8.8023,8.6535,8.5621,8.5249,8.4817,8.4208,8.349,8.2746,8.2002,8.1283,8.0513,8.0209,8.0209,8.0209,8.0209,8.0175,7.9837,7.9464,7.8966,7.7908,7.7232,7.6792,7.598,7.5709,7.5709,7.5709,7.5202,7.4603,7.4603,7.3849,7.2902,7.2529,7.1887,7.1244,7.0872,7.0804,7.0872,7.1222,7.1289,7.1289,7.1289,7.1289,7.1086,7.0331,7.0217,6.9869,6.8745,6.7265,6.6151,6.6093,6.3905,0.0,0.0,6.3885,6.4887,6.7278,6.8923,7.0698,7.2726,7.2545,7.2581,7.3289,7.3088,7.3579,7.5027,7.6331,7.7794,7.9457,8.0708,8.1776,8.2697,8.3239,8.3779,8.43,8.4843,8.5165,8.527,8.6077,8.6444,8.6481,8.6848,8.6978,8.6978,8.6978,8.6978,8.7014,8.7472,8.8372,8.9436,8.9877,9.0812,9.1803,9.3808,9.418,9.4518,9.4687,9.5026,9.533,9.5499,9.6007,9.6176,9.5601,9.6041,9.6379,9.6379,9.5872,9.5601,9.577,9.5804,9.5229,9.3943,9.2421,9.1474,9.1305,8.9884,8.8666,8.7753,8.6636,8.5858,8.552,8.4884,8.4208,8.349,8.2915,8.2171,8.1283,8.0716,8.0344,8.0209,8.0209,8.0209,8.0209,8.0209,7.9769,7.9058,7.8483,7.7671,7.6826,7.6183,7.5845,7.5709,7.5709,7.5337,7.4864,7.4864,7.4356,7.3612,7.2868,7.2124,7.1526,7.1357,7.1289,7.1289,7.1289,7.1289,7.1289,7.1289,7.1289,7.112,7.0567,7.0609,7.0533,6.9771,6.8497,6.7782,6.8539,0.0,0.0,0.0,6.6336,6.7112,6.9699,7.1205,7.3016,7.5426,7.51,7.481,7.4991,7.557,7.6114,7.6476,7.8302,7.989,8.1096,8.2117,8.2879,8.3435,8.4195,8.4701,8.4955,8.5715,8.6187,8.6371,8.6811,8.7088,8.7288,8.7088,8.7088,8.7234,8.7088,8.7198,8.7601,8.8023,8.883,8.9767,9.0354,9.1106,9.1803,9.4485,9.4112,9.3876,9.4586,9.418,9.3977,9.4687,9.4823,9.4857,9.4789,9.4823,9.4857,9.4857,9.4823,9.506,9.5736,9.5804,9.5466,9.4687,9.3199,9.2015,9.1338,8.9884,8.8429,8.7008,8.6873,8.6129,8.4681,8.4614,8.4208,8.349,8.3422,8.2644,8.1317,8.1249,8.0818,8.0209,8.0209,8.0209,8.0209,8.0209,7.9769,7.9067,7.9058,7.8145,7.6893,7.6826,7.6318,7.5709,7.5709,7.5676,7.5608,7.5608,7.51,7.439,7.3612,7.2902,7.2157,7.1515,7.1289,7.1289,7.1289,7.1289,7.1289,7.1289,7.1289,7.1289,7.1222,7.1827,7.2126,7.1385,7.0591,6.9378,6.7371,0.0,0.0,6.5846,6.7019,6.898,7.2074,7.3181,7.4665,7.7072,7.7253,7.7543,7.8303,7.8412,7.91,8.0567,8.1016,8.2041,8.392,8.3216,8.3581,8.5288,8.5379,8.5868,8.6813,8.6867,8.7288,8.7986,8.7325,8.7435,8.8059,8.7308,8.7435,8.8059,8.7325,8.7858,8.9143,8.8463,8.916,9.0519,9.0592,9.1106,9.1803,9.4552,9.4112,9.3977,9.5161,9.4755,9.4518,9.5263,9.577,9.6041,9.6041,9.648,9.6751,9.6751,9.6751,9.6683,9.648,9.648,9.5973,9.4789,9.3237,9.1677,8.9985,8.9404,8.8835,8.826,8.738,8.6609,8.6034,8.5053,8.4208,8.349,8.3016,8.2509,8.1934,8.1021,8.0716,8.0851,8.0378,8.0209,8.0209,8.0209,8.004,7.9735,7.9295,7.8483,7.7502,7.7063,7.6386,7.5709,7.5709,7.5709,7.5709,7.5709,7.5506,7.5134,7.439,7.3646,7.3003,7.2732,7.2326,7.1887,7.1391,7.1289,7.1289,7.1289,7.1688,7.2034,7.2034,7.2721,7.3088,7.2318,7.1992,7.1657,7.1298,0.0,6.91,7.0598,7.0866,7.1732,7.3941,7.5334,7.6674,7.8122,7.8231,7.8376,7.8666,7.9643,8.0476,8.1074,8.232,8.3638,8.4995,8.5267,8.5502,8.5698,8.6157,8.6852,8.7729,8.7729,8.8169,8.8923,8.8133,8.7912,8.8169,8.7876,8.7912,8.8206,8.8409,8.8849,8.9363,8.9069,8.962,9.0592,9.0592,9.1106,9.1803,9.4552,9.4112,9.3977,9.5229,9.4857,9.4687,9.5635,9.621,9.6646,9.6883,9.7326,9.7664,9.7664,9.7664,9.7529,9.7258,9.7022,9.6345,9.5127,9.3165,9.1169,8.9201,8.91,8.8998,8.8761,8.7753,8.7144,8.6907,8.5621,8.4708,8.42,8.3456,8.2983,8.2712,8.1697,8.1257,8.1283,8.075,8.0547,8.0513,8.0276,8.0209,8.0141,7.9634,7.8855,7.7967,7.7671,7.7096,7.6386,7.6149,7.6217,7.6386,7.6149,7.5912,7.5608,7.51,7.4424,7.3849,7.3849,7.3477,7.2902,7.2191,7.1988,7.1988,7.1988,7.2451,7.2891,7.2891,7.3577,7.4046,7.3536,7.3439,7.356,7.3846,7.2345,7.1784,7.3651,7.3651,7.405,7.5643,7.7036,7.8195,7.8992,7.91,7.9281,7.9788,8.0839,8.1726,8.2359,8.3934,8.533,8.6308,8.6779,8.6995,8.6921,8.7455,8.7912,8.8206,8.8463,8.9014,8.973,8.8923,8.8573,8.8573,8.8573,8.8573,8.861,8.9179,8.9693,9.0134,8.9877,9.028,9.0996,9.0996,9.1326,9.1803,9.4552,9.4112,9.3808,9.4586,9.4112,9.4108,9.5567,9.5804,9.6074,9.6815,9.6917,9.6917,9.6917,9.6917,9.7191,9.7935,9.7326,9.6548,9.5804,9.2962,9.0628,8.9168,8.91,8.8761,8.8023,8.7989,8.7651,8.6907,8.6163,8.5817,8.5784,8.4979,8.4174,8.3524,8.349,8.2678,8.1317,8.1317,8.1317,8.1249,8.0513,8.0209,8.0209,8.0209,7.9295,7.8111,7.8855,7.8619,7.7899,7.7164,7.7401,7.7874,7.713,7.6352,7.5709,7.5709,7.5202,7.4627,7.4627,7.4627,7.4458,7.368,7.35,7.35,7.35,7.3635,7.3705,7.3727,7.4495,7.5136,7.51,7.5131,7.4846,7.405,7.3253,7.2999,7.3832,7.4629,7.5715,7.7326,7.8231,7.9028,7.9861,7.9933,8.0585,8.2197,8.2305,8.3175,8.5098,8.6134,8.717,8.8169,8.7435,8.7785,8.9363,8.94,8.8996,8.8206,8.9033,8.984,9.0592,8.9767,8.94,8.94,8.94,8.94,8.94,8.9436,9.0354,9.173,9.0922,9.1106,9.1803,9.1803,9.1803,9.1803,9.4552,9.4112,9.3808,9.4586,9.4958,9.5296,9.5736,9.6683,9.7428,9.7631,9.7664,9.7664,9.7664,9.7664,9.7529,9.7258,9.6548,9.5127,9.2793,9.1305,9.0087,8.9168,8.91,8.8998,8.8795,8.826,8.7888,8.7685,8.6399,8.5817,8.5784,8.4437,8.3998,8.4234,8.3186,8.278,8.2813,8.2306,8.2069,8.2069,8.1832,8.1426,8.1021,8.1562,8.0818,7.9566,7.9803,7.9397,7.8653,7.7908,7.7831,7.7967,7.7739,7.7527,7.7299,7.7299,7.7164,7.6995,7.6995,7.6995,7.642,7.4075,7.35,7.3684,7.426,7.4924,7.5563,7.6184,7.6996,7.743,7.6907,7.6774,7.6529,7.5696,7.537,7.5515,7.6311,7.6637,7.7398,7.8992,7.939,8.0078,8.1472,8.1581,8.2016,8.3066,8.3792,8.4809,8.617,8.7082,8.7756,8.8206,8.8519,8.8923,8.94,8.8849,8.8702,8.9033,8.984,9.0354,9.0592,9.0354,9.0244,9.0244,9.0244,9.0244,9.028,9.0849,9.1363,9.1767,9.1546,9.1583,9.1803,9.1803,9.1803,9.1803,9.418,9.3909,9.374,9.418,9.462,9.5127,9.5702,9.6548,9.736,9.7935,9.8003,9.8003,9.8003,9.8003,9.7698,9.6985,9.5939,9.4214,9.1474,9.0865,9.0188,8.9168,8.91,8.91,8.91,8.8632,8.8429,8.8429,8.6941,8.623,8.6196,8.4674,8.4174,8.4546,8.3667,8.3355,8.3456,8.3016,8.2847,8.2813,8.2543,8.2306,8.2171,8.234,8.1866,8.1088,8.1088,8.0784,8.0276,7.9228,7.8686,7.8517,7.9117,7.8889,7.845,7.845,7.8213,7.8,7.8,7.8,7.7561,7.5733,7.5033,7.5009,7.5576,7.6139,7.6796,7.7713,7.8315,7.8557,7.805,7.7977,7.7833,7.7326,7.7253,7.7543,7.834,7.8738,7.939,8.0694,8.1128,8.1708,8.2668,8.2776,8.3121,8.4028,8.5009,8.6028,8.7136,8.7701,8.8376,8.9124,8.929,8.9693,9.0317,8.9564,8.9381,8.9877,9.0702,9.1069,9.1069,9.1069,9.0922,9.0629,9.0959,9.0886,9.0665,9.1473,9.1803,9.1803,9.1803,9.1803,9.1803,9.1803,9.1803,9.1803,9.3601,9.3601,9.3601,9.3601,9.3668,9.4146,9.5499,9.577,9.6311,9.7732,9.7901,9.7935,9.8003,9.7935,9.7597,9.6883,9.5398,9.3605,9.1541,9.1271,9.0594,8.9269,8.9134,8.91,8.91,8.91,8.91,8.91,8.7685,8.6947,8.6873,8.5391,8.4715,8.4681,8.4614,8.4268,8.3693,8.3625,8.3592,8.3524,8.2881,8.2949,8.3422,8.2847,8.2577,8.2509,8.2509,8.2509,8.2272,8.0784,7.987,7.9532,8.0885,8.0378,7.9295,7.9295,7.8896,7.8394,7.8452,7.8433,7.8439,7.8463,7.7895,7.7352,7.7432,7.7535,7.7883,7.8843,7.9089,7.91,7.9028,7.9028,7.8992,7.8919,7.8919,7.9209,8.0006,8.0766,8.1527,8.2305,8.3066,8.3537,8.361,8.3682,8.41,8.5046,8.601,8.6939,8.7886,8.8247,8.9087,9.0555,8.9877,9.0244,9.1767,9.0996,9.0592,9.0629,9.1436,9.1767,9.1693,9.1767,9.14,9.0739,9.1473,9.1363,9.0776,9.151,9.1803,9.1803,9.1803,9.1803,9.1803,9.1803,9.1803,9.1803,9.3601,9.3601,9.3601,9.3601,9.4079,9.4586,9.489,9.5432,9.6108,9.7022,9.7123,9.736,9.7935,9.7461,9.6819,9.6108,9.4112,9.2696,9.2189,9.1102,9.029,8.9985,8.941,8.91,8.91,8.91,8.91,8.91,8.8192,8.7482,8.6907,8.596,8.552,8.552,8.4884,8.4877,8.5249,8.464,8.4343,8.4343,8.4174,8.3896,8.3558,8.3937,8.3734,8.3253,8.3253,8.3253,8.305,8.1562,8.0978,8.0885,8.1215,8.108,8.0818,8.0818,8.1217,8.1682,8.173,8.1851,8.194,8.1985,8.1392,8.0682,8.0054,8.0484,8.1307,8.2243,8.2431,8.2269,8.1653,8.1509,8.1309,8.0694,8.0585,8.0875,8.169,8.1943,8.2342,8.3139,8.3392,8.3755,8.4388,8.5116,8.5682,8.6047,8.7012,8.7758,8.8099,8.9363,9.0262,9.0592,9.0445,9.0812,9.1803,9.0996,9.0592,9.0629,9.1436,9.1473,9.0886,9.151,9.1693,9.1546,9.173,9.1693,9.1546,9.173,9.1803,9.1803,9.1803,9.1803,9.1803,9.1803,9.1803,9.1803,9.3601,9.3876,9.4112,9.4112,9.4721,9.533,9.5702,9.577,9.6041,9.6815,9.6612,9.6514,9.692,9.6616,9.6074,9.533,9.3876,9.2827,9.2426,9.1682,9.1102,9.0729,9.0357,8.9985,8.9613,8.9613,8.9444,8.91,8.8361,8.7786,8.7414,8.667,8.6332,8.6298,8.552,8.5418,8.575,8.4945,8.4614,8.4614,8.4614,8.4377,8.4065,8.4444,8.4343,8.4031,8.4031,8.3795,8.3422,8.3016,8.2408,8.1934,8.2644,8.2726,8.261,8.2961,8.3521,8.3984,8.4042,8.4098,8.4144,8.4188,8.4238,8.3727,8.183,8.1754,8.2369,8.3298,8.3501,8.3392,8.2958,8.2885,8.274,8.2324,8.2251,8.2541,8.332,8.3465,8.3755,8.4533,8.4642,8.5005,8.5915,8.6864,8.734,8.7121,8.796,8.8543,8.8776,8.9913,9.0776,9.1179,9.1179,9.1363,9.1803,9.1363,9.1179,9.1179,9.1583,9.1583,9.1179,9.162,9.1803,9.1803,9.1803,9.1803,9.1803,9.1803,9.1803,9.1803,9.1803,9.1803,9.1803,9.1803,9.1803,9.1803,9.3601,9.418,9.4721,9.4721,9.5229,9.5804,9.6413,9.5872,9.5669,9.6413,9.5973,9.5669,9.577,9.5702,9.533,9.4586,9.3943,9.33,9.2658,9.2459,9.2121,9.1508,9.1372,9.0966,9.0222,9.0222,8.985,8.91,8.8361,8.7989,8.7989,8.7245,8.6974,8.7076,8.6196,8.5885,8.5926,8.4986,8.4614,8.4614,8.4614,8.4614,8.4614,8.4614,8.4614,8.4614,8.4614,8.4208,8.3761,8.4242,8.3697,8.3065,8.4261,8.4522,8.4471,8.508,8.5508,8.5819,8.5842,8.5883,8.5923,8.6029,8.656,8.6358,8.3745,8.3029,8.3154,8.3932,8.4098,8.4062,8.3936,8.399,8.4098,8.4098,8.4098,8.4388,8.5185,8.5185,8.5402,8.6199,8.6346,8.6675,8.7498,8.8397,8.8691,8.8161,8.8873,8.9422,8.962,9.0354,9.1106,9.1767,9.1803,9.1803,9.1803,9.1803,9.1803,9.1803,9.1803,9.1803,9.1803,9.1803,9.1803,9.1803,9.1803,9.1803,9.1803,9.1803,9.1803,9.1803,9.1803,9.1803,9.1803,9.1803,9.1803,9.1803,9.3601,9.418,9.4721,9.4721,9.4789,9.489,9.4992,9.4349,9.4146,9.489,9.4924,9.5093,9.5736,9.5229,9.4552,9.3808,9.3668,9.3537,9.3436,9.2793,9.2358,9.2257,9.1643,9.0966,9.0222,9.0222,8.985,8.91,8.8361,8.7989,8.7989,8.7245,8.7245,8.7786,8.6399,8.6163,8.667,8.5189,8.4614,8.4614,8.4614,8.4614,8.4614,8.4614,8.4614,8.4614,8.4614,8.4546,8.4377,8.3828,8.4105,8.4692,8.4864,8.5495,8.6172,8.6277,8.6903,8.7557,8.7622,8.7741,8.7981,8.8687,8.8442,8.7907,8.7473,8.6822,8.6391,8.6487,8.6542,8.6325,8.5692,8.609,8.6542,8.6542,8.6542,8.6795,8.7592,8.7121,8.6977,8.7773,8.8036,8.8206,8.8334,8.88,8.9039,8.8947,8.9824,9.0409,9.0427,9.1216,9.1693,9.1803,9.1803,9.1803,9.1803,9.1803,9.1803,9.1803,9.1803,9.1803,9.1803,9.1803,9.1803,9.1803,9.1803,9.1803,9.1803,9.1803,9.1803,9.1803,9.1803,9.1803,9.1803,9.1803,9.1803,9.1803,9.4112,9.4823,9.533,9.533,9.5669,9.577,9.5364,9.4687,9.4349,9.4654,9.4349,9.4214,9.4518,9.4282,9.3943,9.3634,9.3601,9.3601,9.3601,9.3267,9.3064,9.3064,9.2759,9.2015,9.0831,9.0831,9.0256,8.91,8.8767,8.8598,8.8598,8.826,8.8091,8.7955,8.6873,8.6366,8.6196,8.5053,8.4614,8.4614,8.4614,8.4614,8.4614,8.4614,8.4614,8.4614,8.4614,8.4969,8.5387,8.507,8.5604,8.6447,8.6447,8.7152,8.7958,8.7958,8.865,8.94,8.9457,8.9505,8.964,8.9966,8.9821,8.9531,8.9531,8.8915,8.8227,8.7773,8.7665,8.7556,8.723,8.7447,8.7665,8.7665,8.7665,8.7809,8.8135,8.7882,8.7848,8.829,8.8936,8.9417,8.9566,9.0191,9.0429,8.9989,9.0758,9.1069,9.0629,9.1363,9.1803,9.1803,9.1803,9.1803,9.1803,9.1803,9.1803,9.1803,9.1803,9.1803,9.1803,9.1803,9.1803,9.1803,9.1803,9.1803,9.1803,9.1803,9.1803,9.1803,9.1803,9.1803,9.1803,9.1803,9.1803,9.1803]}]]